GFSCGP_sfc_dewp_000.txt.gz
Dewpoint
24 21 18 17 20 17 17 20 27 31 37 41 42 48 47 49 51 49 50 57 57 58 60 64 66 67 68 69 71 72 73 74 74 74 74 73 72 73 73 72 73 74 74 74
19 18 17 17 19 18 17 18 21 35 40 42 47 48 50 50 47 50 50 55 56 58 60 64 65 67 67 69 71 73 74 75 75 73 76 74 73 69 70 74 73 72 71 72
11 11 20 20 19 19 20 19 21 28 44 43 47 47 53 52 53 52 54 55 57 59 59 62 63 65 66 68 71 72 74 74 75 74 72 69 67 67 63 65 64 68 70 70
19 19 19 18 19 20 21 24 23 27 42 32 44 29 51 52 54 54 53 57 57 59 60 60 61 64 65 68 70 74 76 75 73 70 67 68 61 61 62 63 63 67 67 68
20 18 19 19 18 22 27 34 33 35 40 39 45 37 34 50 51 52 53 54 55 58 59 59 59 62 65 69 71 72 72 71 69 68 67 61 63 60 62 62 65 68 67 67
20 20 20 19 21 22 37 39 39 37 31 30 28 33 25 34 48 48 52 54 56 57 59 60 61 64 67 67 67 65 68 69 68 64 64 65 64 64 61 62 62 60 61 63
21 20 21 23 25 30 30 27 22 22 22 20 31 30 29 30 46 46 48 54 57 57 58 60 63 65 66 67 64 63 67 68 68 62 61 62 63 64 65 64 59 63 59 59
18 20 20 22 21 24 24 20 17 21 15 15 35 24 29 42 44 44 49 52 56 57 58 60 65 65 66 65 63 63 66 67 64 62 64 66 65 59 60 62 62 59 59 59
17 17 20 21 23 23 24 23 18 19 19 16 18 29 36 42 44 46 51 53 56 56 57 60 63 64 64 62 63 64 66 66 64 62 66 66 66 66 63 65 66 60 64 59
20 21 19 23 25 27 27 24 20 19 23 23 19 21 25 34 35 44 48 52 56 55 56 59 60 63 61 60 62 64 65 65 64 63 64 61 62 64 64 64 64 64 64 64
17 22 25 26 25 20 25 24 26 23 24 21 19 21 31 31 34 37 47 53 56 55 54 57 60 62 60 60 61 62 63 63 63 63 63 63 62 62 62 62 63 64 64 65
20 20 22 22 26 28 23 24 26 25 33 25 24 20 31 32 34 37 42 52 55 57 52 53 59 61 59 60 58 59 59 60 60 61 62 62 63 63 62 62 62 63 63 64
23 20 20 23 26 29 27 28 26 25 26 31 24 24 39 38 41 43 43 50 56 59 55 53 57 59 58 59 60 58 58 54 55 59 59 61 62 62 62 62 62 62 63 64
38 23 26 15 24 22 27 26 28 24 26 28 27 29 31 36 39 41 46 51 55 58 57 56 56 57 59 60 61 61 58 54 55 57 57 60 62 62 61 62 63 62 64 64
30 33 28 22 19 20 22 25 27 28 28 28 27 31 35 37 38 43 42 46 54 56 57 58 56 57 60 61 62 61 59 59 59 58 59 60 62 63 62 63 64 64 63 62
38 35 34 26 24 23 21 22 26 28 27 31 30 31 31 33 36 36 38 43 50 55 56 58 58 58 60 60 60 59 59 58 61 61 60 61 62 64 64 63 63 63 62 61
39 36 38 29 29 28 27 28 29 30 33 32 28 32 34 34 36 39 45 46 48 52 56 56 57 58 60 59 57 56 58 58 61 62 61 61 63 63 64 61 62 62 62 62
43 43 36 28 36 30 29 33 30 31 32 31 32 32 33 36 42 47 49 49 48 50 55 56 56 58 59 54 51 56 55 60 62 62 62 62 62 62 63 61 61 62 62 61
43 41 33 32 31 29 33 35 33 32 33 35 34 33 31 37 46 45 48 50 51 53 56 56 56 57 56 54 54 56 58 58 59 60 60 60 61 62 62 62 62 62 61 59
40 45 36 33 29 27 31 31 35 36 32 32 32 33 33 40 35 42 53 51 53 54 56 57 57 54 53 56 53 57 58 59 58 58 59 58 60 62 61 62 62 61 60 58
37 38 32 30 31 28 38 35 36 32 33 36 33 34 37 43 41 52 53 53 54 55 56 57 55 53 56 58 58 59 58 58 58 57 56 58 62 64 64 62 62 61 61 60
37 35 30 32 33 32 38 35 35 46 43 40 41 40 42 47 50 51 53 54 54 55 54 55 55 55 57 60 62 62 62 64 62 60 59 62 65 63 55 64 62 60 62 63
34 39 36 36 37 47 42 44 44 46 48 48 49 49 48 48 48 50 52 54 53 54 53 53 54 58 60 62 64 63 65 65 63 64 64 64 62 61 62 64 64 58 59 55
39 41 35 39 43 41 39 40 44 46 48 49 48 48 50 51 49 50 53 54 54 54 55 55 56 57 58 61 62 64 64 65 64 62 62 64 62 62 62 60 55 54 51 55
37 40 37 39 42 40 40 44 45 46 46 47 47 48 50 50 49 49 51 52 52 54 54 56 57 57 58 62 62 61 62 62 60 60 61 60 57 59 59 64 58 55 56 53
37 38 35 33 42 43 43 41 43 44 45 45 48 49 48 48 47 47 49 52 53 56 56 57 58 58 58 58 60 61 62 62 62 59 56 55 53 53 52 54 55 46 46 44

GFSCGP_sfc_dewp_003.txt.gz
Dewpoint
25 19 18 18 21 21 24 23 26 27 32 34 35 40 46 48 46 47 50 54 54 54 57 60 62 64 65 67 70 71 73 76 75 76 75 77 72 74 72 78 74 74 74 74
23 20 19 16 17 19 17 19 24 27 31 32 34 41 42 46 47 46 47 51 51 52 55 60 63 64 65 67 69 72 73 76 75 73 76 76 73 68 66 68 71 72 70 73
17 19 20 16 16 17 18 16 17 23 28 30 37 37 44 43 45 47 46 48 49 52 52 57 60 62 62 66 70 71 74 74 76 76 74 72 70 70 63 62 63 66 67 67
14 10 14 13 16 17 18 17 17 18 27 27 29 27 44 46 43 43 46 47 47 50 50 52 55 58 59 64 68 72 74 75 73 71 68 70 63 59 62 61 61 65 66 66
14 12 16 17 17 17 22 19 19 20 22 27 31 29 42 42 47 45 43 46 49 50 51 51 50 56 59 63 66 71 73 71 70 68 67 61 63 56 56 58 64 68 69 66
16 20 18 17 17 18 26 26 26 26 24 24 30 34 29 44 48 48 47 44 47 49 51 53 53 57 59 64 67 69 70 70 69 66 65 64 63 63 59 61 61 59 58 59
20 17 16 17 18 22 24 23 23 23 23 23 25 23 31 28 35 34 43 47 47 48 50 54 55 58 63 64 66 65 68 69 68 64 61 60 62 64 65 64 59 63 57 58
19 16 16 20 20 21 22 21 20 24 19 18 26 25 23 23 33 39 41 44 48 51 52 54 57 61 64 64 65 63 68 69 67 63 65 66 65 59 59 61 62 59 59 58
20 18 17 18 19 21 23 20 18 16 20 18 20 26 26 35 34 38 39 42 49 51 54 54 56 62 63 64 64 64 67 69 66 63 67 67 66 66 64 66 66 60 64 60
21 22 18 16 18 20 24 21 18 18 23 23 20 22 22 34 32 32 36 41 46 52 55 54 56 62 63 63 61 62 65 67 65 63 64 61 61 63 65 65 65 65 65 65
16 20 21 20 21 21 20 22 24 21 25 22 20 23 29 30 31 31 34 38 46 51 56 54 56 60 62 62 60 58 62 64 64 63 63 62 62 61 63 62 62 64 65 65
17 17 20 19 20 18 19 22 23 24 30 25 24 23 27 28 28 32 35 38 45 54 57 56 57 59 61 60 58 57 57 59 61 61 62 61 63 63 62 62 62 63 63 64
19 17 19 21 20 20 20 21 21 22 23 35 28 27 35 32 34 36 38 38 47 54 58 56 56 59 61 59 61 57 55 54 56 59 60 61 62 63 63 63 63 62 63 63
33 19 23 14 22 23 24 20 21 20 25 26 28 29 35 34 36 38 39 42 44 52 57 57 56 59 63 62 63 59 56 54 54 55 56 60 62 64 63 64 63 63 64 63
23 28 25 20 16 18 20 20 19 24 26 26 27 31 32 34 36 39 38 40 43 50 55 58 54 58 65 63 65 60 57 58 56 57 58 60 62 64 64 64 64 63 63 62
31 29 29 24 19 15 16 18 20 22 23 24 24 28 32 32 34 35 36 37 39 44 52 57 58 58 62 62 61 60 58 58 60 60 60 61 61 63 63 63 63 63 63 63
36 30 32 28 24 22 21 21 21 23 25 27 27 32 36 35 35 37 41 40 42 42 49 55 58 61 63 60 63 59 59 59 60 61 62 61 62 63 63 62 62 63 63 65
40 42 34 28 29 25 25 24 25 24 26 28 32 33 34 35 35 39 42 44 46 45 45 53 56 59 60 60 59 59 57 61 62 62 62 62 62 62 63 63 63 64 64 65
34 41 34 30 27 30 28 32 29 29 31 32 32 35 35 32 35 39 41 45 49 51 51 53 56 58 61 60 59 59 56 58 59 61 62 62 62 62 62 62 63 64 64 63
34 40 34 33 30 27 34 32 32 33 31 33 35 35 34 35 33 44 49 48 51 53 55 56 57 58 59 59 51 57 57 59 60 61 61 61 61 61 61 63 64 64 64 60
35 36 30 27 29 29 31 35 36 35 39 38 34 35 34 36 38 48 49 51 53 55 57 58 58 58 63 59 58 61 60 60 61 59 59 62 62 65 64 65 65 67 63 62
38 33 27 29 30 30 35 34 34 48 43 41 40 39 40 40 40 42 49 52 53 55 56 58 58 58 58 61 63 63 66 66 64 64 61 63 66 60 56 66 65 64 63 63
34 41 40 41 41 49 43 45 44 44 45 44 44 43 43 41 39 41 46 52 53 55 56 56 56 59 60 61 63 63 67 66 65 65 66 64 64 60 61 64 67 59 63 63
41 40 35 40 43 42 40 41 45 45 45 45 44 45 45 44 45 46 49 53 54 55 55 54 56 56 59 62 64 66 66 66 66 66 64 65 66 65 63 64 57 56 56 57
36 40 37 38 42 42 43 44 43 43 45 45 46 46 47 47 46 49 53 56 56 57 57 58 58 58 59 62 62 63 64 66 65 63 61 60 57 61 61 63 56 55 55 52
32 35 34 38 44 44 46 42 42 43 44 45 46 48 49 50 50 52 54 55 56 58 56 61 61 56 60 61 62 63 63 63 62 60 57 55 53 52 50 58 54 46 46 43

GFSCGP_sfc_dewp_006.txt.gz
Dewpoint
31 24 20 18 23 26 27 26 32 33 41 42 41 42 44 43 46 49 51 52 52 53 58 60 64 66 66 68 73 73 74 78 78 76 75 76 74 76 75 76 76 76 76 76
25 20 19 18 21 20 20 22 24 30 32 35 43 43 44 43 44 48 50 52 52 53 55 58 61 60 63 69 73 74 76 78 78 79 78 76 77 76 76 74 76 75 73 74
21 20 19 17 16 17 20 17 19 26 29 29 31 41 47 44 44 45 47 51 51 52 54 58 61 62 63 67 71 74 76 77 78 78 79 78 76 76 73 73 70 71 70 71
19 19 18 18 15 15 18 17 16 17 25 24 31 28 46 44 42 44 44 46 48 51 54 56 59 62 63 67 70 74 76 77 77 77 76 75 71 67 72 71 71 70 71 71
15 15 17 19 17 16 17 16 16 16 17 20 23 27 41 43 41 41 42 44 46 49 51 53 55 59 61 66 68 73 76 77 76 75 73 71 71 67 68 68 70 71 71 72
14 12 10 12 13 15 16 24 19 18 18 20 22 27 37 44 47 43 42 43 46 47 49 52 55 59 59 64 67 72 75 75 74 73 72 71 69 69 68 69 68 67 68 68
13 11 13 14 15 17 18 23 24 23 22 21 23 25 37 40 40 45 55 56 45 47 50 53 54 57 61 65 68 72 73 73 73 71 70 68 68 70 70 69 68 69 66 67
12 12 16 15 17 18 19 22 22 28 21 20 27 28 35 34 41 47 50 50 45 46 52 54 58 59 63 66 70 70 72 72 71 71 71 70 71 69 69 71 69 67 67 67
15 18 17 15 17 19 22 22 19 20 19 17 22 28 27 30 29 28 34 33 46 45 48 53 57 60 64 66 69 70 71 72 71 69 73 72 72 71 70 71 71 68 71 65
20 23 16 15 18 18 20 22 20 20 27 25 20 23 25 38 33 32 31 32 39 48 49 51 54 61 65 66 68 69 71 72 70 69 70 69 70 70 71 70 70 70 70 70
18 22 20 18 19 18 19 20 21 18 21 22 21 27 36 41 38 32 32 35 36 39 51 54 56 63 66 65 66 66 68 70 68 68 70 70 67 67 69 69 68 69 71 70
19 18 22 19 18 17 17 22 26 25 31 29 30 25 30 32 31 31 34 34 40 45 49 57 57 63 65 65 64 63 63 65 66 67 70 69 69 68 69 69 68 69 69 70
22 22 21 22 17 19 19 20 19 21 23 36 27 29 39 31 33 36 36 38 50 53 57 60 58 60 64 65 65 62 61 60 62 66 65 68 68 68 69 69 69 69 69 68
33 18 28 15 24 22 24 19 17 16 27 26 27 36 35 35 38 45 42 45 46 55 55 61 61 61 63 65 65 64 60 58 60 61 63 67 68 69 68 69 70 69 69 68
22 34 23 17 15 15 18 19 18 20 26 27 31 36 43 42 39 40 40 42 44 51 55 61 60 62 65 66 65 65 62 63 62 64 65 67 69 69 69 69 69 68 69 68
25 31 26 22 18 16 15 15 21 21 19 20 23 31 40 41 43 39 36 38 45 47 49 55 62 62 66 66 65 65 63 64 67 62 65 67 68 68 68 69 69 69 69 68
35 27 34 27 22 22 21 20 17 21 25 25 31 36 41 41 38 37 41 41 46 48 50 53 60 63 68 65 65 65 64 65 66 66 66 67 67 67 68 68 68 69 69 68
42 45 35 28 33 27 24 25 20 19 23 24 31 35 42 38 37 39 43 45 43 48 50 53 55 61 66 64 63 65 64 65 67 67 66 66 67 67 68 68 68 69 69 69
45 46 36 32 27 27 27 29 35 36 35 31 31 36 40 36 34 45 46 42 45 51 57 58 52 57 65 64 65 65 63 63 65 65 66 66 66 67 67 67 68 69 68 67
39 48 46 36 29 27 34 33 36 39 35 41 40 40 39 37 33 48 53 47 47 50 56 58 59 61 65 64 64 64 62 64 63 64 65 67 67 67 67 68 68 67 69 66
32 36 32 31 30 27 32 36 38 38 41 45 44 43 44 45 46 54 53 51 51 53 56 59 63 64 67 66 64 62 62 63 64 64 66 67 68 69 69 70 69 69 65 65
38 36 32 35 33 31 36 40 38 51 50 44 42 47 46 43 43 44 46 54 54 56 58 60 64 66 67 67 67 64 65 68 70 68 67 68 69 65 62 69 69 66 68 65
33 45 48 46 47 52 45 47 48 47 50 46 47 44 44 42 42 43 47 51 55 56 59 60 63 67 67 67 70 69 70 71 70 71 70 70 70 68 69 67 67 66 65 65
47 48 44 48 53 53 47 45 45 44 45 41 42 42 42 42 43 47 50 54 57 55 59 61 64 65 66 70 70 71 70 71 69 70 70 70 70 70 68 66 66 63 65 63
49 52 49 46 51 49 46 44 44 42 44 42 42 41 42 45 48 51 53 60 56 63 60 63 62 62 63 63 64 64 65 67 68 69 69 69 66 66 63 58 57 60 52 51
35 45 42 42 45 46 44 42 41 41 41 43 44 42 43 46 52 55 61 60 62 63 62 62 64 64 62 63 65 66 64 67 67 66 63 62 62 58 62 58 53 46 45 43

GFSCGP_sfc_dewp_009.txt.gz
Dewpoint
18 27 28 26 22 21 30 30 36 37 37 40 41 47 49 49 49 50 53 55 56 58 62 64 65 65 68 68 69 70 70 74 73 72 71 72 70 72 72 72 73 72 72 72
19 28 29 28 24 23 23 33 36 37 40 41 41 43 45 51 50 50 52 52 54 55 63 64 65 64 67 68 71 71 72 73 73 74 73 73 73 73 72 72 73 72 72 72
18 28 29 25 20 19 21 22 29 36 41 40 43 45 51 51 50 50 52 52 53 57 60 63 65 65 67 69 71 72 73 73 74 73 74 73 73 71 69 67 67 66 65 68
20 25 24 20 18 19 18 22 19 23 37 37 42 41 48 49 46 48 50 51 52 55 56 58 59 61 68 69 71 73 73 73 74 74 72 70 68 59 65 66 65 64 67 65
21 22 20 19 18 18 16 21 18 18 21 27 32 28 43 46 44 44 47 51 51 54 56 58 59 61 65 68 70 73 73 74 73 66 67 64 59 60 63 64 62 60 62 65
20 20 18 19 20 20 21 18 22 17 18 19 22 27 42 44 43 41 45 48 49 53 55 57 59 61 65 67 71 73 73 70 69 64 63 60 58 60 61 62 61 62 61 63
17 16 14 13 16 17 17 28 25 24 20 19 20 21 38 43 42 42 47 48 48 51 54 56 57 59 64 67 70 73 70 68 67 65 65 61 60 60 59 60 63 62 61 64
17 14 14 11 12 14 17 22 28 24 24 22 24 24 33 43 45 45 47 46 44 48 51 54 56 58 63 66 71 70 68 69 67 66 63 61 61 61 63 66 64 61 61 63
14 17 16 16 16 18 19 23 23 22 25 22 27 29 37 42 42 45 47 46 43 44 50 53 56 57 62 66 70 69 68 68 67 66 65 63 63 63 65 64 63 62 65 62
18 19 16 16 16 16 22 24 24 23 24 23 23 34 33 35 36 37 49 47 47 48 51 52 55 58 63 67 69 68 68 67 68 67 66 66 66 65 64 64 63 63 62 64
15 18 18 17 15 18 23 22 27 25 26 22 25 31 40 39 37 34 32 41 45 49 51 58 60 60 63 67 68 68 68 68 67 67 66 66 67 65 65 64 63 63 64 65
16 22 22 15 20 19 20 20 28 30 25 30 31 32 34 39 38 38 39 41 40 45 50 55 55 59 63 66 67 67 68 67 66 66 66 65 61 62 64 63 63 63 63 63
18 19 19 25 17 18 17 18 23 30 25 24 31 31 40 36 35 38 39 43 45 44 54 56 56 57 63 65 65 66 66 66 65 64 66 64 62 61 62 63 63 63 63 62
37 23 27 21 24 20 19 19 22 19 22 22 29 35 40 41 45 43 42 40 48 49 59 56 61 62 63 64 63 64 63 64 63 63 64 63 63 63 63 64 64 64 63 63
25 27 27 24 21 18 21 21 20 20 22 27 29 38 38 38 40 39 38 36 39 45 53 60 60 63 63 63 63 64 61 63 62 62 62 62 63 64 64 64 65 64 63 64
24 32 29 24 24 18 17 19 23 24 21 21 24 35 38 39 43 43 39 39 40 43 42 52 62 62 63 63 63 63 61 61 62 61 61 64 64 64 65 64 65 63 63 63
32 35 31 24 25 24 24 25 24 25 24 25 24 35 44 44 43 44 42 39 40 44 45 45 50 62 62 64 64 63 63 65 63 63 62 63 63 63 64 64 65 65 64 63
45 43 35 27 32 23 27 29 31 36 38 37 36 40 39 42 39 40 41 41 41 43 44 46 51 64 64 65 65 65 65 64 63 63 63 63 63 63 64 64 64 64 63 61
47 45 43 35 27 27 30 29 37 37 40 41 40 43 39 39 48 48 48 46 46 48 52 52 53 65 64 64 63 63 63 62 63 63 62 64 63 63 64 65 64 64 63 63
48 48 45 43 38 36 32 38 41 42 39 44 41 43 47 40 47 49 49 50 49 50 52 53 55 64 63 63 62 63 63 63 63 63 63 65 64 64 64 65 65 63 63 62
43 42 40 41 41 41 42 46 41 39 39 45 43 41 44 46 50 52 50 49 50 50 53 57 60 64 63 63 64 63 63 63 63 63 65 65 65 65 65 65 65 63 63 58
42 41 38 40 39 37 49 46 44 47 49 49 49 49 45 45 44 45 44 52 52 51 56 58 64 65 65 64 65 63 62 63 64 63 64 65 65 65 64 65 65 63 62 61
47 49 47 50 48 53 53 50 49 47 48 48 45 46 46 45 45 45 45 43 52 55 58 61 65 65 64 65 65 61 58 57 63 65 65 65 66 66 62 64 63 62 61 61
49 52 49 49 51 52 54 52 52 53 51 50 49 47 47 47 46 45 49 50 59 61 62 62 61 59 59 60 60 60 60 60 59 60 65 65 65 64 64 63 61 60 60 58
50 52 49 49 52 52 50 50 51 50 49 47 49 48 47 47 50 52 52 61 62 63 62 63 61 61 60 60 60 59 60 59 59 57 57 64 64 63 58 54 54 58 49 50
50 51 50 47 54 53 52 51 44 43 42 42 43 45 48 49 53 59 62 61 61 61 63 62 60 59 60 61 60 60 56 58 57 57 62 62 61 60 58 53 49 45 45 43

GFSCGP_sfc_dewp_012.txt.gz
Dewpoint
15 16 16 21 27 25 29 37 36 37 39 48 49 50 52 53 53 53 54 55 56 57 58 60 62 63 65 66 66 68 69 72 72 72 71 70 70 70 71 71 72 72 72 72
14 17 21 29 30 27 24 33 36 38 39 39 49 50 51 53 54 55 55 57 57 59 60 62 63 65 66 67 67 69 70 72 72 72 71 71 71 71 71 71 72 72 71 71
14 17 26 29 29 28 23 34 34 36 39 41 47 47 49 52 52 51 55 57 58 60 60 61 63 65 66 66 69 70 72 71 72 72 72 72 71 70 68 67 68 66 67 68
15 17 23 28 28 27 19 26 33 38 38 38 42 41 46 47 47 48 51 54 56 61 61 62 63 63 66 68 70 70 72 72 72 71 72 70 67 65 64 64 63 64 65 64
13 17 17 22 26 25 20 22 20 38 37 36 41 41 43 47 44 46 48 51 53 61 62 63 63 63 66 68 70 71 71 71 72 72 70 68 62 61 63 64 61 59 61 64
13 22 22 21 23 22 21 18 23 23 24 28 37 36 34 46 44 44 47 51 52 59 61 63 64 63 66 68 70 71 70 71 71 66 65 59 59 60 61 61 58 62 59 66
14 12 19 21 18 20 18 17 15 18 19 16 20 38 37 46 45 45 45 51 52 56 58 61 61 63 67 67 69 71 70 70 68 63 61 58 59 59 59 58 61 61 63 63
16 12 16 18 15 14 15 16 20 17 21 18 23 21 22 43 46 46 45 51 52 55 55 57 57 61 66 67 68 71 70 69 66 63 62 60 60 59 59 61 63 59 60 63
17 16 20 17 16 14 13 20 22 22 33 22 24 27 36 41 44 43 46 49 50 54 55 56 58 59 64 66 68 70 69 67 65 63 62 60 60 62 64 64 62 60 63 63
13 12 15 15 16 17 13 19 19 21 18 17 23 27 31 42 43 43 44 45 46 52 55 56 57 59 63 66 68 70 68 66 65 65 62 61 61 62 63 63 62 63 61 62
12 17 13 21 15 14 21 21 20 21 23 19 20 28 35 38 43 44 46 45 46 48 52 55 57 58 63 65 68 69 68 66 65 65 64 63 64 63 63 63 62 62 62 63
14 14 11 11 18 16 20 21 22 21 19 26 27 29 36 38 41 44 46 48 49 49 51 53 56 57 62 65 68 69 68 66 66 65 64 64 65 65 63 63 62 62 62 63
15 14 12 14 15 19 17 20 25 25 26 24 23 27 38 36 36 38 39 42 47 51 56 56 55 56 61 64 68 68 67 66 66 66 64 64 63 62 63 63 62 62 62 62
32 16 13 12 17 20 17 18 22 24 22 23 26 32 37 37 38 40 41 43 47 50 53 56 56 57 61 65 67 67 67 66 65 66 64 64 60 59 61 63 62 61 62 61
16 14 24 21 18 22 18 16 20 20 21 20 21 32 37 40 39 40 40 43 46 47 55 53 54 55 61 64 66 66 66 66 65 65 65 64 62 61 61 62 62 62 62 62
23 18 22 16 18 20 15 18 19 22 23 29 30 32 39 39 40 39 38 39 40 43 52 57 58 56 54 63 64 65 65 66 65 64 64 65 63 62 62 62 63 63 63 62
20 23 24 16 21 21 22 22 23 25 34 27 29 32 41 41 39 40 39 38 39 40 42 46 60 61 61 62 64 64 65 66 65 64 64 64 64 62 63 62 62 63 62 62
34 26 27 22 21 18 21 29 33 37 39 40 36 39 40 41 42 43 41 39 38 39 40 41 47 58 63 63 64 65 64 65 65 64 63 64 63 62 62 62 62 63 63 63
44 41 38 25 19 22 30 37 37 32 37 43 41 44 43 43 45 45 44 42 41 41 45 46 49 53 64 63 64 63 63 64 63 63 63 64 63 62 61 62 63 63 63 62
41 42 39 41 29 22 38 45 47 40 38 41 45 44 44 44 41 45 48 47 48 48 49 49 51 60 65 64 63 62 63 63 62 63 63 62 61 61 62 63 63 63 63 62
41 41 38 39 36 35 46 48 44 36 37 44 41 43 45 44 45 47 49 48 48 48 50 53 59 63 64 63 63 63 63 62 63 63 63 62 63 62 62 63 63 63 62 60
46 45 42 41 36 35 47 46 44 47 46 45 46 48 50 49 48 48 46 48 51 50 52 57 64 64 64 63 63 62 61 63 63 64 64 64 64 63 63 63 63 62 61 60
45 49 48 48 46 51 53 48 51 52 45 46 45 46 46 47 47 48 49 52 49 53 63 63 61 61 63 62 61 59 58 60 60 59 59 59 61 61 64 64 63 61 60 59
50 52 50 50 51 53 54 54 54 52 51 50 50 51 50 49 50 50 49 52 61 61 60 60 60 60 60 60 60 58 60 61 60 60 60 58 60 59 59 62 62 61 59 58
50 50 49 50 53 52 49 49 50 49 48 48 50 48 50 50 54 59 59 61 61 62 61 61 60 59 59 60 60 60 60 59 59 58 58 58 59 62 59 56 55 56 49 52
51 48 48 47 52 51 50 51 48 43 44 42 41 39 42 45 48 61 60 61 61 61 60 58 59 59 59 59 58 59 60 59 59 58 58 57 60 59 56 51 48 45 44 43

GFSCGP_sfc_dewp_015.txt.gz
Dewpoint
14 14 16 17 24 25 30 37 43 46 46 50 50 51 51 54 54 54 55 55 56 56 58 60 62 62 63 67 68 70 70 71 72 71 70 70 70 70 70 71 71 71 71 71
12 13 15 18 27 25 24 37 39 40 46 49 50 51 50 52 53 54 54 55 55 56 58 59 61 62 63 65 67 68 70 71 72 71 70 70 69 69 70 71 71 72 71 71
10 12 20 25 29 28 24 27 36 37 43 48 49 49 51 53 53 52 53 54 55 57 57 59 61 62 63 65 66 68 69 71 72 71 70 71 71 70 68 67 69 70 70 71
12 14 19 27 27 28 26 26 33 38 39 40 48 44 47 51 52 53 54 55 55 57 58 59 61 62 64 65 67 68 70 70 71 71 70 69 68 66 65 65 63 63 65 65
12 14 17 22 26 27 26 25 25 37 37 41 43 41 44 49 48 51 53 54 56 57 59 59 61 63 64 64 67 69 70 70 71 71 71 70 66 64 63 63 60 61 61 63
10 17 17 16 20 26 29 21 22 29 35 36 42 39 38 46 48 49 51 51 56 57 59 60 61 62 63 65 67 69 70 70 71 71 70 69 65 61 62 61 59 59 59 64
13 11 14 23 21 23 20 17 16 23 31 33 33 39 38 44 48 48 49 49 54 57 59 60 61 62 63 66 67 69 70 70 71 70 68 65 60 61 60 59 57 61 62 63
10 7 11 16 19 19 18 18 19 13 19 23 25 36 38 41 44 48 48 48 52 55 59 61 62 62 62 65 67 68 69 69 70 67 64 59 59 59 59 58 61 60 61 62
14 14 18 17 16 19 19 16 18 16 30 22 25 27 28 40 38 45 46 45 50 53 58 61 62 63 62 64 66 68 69 68 69 65 61 59 59 59 59 61 62 59 59 62
14 12 14 14 18 17 15 18 17 20 17 20 21 24 25 28 40 44 46 44 50 52 55 59 61 62 63 65 66 68 69 69 68 64 61 59 60 61 62 63 61 61 62 62
14 13 13 17 16 14 20 16 19 20 22 18 18 23 31 31 41 45 45 45 48 52 55 56 59 60 62 65 66 67 69 68 66 65 63 61 61 61 63 62 62 62 61 61
14 13 11 11 16 17 15 17 17 15 16 23 22 22 33 38 43 44 44 46 50 52 54 55 57 58 59 63 65 67 68 68 66 65 63 62 63 62 62 62 62 61 61 62
15 12 10 11 13 19 17 21 21 21 25 27 24 26 37 37 40 45 45 48 47 49 53 55 56 57 58 61 64 67 68 67 66 65 63 63 63 63 62 62 62 61 61 61
30 13 10 9 12 16 18 19 25 21 21 21 25 24 36 35 37 41 44 47 48 48 50 53 55 56 57 59 63 67 68 67 66 64 64 63 63 64 63 63 62 61 61 61
15 12 14 11 11 18 17 18 22 21 19 20 20 29 34 35 36 39 41 44 48 49 49 52 53 55 56 59 63 68 68 67 66 64 63 62 64 65 63 63 62 61 61 61
20 14 20 17 16 14 14 17 19 21 25 24 24 31 36 36 40 39 40 43 46 49 52 54 54 55 57 60 64 67 68 67 67 65 63 65 65 64 61 61 62 61 61 61
19 18 16 13 18 19 20 19 19 24 27 27 27 28 39 39 40 39 40 43 45 47 53 54 54 55 55 61 65 66 67 68 66 65 65 65 65 65 64 62 62 61 61 61
31 19 21 13 20 17 16 34 27 36 40 41 38 34 40 38 40 41 40 40 40 42 45 52 56 59 59 56 63 65 67 67 66 64 65 66 65 64 63 62 61 61 62 61
42 28 33 21 19 22 35 40 41 35 35 42 40 42 42 43 42 41 45 43 40 41 42 43 48 56 60 63 63 64 65 66 65 64 64 65 65 63 63 61 62 61 62 62
41 39 33 35 21 22 39 44 48 47 35 42 44 44 43 41 37 41 46 44 45 46 48 49 51 56 61 63 64 64 63 64 64 64 64 64 64 63 63 62 62 62 62 61
44 44 37 37 36 37 44 48 48 36 36 46 46 45 46 42 43 46 48 48 48 48 49 54 60 59 62 64 63 62 62 63 63 64 64 64 63 63 63 63 63 63 62 60
44 43 44 42 36 35 45 46 41 45 45 46 46 48 48 47 46 46 48 47 48 50 55 62 62 62 63 63 63 62 61 62 63 63 63 62 63 65 64 63 61 58 59 61
43 47 46 45 42 48 52 49 50 51 46 47 46 47 49 52 52 50 50 51 57 61 61 61 62 61 61 62 62 61 59 61 61 60 59 60 60 62 62 61 57 57 58 61
49 51 48 48 47 49 51 52 53 51 47 46 47 48 46 48 55 57 58 59 60 60 59 60 61 60 58 59 59 59 60 61 61 60 59 58 58 58 59 60 59 60 60 59
50 51 50 49 51 50 48 51 51 50 51 48 47 47 47 47 48 59 59 61 61 61 59 59 59 58 57 59 59 60 59 60 59 58 58 57 59 60 59 52 51 56 52 53
50 48 47 47 49 49 49 51 47 45 45 41 42 42 42 41 42 48 57 61 61 61 60 59 59 59 58 59 59 59 58 58 56 56 56 56 57 57 57 53 49 46 45 43

GFSCGP_sfc_dewp_018.txt.gz
Dewpoint
15 16 17 21 20 34 39 44 43 45 48 49 50 50 53 54 55 56 57 58 61 60 61 63 63 65 66 67 69 70 70 71 71 71 71 71 71 72 72 72 72 72 73 72
16 14 18 22 25 31 40 41 43 44 46 48 50 50 52 54 54 54 55 55 57 57 58 60 63 63 65 67 69 70 70 71 71 71 71 71 71 71 71 71 72 73 72 72
13 13 19 22 26 26 31 37 37 41 47 49 50 49 50 53 54 55 55 55 56 56 57 59 62 63 63 66 68 69 70 70 71 71 71 71 71 71 70 69 71 72 72 72
10 14 17 23 26 27 24 28 37 41 43 41 47 39 48 50 52 53 53 54 55 56 57 58 60 62 63 64 67 68 70 70 71 71 70 70 69 69 69 67 67 68 69 69
12 13 16 23 24 28 26 28 33 40 42 43 46 40 42 51 50 51 52 53 54 55 56 58 59 61 62 64 65 67 68 70 71 71 71 70 69 68 65 64 64 65 65 66
17 16 16 15 26 28 26 21 26 32 38 36 42 41 39 48 50 50 52 53 54 55 56 58 60 61 62 64 65 66 68 69 70 71 71 70 69 65 64 63 61 61 62 65
15 10 16 20 20 26 20 21 19 28 32 33 37 42 40 42 49 50 50 52 55 56 56 58 60 61 63 64 65 66 68 68 70 70 70 70 69 65 64 63 61 61 62 64
8 8 10 15 19 19 21 20 21 16 23 30 36 40 41 44 43 48 50 51 53 55 57 59 60 61 62 64 65 66 68 68 70 70 70 69 67 64 63 62 60 62 63 64
13 10 16 14 19 17 17 18 21 19 22 20 26 28 31 35 36 43 46 50 51 53 57 59 60 61 62 63 65 66 67 68 70 70 69 66 64 61 61 61 62 62 63 63
15 12 13 14 17 21 17 20 17 19 16 21 22 25 27 34 36 37 43 48 50 52 56 58 61 61 62 63 64 67 68 68 69 69 67 64 62 60 61 61 62 62 62 63
15 14 13 15 14 12 17 17 19 20 20 16 16 22 29 30 32 36 39 46 48 50 54 58 61 62 63 63 64 66 68 68 69 68 66 64 61 60 61 62 63 63 62 63
15 14 13 12 16 17 17 16 17 17 16 22 20 19 30 32 34 43 46 47 48 50 53 57 60 62 63 63 63 65 67 68 69 68 66 64 62 61 62 63 63 63 63 63
16 12 11 11 11 19 15 19 17 19 20 24 19 21 32 38 39 43 46 48 49 52 55 56 59 61 62 63 64 65 66 68 69 68 66 64 62 62 63 64 63 62 62 63
41 13 12 11 12 14 19 20 21 17 19 19 25 22 26 37 38 42 47 48 50 53 55 57 57 59 61 61 64 66 66 68 68 67 66 64 62 63 64 64 64 62 62 62
18 14 13 14 14 17 17 18 23 20 20 19 20 27 26 33 37 40 46 50 50 50 52 56 56 57 60 61 63 65 67 69 68 67 66 64 64 65 65 65 65 65 62 62
25 15 15 14 13 15 13 14 23 23 24 24 26 27 32 36 41 43 45 48 50 50 50 53 57 58 59 60 61 65 67 69 68 66 65 64 64 64 64 63 62 63 63 62
26 17 17 14 17 15 15 13 16 23 26 25 26 26 36 39 40 41 44 46 48 50 51 52 55 56 58 59 63 66 68 69 68 66 64 64 63 63 63 62 62 62 62 62
39 21 19 16 19 16 17 34 19 20 35 35 38 34 39 40 41 43 46 45 47 50 53 55 56 57 58 62 64 66 68 68 67 66 64 63 62 62 63 63 62 62 63 62
43 27 23 18 17 22 38 44 44 34 37 44 43 42 44 46 43 43 45 45 45 50 52 55 57 58 59 58 62 66 67 67 66 65 64 63 62 62 63 64 64 64 63 63
45 41 33 30 19 23 36 45 48 49 35 45 48 44 45 44 38 42 50 46 46 48 48 49 52 55 60 62 62 65 65 66 66 65 65 65 64 63 65 64 64 65 64 64
45 44 38 37 35 37 45 48 49 34 37 47 48 47 46 46 45 49 51 51 52 53 55 57 58 59 61 64 64 63 64 65 66 66 66 66 66 65 65 64 64 64 63 63
45 44 43 42 36 34 48 47 40 45 47 48 50 51 48 48 49 51 52 56 58 59 61 62 62 63 64 64 64 63 63 64 65 65 65 64 64 65 64 64 64 63 62 61
43 48 46 44 41 48 51 50 51 50 48 48 46 48 54 55 56 57 57 59 59 59 60 62 62 61 62 63 64 62 62 63 63 63 63 64 64 64 64 64 62 60 59 59
49 51 47 48 48 49 50 48 50 50 46 46 46 46 47 53 56 58 59 59 59 60 60 61 60 60 60 61 61 62 62 62 62 61 61 62 62 62 62 61 60 59 59 60
50 51 49 48 51 50 49 51 51 48 48 47 47 47 47 49 50 55 59 60 61 60 61 61 60 60 59 60 61 62 62 62 61 61 60 60 59 59 55 51 53 59 55 57
47 48 47 47 51 50 49 50 49 46 46 46 43 43 46 47 48 56 59 61 61 61 61 60 59 59 59 60 60 60 61 61 60 59 59 58 60 59 56 53 50 44 43 43

GFSCGP_sfc_dewp_021.txt.gz
Dewpoint
21 15 12 20 34 33 38 39 40 46 48 48 48 49 52 57 58 58 60 61 61 63 64 66 67 68 69 70 71 71 72 75 74 73 72 72 71 72 73 73 75 75 75 74
19 14 16 19 27 36 40 39 39 45 49 47 47 47 51 55 58 58 59 60 61 63 64 65 67 67 68 69 71 72 73 75 74 73 73 72 73 72 73 73 74 75 74 75
15 13 18 20 22 24 39 39 41 40 46 49 47 45 49 53 55 57 58 58 59 61 62 63 64 66 66 68 70 72 74 75 74 75 73 74 73 73 72 72 72 73 74 74
13 13 14 19 20 24 27 39 42 42 43 40 47 38 47 50 53 55 55 56 56 58 60 60 61 64 65 67 69 72 73 75 74 75 73 74 71 69 70 71 71 73 74 74
21 13 17 14 19 26 26 35 38 41 42 42 45 42 41 51 51 52 54 55 55 56 57 58 59 62 64 66 67 70 73 74 75 75 75 72 72 71 71 70 71 72 73 73
22 15 15 17 20 26 29 31 36 40 39 38 39 41 35 45 50 50 52 54 55 55 56 57 59 61 63 65 66 68 73 74 75 74 74 74 74 73 70 69 68 68 67 67
22 19 17 17 19 28 27 28 28 30 35 29 35 42 40 41 46 47 49 52 54 55 55 57 59 60 64 65 67 68 72 73 74 73 74 74 74 74 73 71 67 67 65 64
22 18 18 17 16 22 26 23 24 28 26 26 36 38 39 44 44 47 50 51 53 54 56 58 61 63 64 65 68 69 71 72 73 72 74 75 74 72 71 71 67 65 64 63
23 21 14 15 18 25 26 25 23 23 25 26 29 37 37 41 41 43 45 48 52 54 56 57 58 61 63 66 68 69 71 72 73 71 74 74 74 73 71 72 69 65 67 64
23 21 15 11 17 21 22 23 20 23 27 23 23 28 24 36 39 42 43 45 49 53 55 57 59 62 64 65 67 69 71 71 72 72 72 72 73 73 72 69 66 67 66 67
24 19 17 18 15 14 19 20 23 22 24 24 22 22 35 37 40 38 38 43 45 50 54 57 60 62 64 65 65 67 69 71 71 72 73 73 71 71 66 67 65 65 66 67
24 23 21 15 15 16 12 18 22 22 29 24 23 21 30 35 36 38 40 41 46 51 53 57 59 61 63 65 64 65 67 68 70 71 72 72 70 65 67 65 65 66 66 66
22 21 21 22 19 19 17 17 17 19 19 33 20 21 37 37 40 41 41 45 51 54 56 58 59 63 65 65 67 66 67 66 67 70 70 70 66 67 66 65 66 65 65 65
34 26 26 18 23 20 19 17 18 16 20 20 23 24 28 32 40 44 47 49 51 55 56 58 60 63 65 67 68 68 67 66 67 69 69 69 66 68 67 66 65 64 65 64
38 36 32 29 23 20 17 14 15 20 22 21 20 28 30 35 37 45 48 50 53 54 56 59 59 63 66 67 69 69 68 69 69 70 70 69 67 68 68 68 67 63 64 63
35 33 33 30 28 21 18 17 15 17 16 22 19 29 34 37 41 42 46 47 52 54 55 58 60 61 64 66 66 67 68 69 71 71 69 69 67 68 67 67 67 66 64 65
41 31 29 25 26 21 20 20 19 21 22 24 24 30 37 37 40 44 49 50 52 55 56 57 59 63 64 63 65 66 68 70 71 70 70 68 68 68 67 65 66 66 66 65
43 40 32 29 25 20 22 22 20 20 22 25 25 33 38 39 42 46 49 50 52 53 55 56 56 59 62 62 63 66 68 71 71 70 69 68 68 67 67 66 65 67 67 64
47 42 38 32 27 25 32 38 26 20 26 32 34 37 42 42 41 45 47 47 51 54 56 57 56 58 61 63 65 68 69 70 70 69 69 68 68 67 66 65 65 67 67 65
47 47 40 37 28 25 32 44 47 46 28 45 47 46 46 44 37 42 48 48 50 53 56 58 60 61 62 63 66 68 69 70 69 69 69 68 68 67 66 65 66 67 67 66
45 49 41 41 35 33 47 49 48 36 36 48 48 47 47 46 49 52 52 54 54 55 57 59 61 62 65 66 66 67 69 69 70 70 69 68 67 67 66 67 67 67 67 66
44 45 46 44 39 33 49 47 44 48 51 49 50 50 51 53 55 56 58 59 60 61 62 63 64 65 67 67 68 68 69 70 70 69 68 68 68 66 66 67 67 67 67 66
43 47 48 48 44 50 49 50 50 50 51 52 55 55 57 56 56 57 59 60 60 61 62 62 64 65 67 68 68 67 66 68 69 69 68 67 67 67 67 67 67 67 67 66
50 51 50 49 49 47 47 47 46 46 47 47 48 50 52 55 55 58 59 60 61 62 62 63 64 65 65 67 66 67 68 69 68 68 67 67 67 67 67 66 65 64 63 63
48 51 49 50 51 49 46 48 48 47 46 46 47 48 52 57 59 61 61 62 62 63 64 64 65 65 64 65 66 66 66 66 66 66 66 66 65 64 62 58 58 60 62 56
48 49 48 48 51 52 48 50 50 47 47 48 46 46 48 51 56 60 61 62 63 63 64 64 64 64 64 64 65 66 65 65 65 64 63 62 61 60 58 56 53 44 44 44

GFSCGP_sfc_dewp_024.txt.gz
Dewpoint
16 15 15 18 24 29 30 32 31 35 44 46 44 45 47 53 53 53 54 56 56 58 60 63 64 65 66 68 70 71 72 74 73 72 71 70 70 77 72 72 74 73 74 73
15 14 17 19 21 25 28 31 31 37 45 45 43 45 47 49 54 53 53 55 57 57 59 62 64 65 66 68 70 72 73 74 75 72 72 70 70 69 69 71 73 74 74 74
14 9 15 16 20 25 30 31 32 35 44 45 42 42 44 45 50 55 54 54 56 58 57 60 63 64 65 67 70 72 74 74 75 75 73 73 73 73 71 70 71 72 74 74
14 8 12 14 16 24 29 31 32 35 40 38 43 33 39 43 47 51 54 53 53 57 59 59 60 63 65 66 69 72 74 76 75 76 75 75 70 67 66 68 67 68 72 72
16 12 13 15 13 22 26 28 32 34 38 37 40 39 38 42 44 47 51 52 51 52 54 55 57 60 63 65 67 70 74 76 77 77 77 73 73 68 68 69 72 73 73 73
17 17 10 11 11 14 24 27 31 32 33 33 35 37 35 38 46 44 47 51 51 50 51 53 55 58 60 63 65 67 73 77 77 76 76 76 75 73 68 71 69 66 65 69
20 16 12 10 10 13 21 26 30 30 30 30 34 34 37 35 35 40 40 47 51 51 50 52 54 54 59 61 64 66 74 77 76 75 75 76 75 75 74 73 70 67 63 63
19 15 16 12 11 14 18 24 26 30 26 28 34 32 33 39 38 37 37 41 47 51 52 53 56 57 59 61 65 68 73 76 75 74 76 77 76 72 72 73 69 65 61 63
19 18 15 14 12 13 19 23 25 25 27 25 26 33 34 34 36 36 37 38 44 49 52 53 55 58 60 63 68 71 74 76 76 73 77 76 76 75 73 74 74 68 69 63
22 22 16 15 15 12 17 22 23 25 29 27 25 29 29 35 34 33 32 35 40 45 50 52 54 57 60 62 65 68 73 75 74 73 73 73 74 75 75 75 74 71 70 68
22 23 20 18 17 13 14 20 24 24 25 25 24 24 30 32 33 30 28 31 33 38 47 51 54 56 60 62 63 67 69 71 72 73 74 75 73 73 74 73 73 72 70 70
25 24 22 16 13 13 13 21 25 25 31 27 26 24 27 31 30 30 30 30 30 36 42 49 53 56 58 62 62 64 66 68 70 72 75 74 74 74 74 73 72 70 69 69
27 26 25 21 10 12 13 17 18 24 24 33 26 26 31 30 33 34 34 36 39 50 51 51 53 57 59 62 66 64 65 65 67 70 70 72 73 73 72 72 70 68 67 67
34 28 29 20 21 16 17 13 15 16 23 25 25 29 30 29 31 33 34 36 38 46 54 55 56 58 61 64 68 69 65 65 66 67 69 73 73 73 72 72 69 66 67 67
23 29 28 25 21 19 18 14 11 14 18 20 23 26 30 31 31 33 32 32 35 49 55 58 57 59 63 65 69 68 67 68 67 68 69 72 75 72 72 73 71 69 68 66
33 34 35 30 25 22 20 19 17 14 14 16 17 23 27 29 31 32 31 31 37 46 54 57 60 61 64 65 67 68 68 68 69 69 70 73 73 72 72 72 71 69 69 69
31 31 35 31 29 27 25 24 22 22 19 16 18 24 25 26 29 33 40 37 39 40 51 56 59 61 64 65 68 68 69 69 70 72 72 73 73 72 71 71 70 70 67 65
38 41 34 31 31 27 27 27 25 23 23 19 18 21 24 27 31 32 42 41 42 43 45 54 56 59 63 63 65 68 68 71 72 73 73 73 72 71 71 71 70 69 65 67
36 42 35 33 30 29 27 27 29 27 27 26 22 24 23 26 33 41 43 45 48 48 50 53 56 58 63 63 66 68 68 70 71 72 72 72 71 71 70 70 70 68 67 66
36 42 40 37 31 29 42 45 47 45 32 28 26 27 27 28 30 36 44 49 48 49 53 58 58 59 62 64 65 68 69 70 70 71 71 72 71 71 70 70 70 69 67 66
41 42 38 35 34 34 47 46 47 36 35 50 31 30 29 32 36 50 52 52 53 55 58 59 60 61 65 65 67 69 69 70 70 70 71 71 71 71 71 70 69 68 67 67
40 38 34 36 37 35 47 46 41 51 54 51 50 49 47 47 53 55 57 58 59 60 61 62 64 65 65 68 69 69 70 71 72 72 71 71 71 69 68 69 67 68 67 67
37 38 35 42 41 50 48 51 51 51 54 56 53 52 53 53 54 56 58 59 60 60 61 63 65 67 69 70 70 70 72 72 72 72 71 70 69 69 68 68 68 66 67 67
49 49 44 47 48 49 47 47 48 49 50 52 55 54 54 54 54 55 56 57 58 59 60 61 64 66 68 70 70 70 71 72 71 70 69 69 68 67 68 67 67 67 67 66
49 51 48 48 49 47 49 50 47 46 48 49 51 54 56 57 58 60 61 61 62 63 64 65 66 67 69 70 70 70 70 70 69 69 68 67 67 66 64 60 57 62 59 57
47 49 45 42 48 50 51 51 49 49 48 49 50 50 50 51 53 57 61 63 64 64 65 66 67 67 67 68 68 68 70 69 68 67 66 65 65 64 63 61 56 44 45 45

GFSCGP_sfc_dewp_027.txt.gz
Dewpoint
18 13 16 22 25 28 31 31 31 34 33 40 41 41 44 49 49 48 47 50 50 52 56 58 60 59 62 64 67 69 72 76 73 70 69 69 68 73 71 71 74 74 73 74
15 13 15 22 22 26 28 30 30 29 36 38 40 40 41 47 50 49 48 49 49 50 53 58 60 60 62 65 68 72 74 77 75 71 73 70 70 66 69 69 71 74 72 75
9 8 11 19 21 24 26 29 30 27 39 39 38 39 40 42 47 50 49 49 50 50 51 56 59 61 62 65 68 73 76 77 76 76 74 73 72 70 67 65 65 67 71 70
9 8 10 16 20 23 24 28 28 27 38 35 37 33 40 40 42 46 49 50 47 50 51 53 57 60 61 64 67 73 76 78 77 78 74 76 70 66 64 65 64 66 68 68
12 7 10 14 17 22 25 26 29 29 33 37 33 32 35 38 39 40 46 50 49 49 50 51 53 59 61 62 65 70 76 78 78 78 77 72 73 66 65 64 74 72 74 70
15 12 9 9 15 19 23 26 29 29 28 31 35 36 33 39 40 40 43 47 50 48 50 52 53 56 59 61 63 67 75 78 79 78 78 79 77 73 67 68 68 66 64 67
18 15 8 8 13 17 20 23 24 25 25 26 36 35 43 35 38 39 38 41 47 50 48 52 53 53 59 62 64 66 74 78 79 78 78 78 78 78 77 73 68 70 61 62
17 15 14 11 12 16 19 21 23 28 23 23 29 32 32 36 36 38 37 36 42 49 50 50 53 53 57 61 66 68 72 77 78 78 78 79 79 73 72 74 68 65 61 62
19 19 16 13 12 10 17 20 20 22 24 23 25 30 32 36 34 36 37 35 35 44 48 50 50 52 53 60 66 68 72 76 78 77 79 79 79 78 72 75 76 69 72 63
21 21 18 12 12 7 11 16 19 22 28 28 24 28 30 36 35 35 35 33 32 36 44 48 50 53 56 56 62 68 71 76 77 77 78 77 77 78 78 77 77 75 73 70
17 21 20 19 16 13 8 11 18 19 23 24 24 26 31 36 36 34 33 33 31 31 38 45 50 53 57 57 60 65 69 73 76 76 76 77 76 76 77 75 76 76 76 73
19 19 21 20 17 14 12 13 15 25 30 25 25 23 27 29 32 32 32 31 30 32 33 39 46 51 54 60 58 61 65 68 72 74 76 76 77 76 76 76 76 76 75 74
21 20 22 23 18 18 17 15 8 13 21 33 26 25 31 30 31 32 32 32 35 35 40 43 42 49 56 60 64 62 64 63 67 72 73 76 76 76 76 76 76 76 75 73
34 21 26 20 25 19 20 15 12 8 19 25 25 29 29 30 33 34 33 34 34 37 40 49 49 43 56 61 66 67 64 62 64 67 70 75 76 77 76 77 77 76 74 72
25 29 25 22 22 21 14 12 10 13 17 20 24 27 30 31 32 35 35 35 36 35 36 50 53 53 62 64 68 68 67 68 66 70 71 74 77 78 78 77 76 75 74 71
26 29 31 28 23 23 21 11 10 10 12 16 18 23 29 31 32 35 33 33 34 35 35 47 56 57 61 65 68 70 69 69 70 72 72 75 77 78 77 76 76 74 72 71
28 26 29 27 25 24 22 22 19 18 16 15 16 23 26 27 30 34 43 37 37 37 37 36 54 60 64 63 69 70 71 71 72 74 74 76 77 77 76 75 75 74 72 70
30 34 30 27 31 27 26 25 22 21 22 20 21 21 22 25 29 33 37 36 38 38 38 40 45 57 60 62 64 69 69 73 74 74 75 76 76 76 75 74 75 74 72 70
29 32 28 27 27 30 26 27 26 26 27 26 25 27 25 23 21 31 32 35 40 42 42 42 33 51 61 63 67 71 71 72 73 74 75 75 75 75 74 72 73 73 72 70
32 37 33 32 28 26 30 40 42 39 30 32 32 34 27 27 21 28 35 29 33 36 38 40 43 47 58 65 64 70 71 73 73 73 74 75 75 74 73 72 73 73 72 70
29 33 31 34 32 29 45 42 41 34 36 50 48 46 44 37 29 34 36 38 43 44 48 51 54 55 67 68 69 71 71 71 72 72 73 74 73 73 73 73 73 71 69 68
31 32 28 32 33 36 47 43 39 49 53 53 51 49 48 49 36 33 49 51 53 53 54 55 58 61 65 70 73 73 74 75 75 73 72 72 73 71 71 72 71 70 69 69
29 32 30 34 34 51 49 51 51 50 51 54 54 51 50 48 47 50 55 56 57 59 60 59 62 67 69 72 74 73 76 76 74 73 74 74 73 71 72 70 69 67 68 66
34 36 38 48 50 49 49 49 50 51 52 53 52 51 51 51 52 55 58 59 60 62 64 66 66 67 71 73 73 74 74 75 74 73 72 71 70 70 69 67 68 67 67 67
49 50 47 49 50 50 48 48 49 50 53 54 56 56 58 57 56 57 58 60 60 61 64 65 67 69 69 71 71 72 72 73 71 70 69 69 68 68 67 60 60 67 64 59
49 49 49 46 50 51 51 51 50 50 50 52 52 53 54 59 60 62 62 63 63 64 65 67 68 68 69 70 70 72 71 71 70 68 67 66 66 65 64 62 57 45 46 45

GFSCGP_sfc_dewp_030.txt.gz
Dewpoint
22 18 17 16 20 22 22 27 28 36 45 34 44 49 54 49 45 43 43 47 48 50 54 56 58 60 62 65 69 71 73 76 75 74 72 72 73 74 74 73 77 76 76 75
18 17 14 16 19 23 24 26 30 36 45 42 37 49 53 50 45 45 45 45 47 49 53 57 60 60 61 66 69 73 74 77 76 74 74 72 72 71 73 73 75 75 76 76
16 13 10 12 17 23 23 26 29 32 38 36 35 35 39 44 46 45 45 47 47 48 49 56 59 60 61 66 70 72 74 76 75 76 74 75 77 78 72 72 72 75 75 75
16 12 10 8 15 21 22 24 26 31 34 33 35 31 41 40 46 45 44 44 46 48 50 51 56 61 61 65 70 73 74 76 76 76 76 75 72 72 72 74 72 74 75 74
17 12 9 8 10 18 22 24 25 26 31 36 39 36 38 43 42 44 43 45 45 48 48 49 54 60 61 64 68 72 75 76 76 76 77 76 74 69 72 72 76 75 76 73
16 13 8 6 6 13 20 22 24 25 26 30 38 35 38 40 43 45 43 42 49 46 49 50 53 59 61 63 66 70 74 76 76 77 76 77 75 73 72 74 73 73 72 73
17 15 11 6 7 11 15 20 23 24 25 24 32 38 41 40 42 44 43 44 48 50 49 52 53 55 62 63 65 69 75 76 76 76 76 76 77 76 74 77 74 71 68 69
17 15 13 11 9 10 13 16 23 27 24 25 28 29 39 43 43 46 47 45 45 48 50 53 55 56 61 63 66 68 74 75 76 76 77 77 76 76 75 75 73 70 71 68
19 17 15 13 10 8 11 16 16 21 23 23 25 29 32 38 40 45 44 40 42 45 49 51 55 56 58 63 66 68 74 75 76 77 77 77 78 76 74 76 75 74 73 74
20 20 16 14 13 9 9 14 14 17 26 27 24 30 31 42 42 41 41 39 42 42 48 49 50 56 58 61 65 68 71 75 76 77 77 76 77 77 76 75 76 73 76 74
17 22 19 19 18 14 10 9 12 15 21 23 25 27 33 38 44 42 40 40 39 35 43 48 51 53 58 59 63 66 69 74 75 77 77 77 77 77 76 75 74 75 75 74
17 18 22 17 18 16 12 15 14 16 29 23 24 25 26 42 40 41 39 40 39 39 37 41 50 53 56 58 60 63 66 67 73 76 76 77 77 77 76 75 76 76 75 75
23 19 22 20 16 18 16 14 8 8 11 29 23 24 31 36 39 40 38 38 43 46 48 48 47 53 57 58 60 61 64 65 69 74 75 76 76 76 76 76 74 76 75 75
32 20 26 18 23 20 22 17 15 10 14 18 23 27 30 36 40 41 41 41 42 50 54 53 57 56 56 60 62 62 63 65 67 72 73 75 76 76 75 76 76 76 76 75
24 28 25 21 17 18 19 17 14 17 20 20 19 29 30 33 40 40 50 45 46 49 50 56 53 60 65 63 64 64 64 65 67 70 72 74 76 76 76 76 76 76 76 75
27 30 28 25 17 17 19 19 17 18 17 18 19 20 27 33 35 44 38 41 45 47 47 54 60 63 65 67 67 65 66 65 67 69 71 73 75 76 77 76 76 76 76 75
31 26 33 28 24 21 20 24 22 18 19 19 20 26 30 31 36 41 45 41 46 45 46 51 60 63 66 67 69 67 67 69 68 71 71 73 75 76 76 76 76 76 76 74
35 36 31 28 31 25 24 23 22 24 20 15 19 24 28 31 34 36 45 47 50 47 46 52 44 58 64 62 63 71 68 71 71 72 72 74 76 76 77 76 76 76 75 73
29 35 28 29 25 26 25 25 25 24 29 26 24 27 25 24 26 33 34 36 43 46 51 53 43 40 62 62 66 69 71 70 71 72 75 75 76 77 76 76 76 75 74 71
24 38 31 31 26 25 31 25 27 28 30 33 30 33 30 35 29 30 39 35 35 37 39 49 49 45 47 63 64 70 70 72 71 73 74 76 77 77 76 76 75 76 75 71
26 31 27 28 28 27 29 29 36 35 40 49 45 43 42 42 47 54 49 43 37 40 43 47 52 56 68 65 66 71 71 72 73 74 76 77 77 77 76 75 74 74 73 73
33 31 27 32 33 30 36 39 37 51 54 52 51 49 49 50 49 49 51 49 51 58 55 53 63 67 71 70 74 73 74 76 76 75 76 76 76 73 74 73 72 72 71 70
31 31 32 36 35 53 51 53 53 51 51 53 52 49 49 47 47 46 55 57 55 56 61 61 64 73 74 77 75 74 77 76 76 75 75 75 74 74 73 72 72 69 69 67
44 48 42 39 40 47 48 49 50 51 52 52 52 50 49 49 48 51 57 58 59 62 65 66 69 71 74 76 76 76 76 75 74 74 74 74 72 71 70 69 69 67 67 67
50 48 47 46 52 50 49 49 50 51 53 54 57 58 59 61 61 62 64 65 63 67 69 70 72 72 74 75 75 75 75 75 74 73 71 70 69 68 62 56 55 67 60 61
49 48 46 51 51 52 52 51 52 52 53 54 56 58 60 61 61 62 63 66 67 69 70 71 71 70 72 73 73 73 74 74 72 70 69 68 67 64 61 60 56 46 46 44

GFSCGP_sfc_dewp_033.txt.gz
Dewpoint
22 22 20 18 15 17 19 21 21 32 41 46 47 46 43 43 45 45 49 50 51 52 53 56 57 61 63 66 67 67 69 72 71 72 72 72 71 71 71 72 73 73 73 72
21 19 21 20 19 16 18 19 21 41 41 40 46 45 46 46 45 47 46 49 49 51 52 56 57 59 62 65 67 67 69 73 71 72 71 71 71 71 71 72 73 72 73 72
19 19 20 19 16 16 17 18 22 40 41 43 40 45 47 41 45 47 47 48 49 50 51 54 56 58 61 64 68 68 70 73 72 73 72 72 73 72 71 72 72 72 73 73
20 18 18 17 13 15 16 20 24 38 38 39 40 42 47 46 46 47 47 44 46 49 51 53 56 58 60 64 68 69 71 73 72 73 71 70 68 70 70 70 70 72 73 73
18 19 17 14 13 11 15 22 24 23 38 38 37 39 45 49 48 47 45 44 44 47 49 53 56 57 60 64 67 70 70 73 71 71 72 69 70 69 69 68 71 71 72 72
18 20 17 14 12 9 12 18 20 22 26 36 34 41 38 39 46 46 45 44 45 45 47 50 55 58 59 63 67 70 70 71 72 70 72 73 71 68 67 70 70 70 68 70
17 16 16 16 10 9 8 8 15 19 21 24 37 36 38 38 42 46 45 44 45 47 46 48 54 57 59 61 67 70 70 70 73 72 72 72 74 71 70 71 70 69 68 68
20 15 15 16 10 7 6 5 12 19 21 22 27 36 37 40 42 44 45 45 45 47 47 48 50 55 59 60 65 69 71 71 72 73 72 72 72 74 72 72 72 68 68 67
20 19 19 15 15 7 12 7 10 14 20 24 24 26 38 39 43 46 42 42 45 45 49 49 50 54 59 60 65 67 71 71 72 73 73 72 72 72 74 73 70 71 69 68
18 22 20 18 15 13 6 13 8 10 11 18 20 25 32 39 43 44 43 45 46 48 46 50 51 52 59 60 62 67 72 72 73 73 73 74 74 73 73 74 72 71 71 70
14 16 20 20 15 11 13 8 11 13 14 15 20 22 30 39 43 45 45 44 44 45 45 49 52 52 58 61 62 65 71 72 73 73 73 74 74 74 74 73 73 72 70 71
16 16 17 18 21 15 13 9 10 13 18 21 15 17 28 36 43 43 44 43 44 45 45 45 51 53 56 60 62 64 71 72 73 74 74 74 74 75 75 73 72 72 71 71
18 16 15 17 17 18 13 13 9 7 13 14 20 19 22 28 42 44 45 43 44 43 43 43 49 53 56 60 62 63 68 72 72 73 74 74 75 74 75 74 73 72 72 72
43 16 14 14 17 22 22 15 14 8 7 8 10 12 23 35 40 40 41 38 40 47 44 46 49 51 54 57 61 63 65 69 72 73 74 74 74 75 75 75 73 74 74 72
21 22 19 16 20 20 18 20 15 12 11 10 8 13 19 22 40 42 42 39 38 44 49 48 49 52 54 55 59 62 64 65 70 72 73 73 74 75 75 75 75 72 74 73
31 30 29 25 20 16 16 17 17 14 13 13 14 18 27 27 42 43 43 36 42 44 49 52 51 55 57 57 58 60 62 64 65 69 71 73 73 75 75 74 74 74 72 74
31 29 31 22 25 25 24 16 16 21 19 18 16 18 25 25 34 37 42 40 32 36 46 51 54 56 58 60 58 60 61 62 64 65 69 71 73 74 74 74 74 74 73 74
29 28 30 27 29 24 26 23 20 21 25 25 20 24 29 30 35 41 45 40 43 43 42 47 56 58 61 67 61 61 61 62 65 66 68 70 72 73 74 74 74 74 74 74
27 28 29 27 25 26 28 27 28 24 24 30 29 27 27 27 27 27 34 37 31 34 40 48 50 58 62 65 65 63 63 65 64 67 67 70 72 73 74 74 74 74 74 73
25 26 30 29 24 21 28 31 28 30 30 43 39 33 29 28 27 33 49 46 40 40 38 43 46 46 61 61 67 65 64 66 65 65 69 70 72 73 74 74 74 74 73 71
27 30 27 31 25 27 35 28 26 28 33 51 49 49 49 47 51 50 51 50 48 43 42 39 42 45 52 63 66 68 66 65 68 69 73 73 74 75 75 74 74 74 72 70
37 37 31 30 31 29 47 36 42 52 53 53 52 51 49 48 48 47 57 56 56 58 59 57 52 56 57 63 67 67 68 70 71 73 75 75 75 75 74 72 73 72 71 69
38 41 43 41 37 51 52 51 53 52 55 52 51 50 49 48 48 56 59 59 56 56 58 60 69 73 74 72 68 69 73 74 74 75 75 75 73 73 72 71 70 69 69 68
46 48 46 46 47 51 45 52 53 51 51 57 60 61 60 62 63 64 64 64 65 67 68 70 72 72 72 74 75 74 74 74 74 73 72 72 71 71 70 69 69 68 67 67
49 49 46 46 49 52 53 51 50 52 59 60 61 61 62 62 63 64 65 67 68 69 71 71 71 72 73 73 73 73 73 73 72 72 70 69 68 63 59 55 61 65 60 63
49 47 46 46 51 53 53 52 52 58 58 58 59 60 62 63 63 64 64 66 68 68 69 70 71 71 72 73 73 73 72 71 70 69 68 65 64 63 60 58 53 45 46 45

GFSCGP_sfc_dewp_039.txt.gz
Dewpoint
29 26 25 24 22 20 20 19 20 22 23 41 38 47 53 54 54 57 58 58 58 57 59 61 62 64 65 65 65 66 67 67 69 69 70 69 68 69 71 70 70 71 73 73
22 25 27 26 23 20 18 17 16 23 39 40 40 45 52 53 53 53 54 56 56 56 57 60 61 63 64 64 65 66 67 67 68 68 69 69 69 69 69 71 70 71 72 72
22 21 23 24 22 19 18 16 17 17 38 44 43 42 48 53 53 54 54 54 55 55 55 56 60 62 63 63 65 66 67 67 67 68 69 70 70 70 70 70 70 72 72 72
17 18 19 22 22 22 19 20 19 19 28 31 42 38 43 47 49 51 54 55 55 55 55 55 59 62 63 63 65 66 67 67 67 68 68 67 67 67 69 70 70 71 72 72
17 16 16 18 18 22 21 21 19 20 22 28 33 35 39 42 44 45 48 53 54 55 55 55 56 60 62 63 64 66 67 68 68 69 68 68 67 68 68 69 69 70 71 72
16 22 15 15 20 20 21 20 19 21 23 25 24 36 36 45 42 42 44 48 52 53 54 54 55 58 61 62 63 65 66 68 68 69 69 69 68 68 68 68 69 70 70 71
19 15 21 20 18 20 18 15 14 11 16 15 18 34 32 39 45 44 43 45 48 52 52 53 53 55 58 61 62 64 66 67 69 69 69 69 68 67 67 67 68 69 69 70
20 20 19 20 20 18 17 15 15 10 15 12 23 26 24 36 40 46 46 45 46 49 51 52 53 54 56 60 62 64 65 66 69 70 70 69 69 68 67 67 67 69 69 69
21 21 23 21 19 18 16 14 15 8 26 15 21 29 36 38 40 41 46 46 45 47 49 50 52 52 55 58 61 64 65 66 68 69 70 69 69 68 68 67 68 69 69 69
22 20 22 20 18 18 17 12 9 9 8 7 10 20 25 36 37 40 45 47 46 48 47 48 50 52 54 56 60 63 65 66 67 68 69 69 69 69 69 68 69 68 68 67
19 19 19 22 20 15 15 15 15 10 9 7 7 9 24 30 37 39 42 46 47 47 48 47 49 50 53 56 59 62 65 65 66 67 68 68 69 70 70 70 70 69 67 67
26 15 17 18 19 21 17 14 13 10 7 12 7 10 23 22 25 38 41 43 47 48 48 47 47 49 52 55 58 62 64 66 66 67 68 68 68 69 70 71 71 70 68 67
38 27 12 12 19 16 18 18 13 11 9 9 13 12 17 22 32 37 41 44 46 49 48 47 46 47 49 54 58 61 64 65 66 67 68 68 68 68 68 69 70 72 70 69
35 29 22 13 13 16 15 18 17 11 10 11 11 14 18 22 23 33 45 45 47 48 47 47 48 47 49 53 58 60 64 65 66 66 67 68 69 69 68 68 68 70 72 70
33 30 27 25 25 24 17 15 15 13 14 12 13 11 12 18 26 29 36 46 46 48 46 47 48 49 51 52 57 59 63 66 66 67 68 67 69 70 69 69 68 68 70 71
32 31 30 27 26 26 21 17 16 16 16 13 11 13 16 16 19 22 27 42 46 46 46 46 46 50 51 52 56 58 61 65 67 67 68 69 69 70 71 70 70 70 69 70
29 32 30 27 26 25 19 17 16 17 18 18 13 13 16 15 19 19 22 31 43 45 45 44 44 45 47 50 54 58 60 63 68 68 69 69 69 70 71 71 72 72 71 70
29 32 31 28 28 21 20 19 18 16 20 19 16 18 21 18 19 25 29 31 39 43 43 42 44 44 44 46 52 57 60 62 67 68 69 70 70 70 71 72 72 72 72 71
29 28 31 27 26 27 25 24 21 18 20 24 19 21 22 23 28 25 33 34 40 42 42 43 47 48 49 50 55 59 61 62 66 67 69 70 71 71 71 72 72 72 73 72
28 28 30 28 24 23 33 47 49 37 18 24 26 26 25 27 23 23 30 38 38 41 41 43 50 54 56 55 58 60 62 63 64 67 68 70 71 72 72 72 72 73 73 72
26 28 31 31 28 29 48 49 49 26 27 37 38 26 29 27 28 26 34 41 35 39 39 42 49 55 55 56 56 58 61 62 63 65 68 69 70 72 72 72 73 73 73 73
35 34 35 33 31 28 50 49 44 47 50 51 47 41 32 31 36 44 48 52 51 49 41 39 44 52 56 62 57 57 58 61 63 64 65 67 69 71 72 72 73 74 73 73
35 41 39 35 37 47 51 51 51 52 52 52 53 47 47 50 52 53 54 55 55 56 62 57 41 39 43 57 63 58 59 60 60 62 63 65 66 70 71 72 73 74 74 73
39 43 39 39 46 49 51 52 52 54 56 61 63 58 55 59 61 62 63 64 65 67 67 67 67 67 67 69 63 65 65 64 63 62 62 64 65 67 71 73 74 73 73 72
38 44 39 36 48 50 51 52 53 54 54 60 61 62 63 64 64 65 65 66 67 68 69 69 69 68 69 70 70 70 69 67 67 67 65 68 69 69 58 53 53 65 65 69
44 45 42 41 48 50 51 53 54 54 53 55 56 57 58 60 62 64 64 65 65 66 67 68 69 69 69 69 69 70 71 71 71 71 70 69 63 62 60 61 61 52 52 55

GFSCGP_sfc_dewp_042.txt.gz
Dewpoint
33 31 26 25 23 24 25 20 21 22 25 40 39 43 54 56 57 57 58 58 59 60 61 63 64 65 65 66 67 67 68 69 69 69 69 70 69 69 70 71 71 72 72 74
24 28 30 27 26 22 19 20 18 19 22 34 37 40 54 55 56 58 58 58 58 59 60 61 62 64 64 65 66 67 68 68 68 69 69 70 70 69 70 72 71 72 73 73
25 26 29 26 24 23 20 19 18 20 30 43 42 42 52 55 55 56 58 59 59 59 59 59 61 63 65 65 66 67 68 68 69 69 69 70 70 71 70 70 71 71 72 73
23 24 28 25 24 22 20 20 20 18 21 19 42 38 45 52 53 53 54 57 58 58 59 58 60 61 63 65 66 66 68 68 69 69 69 69 68 68 69 69 71 72 72 72
20 20 21 25 24 23 22 21 19 19 22 23 28 37 38 50 52 52 53 54 55 56 57 56 58 61 62 64 65 66 67 68 69 69 69 68 68 68 69 70 70 71 72 73
19 21 21 19 21 23 23 19 17 22 22 20 19 28 30 44 50 52 53 54 55 55 55 56 57 59 61 63 64 65 67 68 68 69 69 69 68 68 68 69 69 70 71 72
18 17 20 17 16 21 20 18 16 14 16 16 18 31 22 41 45 49 51 52 54 55 56 56 56 56 60 63 64 65 67 67 68 68 68 69 69 69 69 68 69 69 70 71
17 16 16 19 15 16 18 17 17 12 13 14 23 21 24 32 44 45 47 49 50 52 55 56 57 57 58 62 64 64 66 67 68 69 69 69 69 69 68 69 69 69 69 71
18 18 23 18 20 16 18 16 16 12 23 13 18 23 28 35 34 44 44 45 45 47 51 54 55 56 57 60 63 64 66 66 67 68 69 69 70 69 69 69 69 69 70 71
22 19 22 17 20 18 16 17 15 13 14 12 13 20 22 33 34 37 41 46 46 46 47 52 54 55 56 57 61 64 65 66 67 69 69 69 69 70 69 69 69 69 69 71
28 20 19 20 20 18 17 13 14 15 13 11 10 14 25 31 32 28 30 42 46 47 47 49 52 54 55 56 59 62 64 65 66 68 69 69 69 70 70 69 69 69 69 70
38 21 18 19 22 21 19 18 12 15 12 12 12 12 21 22 29 37 38 39 46 49 48 49 50 52 54 55 57 60 62 64 66 67 69 69 70 70 69 69 69 70 69 69
36 28 14 14 17 20 19 17 15 13 13 14 11 14 18 22 24 25 36 39 46 49 52 50 50 51 52 54 57 59 61 63 65 66 67 69 69 69 69 69 70 70 70 69
35 30 24 21 23 24 19 19 18 14 14 15 14 17 23 20 21 28 35 41 41 48 51 51 51 50 51 54 57 59 61 62 64 65 67 68 69 69 69 70 71 71 71 70
31 28 30 28 29 28 26 25 22 17 15 15 17 17 19 22 23 24 30 42 47 48 50 52 50 50 51 53 57 59 61 64 65 66 66 67 68 69 69 69 70 71 72 71
29 27 31 29 29 27 24 24 22 21 18 17 17 18 20 22 26 28 31 37 45 47 50 51 53 53 53 53 57 59 61 64 66 66 66 68 69 69 69 69 69 70 71 72
27 29 30 27 29 28 23 22 22 21 20 19 17 21 22 21 23 25 28 30 40 46 49 51 51 52 54 53 56 59 61 64 66 66 67 68 69 69 69 69 69 69 69 71
28 30 30 28 28 22 21 30 26 19 19 21 21 23 21 22 23 24 26 25 28 39 48 50 49 50 52 53 53 58 60 64 66 66 67 68 69 69 70 70 70 70 69 69
31 29 27 27 26 24 24 42 45 41 26 23 21 24 24 22 24 28 30 31 30 34 43 47 48 48 50 52 55 59 60 62 65 67 68 68 69 69 70 70 70 71 71 70
31 29 24 29 26 23 32 46 49 49 36 48 49 31 24 27 23 26 32 36 36 40 45 47 49 50 50 51 52 58 60 62 64 67 68 69 70 70 70 70 71 71 72 71
27 28 25 25 29 30 40 49 49 32 34 50 51 51 50 28 27 30 34 35 39 39 40 46 49 53 54 56 58 59 61 62 63 66 68 70 71 71 71 71 71 72 72 72
29 29 28 26 30 27 47 47 42 45 51 52 53 54 53 52 33 33 38 41 43 42 44 46 50 53 57 60 61 61 62 63 66 67 68 69 71 71 71 72 72 73 72 73
32 36 35 29 30 40 50 49 51 51 52 52 53 54 59 59 39 41 49 56 58 63 64 53 45 60 65 62 63 60 63 64 65 66 68 70 71 71 72 72 73 73 73 72
35 39 39 39 40 47 51 51 52 54 53 54 55 59 62 52 58 63 64 66 68 68 68 69 69 68 68 70 68 66 66 66 64 64 65 66 67 70 72 73 73 73 73 73
35 37 36 38 39 46 51 52 53 54 55 55 56 60 64 65 65 66 65 66 66 67 67 68 68 68 68 69 70 72 71 68 66 65 66 68 68 62 59 57 60 64 60 68
36 35 34 32 39 42 49 52 54 54 54 55 57 60 61 63 63 64 64 65 65 65 66 67 67 68 68 69 69 70 72 71 71 69 68 65 62 62 63 61 59 50 52 51

GFSCGP_sfc_dewp_045.txt.gz
Dewpoint
34 29 28 29 30 27 25 27 30 30 29 35 36 37 42 55 56 57 58 59 59 59 61 63 65 65 66 68 70 71 71 73 71 70 69 68 66 68 70 71 74 74 74 75
31 27 26 27 27 26 24 23 28 27 23 26 28 34 42 52 56 57 57 58 58 58 60 63 65 65 66 68 69 71 72 73 72 70 70 68 69 69 70 72 74 74 74 75
23 21 26 27 27 25 22 21 24 26 23 35 35 33 46 52 56 57 58 58 58 59 59 61 63 65 66 67 70 71 73 74 73 73 71 71 71 71 70 70 72 72 74 74
21 23 24 25 24 25 20 20 19 25 26 25 38 28 45 49 54 56 57 58 57 58 60 59 61 63 65 67 68 71 72 74 73 74 72 73 68 68 69 70 71 72 74 74
22 23 26 26 23 27 21 20 22 21 26 24 25 28 31 48 50 53 55 57 57 57 58 59 60 62 64 66 66 69 72 73 74 74 74 71 71 69 69 70 74 75 75 74
20 23 25 27 26 26 25 23 22 23 22 22 25 25 27 40 49 51 53 55 57 57 58 60 60 61 63 64 66 67 71 73 74 74 74 74 73 72 69 71 70 70 70 71
21 19 24 24 25 26 23 20 18 18 19 19 24 23 27 31 41 46 51 54 55 57 58 59 60 60 64 65 67 68 71 72 73 73 73 73 73 74 74 73 70 71 69 69
18 17 19 21 22 21 24 17 12 16 12 13 24 23 25 29 29 43 44 49 53 56 57 59 61 62 63 65 67 68 70 71 72 72 73 74 74 71 71 72 69 69 69 69
18 17 19 19 21 21 22 20 15 12 18 14 16 23 26 31 30 33 45 47 50 54 56 57 58 60 61 64 66 68 70 71 72 72 73 73 74 73 72 74 74 70 73 70
24 21 20 17 18 20 20 21 16 17 16 13 13 20 19 32 31 35 39 45 48 51 53 55 58 60 61 62 65 68 70 71 71 72 72 72 72 73 73 74 74 74 74 74
31 24 23 20 19 17 17 19 17 16 15 10 7 9 27 33 36 34 35 42 44 46 48 51 56 60 61 62 62 66 68 70 70 71 72 72 72 72 73 73 73 74 74 75
35 24 24 22 21 20 18 20 20 17 24 16 13 10 23 29 33 36 36 38 41 45 47 49 50 55 59 62 61 63 66 67 69 70 72 72 73 73 72 73 73 74 74 75
33 29 23 23 22 22 20 20 19 18 17 26 13 11 24 27 29 32 36 38 44 49 51 52 51 54 59 60 62 62 64 64 66 69 70 72 72 72 72 73 73 74 74 74
34 31 29 21 25 28 26 22 21 18 20 19 20 18 22 23 26 31 33 36 39 48 52 54 55 56 59 61 63 63 64 64 65 67 69 70 72 72 72 73 73 74 74 74
31 26 27 27 26 27 28 26 24 23 23 22 21 25 25 26 30 33 36 39 41 45 50 54 55 58 61 62 64 64 64 66 66 68 69 70 72 73 73 73 73 74 74 74
30 24 30 23 24 24 25 25 25 24 24 23 22 23 27 29 31 33 34 36 40 42 46 52 58 59 61 61 63 64 65 65 67 69 69 70 72 73 73 73 74 74 74 74
29 26 25 21 23 24 22 24 25 25 25 24 24 27 29 29 32 37 40 42 42 44 48 52 56 60 62 60 63 63 65 67 68 69 70 71 72 72 73 73 73 74 74 74
28 30 31 18 25 19 23 26 32 25 24 23 24 25 27 30 34 37 41 40 40 42 43 47 48 54 59 58 57 63 63 67 69 70 70 71 72 72 73 73 73 73 73 73
29 28 22 17 19 22 23 25 39 38 32 37 30 28 26 27 30 37 36 39 43 44 46 46 42 47 59 60 61 64 65 67 68 69 70 71 71 72 73 73 72 73 73 72
30 29 25 22 15 16 25 27 32 46 33 47 49 46 43 41 28 30 42 38 39 40 42 44 47 49 52 60 57 63 65 67 68 69 70 71 72 72 72 73 73 73 73 72
29 28 24 22 21 21 27 38 49 40 35 50 52 53 53 51 42 47 49 43 44 46 47 49 49 52 60 58 62 65 65 66 67 69 70 72 72 73 73 74 74 74 73 73
30 30 29 24 21 18 27 42 39 46 50 52 53 55 55 56 57 57 56 53 44 48 47 46 51 54 58 62 65 65 67 68 70 70 70 72 73 71 71 74 72 74 73 71
31 30 31 27 23 31 34 40 49 52 52 53 55 56 57 57 58 60 59 54 51 61 59 49 55 62 65 65 66 67 70 69 69 70 71 72 73 72 74 74 74 72 73 72
32 35 36 34 33 36 36 40 45 51 52 54 56 58 58 59 61 62 59 57 65 67 65 63 69 70 70 70 69 68 69 70 72 71 72 72 72 73 73 72 72 72 72 73
32 34 33 33 34 36 40 40 45 52 53 55 57 58 58 62 62 57 61 68 68 68 68 69 69 70 71 72 73 73 70 70 69 69 70 70 70 72 70 66 67 74 76 71
33 34 32 28 34 39 41 44 49 50 53 57 58 57 60 64 64 65 66 67 67 67 68 68 68 68 69 71 72 72 73 72 71 70 69 67 66 67 65 63 60 51 52 52

GFSCGP_sfc_dewp_048.txt.gz
Dewpoint
38 34 29 26 29 27 28 29 30 34 37 36 38 38 39 42 51 52 56 57 57 56 58 59 61 62 62 64 66 68 70 73 71 70 68 66 64 66 65 68 72 74 75 75
27 28 26 25 21 24 26 26 28 32 32 32 35 35 36 37 49 52 54 57 57 57 56 59 61 61 62 65 67 70 71 73 73 70 69 66 66 64 66 68 72 74 74 75
23 21 23 23 26 26 27 26 26 29 31 29 30 32 34 39 45 50 52 55 57 57 56 58 60 61 62 64 66 69 73 74 74 73 70 69 67 67 66 68 70 73 74 74
23 20 21 21 22 23 23 25 24 24 27 27 31 29 36 36 43 48 50 53 55 57 57 56 58 61 61 63 65 69 73 74 74 74 71 74 65 64 64 68 68 69 73 73
24 22 19 21 21 20 21 21 22 23 23 25 27 27 30 36 38 45 49 52 53 55 56 55 56 59 61 63 64 68 72 75 75 75 75 70 71 63 65 67 74 76 75 74
18 19 18 20 20 18 19 19 20 22 20 20 25 25 27 30 39 40 46 50 53 53 55 57 56 57 60 62 64 67 72 76 76 75 74 76 75 71 67 70 69 69 70 70
19 18 20 20 21 22 19 18 15 15 15 18 23 24 28 29 31 38 40 45 51 54 54 56 59 57 59 61 64 66 73 76 76 75 74 75 75 75 75 73 70 72 66 67
19 17 18 21 21 22 20 17 11 19 13 14 22 22 24 29 30 31 39 40 50 53 55 56 59 60 60 61 66 68 72 75 74 74 76 77 77 71 70 73 69 68 67 66
21 20 18 20 22 21 22 20 12 9 13 13 13 21 24 26 28 30 32 36 39 47 54 56 57 59 61 63 66 70 73 75 75 73 77 77 76 76 72 75 76 70 74 68
26 24 19 18 21 20 20 21 13 11 17 16 11 17 17 26 28 30 30 31 37 40 48 54 56 58 60 62 65 68 72 75 75 74 75 74 75 76 76 76 76 76 75 75
27 25 23 20 20 19 18 17 18 11 12 13 13 11 19 24 28 29 29 31 35 38 45 52 55 57 60 61 62 65 69 72 72 73 74 75 74 74 75 74 76 76 77 77
30 27 25 20 19 18 18 19 20 17 23 16 13 10 14 20 20 27 28 31 34 38 41 48 51 55 57 59 60 62 65 67 69 72 74 75 75 75 74 75 75 76 77 78
34 26 25 25 20 20 18 19 16 17 15 26 16 14 25 27 27 28 30 32 37 39 42 44 45 49 54 57 64 61 63 64 66 70 70 73 74 75 75 76 76 76 77 77
33 30 29 22 26 23 23 19 18 15 19 19 19 21 20 21 23 28 32 33 35 40 45 46 47 48 50 57 65 67 63 63 64 66 69 72 74 75 75 76 76 76 77 77
28 30 31 30 28 27 26 20 19 21 22 22 22 23 25 25 25 29 31 32 35 39 42 45 50 51 56 58 65 68 66 67 65 69 70 72 75 76 76 76 76 77 77 77
28 29 30 30 26 25 25 26 26 23 21 22 23 25 27 27 29 31 32 31 31 32 33 38 48 52 56 59 62 65 67 66 68 70 70 73 75 76 76 76 77 77 77 77
27 24 27 26 25 25 25 26 26 27 27 27 26 29 30 31 31 33 36 35 35 35 37 40 45 52 56 59 62 64 68 67 69 71 72 73 75 75 76 75 76 77 77 76
27 28 24 23 27 24 26 26 26 27 28 27 28 29 30 32 33 34 36 36 36 35 36 41 38 41 51 53 53 63 63 69 70 72 72 74 75 75 76 76 76 77 76 76
24 27 22 22 22 24 24 25 26 28 30 29 28 30 30 29 30 32 32 34 37 39 39 39 35 34 41 46 52 60 64 65 68 71 72 73 74 75 75 76 76 76 75 75
22 27 24 21 21 21 25 26 28 32 30 34 41 40 39 35 28 29 34 33 37 37 38 38 39 38 39 46 49 59 64 67 70 71 72 73 74 75 75 76 76 76 75 73
21 23 21 20 20 21 24 31 42 33 42 48 49 51 52 50 47 50 51 52 51 51 48 46 47 47 52 51 57 64 64 66 70 68 69 73 75 76 76 77 76 76 75 74
26 23 18 19 19 17 22 25 36 45 48 49 50 50 52 54 55 55 57 57 56 54 54 48 49 51 53 59 63 69 70 70 72 72 70 73 75 72 70 76 75 75 76 75
23 24 26 24 18 28 29 32 34 37 42 45 49 49 50 50 52 54 59 60 59 59 56 50 54 54 59 63 67 68 73 73 71 72 73 74 75 73 74 75 75 72 74 71
25 27 27 31 30 32 33 33 37 40 41 42 47 49 48 49 50 55 61 62 61 60 56 57 57 58 63 68 69 70 70 72 72 72 72 72 73 74 73 71 72 71 70 70
27 30 30 31 33 33 34 36 36 37 47 47 48 49 50 52 54 59 63 64 62 60 66 64 65 68 70 71 71 70 71 71 70 70 71 72 71 73 72 70 68 70 73 68
30 31 28 27 32 32 34 34 38 41 42 43 45 49 51 55 59 62 65 65 67 67 68 68 70 72 73 74 72 73 72 72 71 71 70 69 68 71 71 70 67 51 48 47

GFSCGP_sfc_dewp_051.txt.gz
Dewpoint
35 34 33 31 38 36 29 26 29 34 38 38 40 42 45 47 48 50 54 56 54 54 56 57 59 59 60 62 65 69 71 75 71 68 68 67 64 65 63 63 70 71 73 74
34 33 33 31 30 36 33 28 27 32 39 38 38 38 41 40 45 47 51 54 56 55 55 56 58 58 59 62 67 71 72 76 74 69 71 67 67 63 63 64 72 72 73 74
29 30 30 27 25 31 34 28 28 29 33 36 34 35 37 37 38 46 48 53 55 56 55 55 57 58 59 62 67 70 74 75 75 74 71 71 69 68 63 65 67 70 73 73
25 22 23 24 20 21 21 24 25 25 29 30 33 29 35 36 36 42 47 50 52 55 56 54 55 57 58 61 64 70 74 76 75 77 72 73 66 63 62 65 65 69 73 73
24 20 18 21 21 20 20 21 25 26 25 28 30 29 30 36 36 38 43 46 49 53 55 55 54 56 58 59 61 67 74 76 76 77 76 70 71 63 63 63 73 74 77 75
26 23 20 18 18 18 20 19 21 25 24 22 27 28 28 30 37 37 41 43 47 51 53 55 55 55 57 58 60 64 73 77 78 78 77 77 74 71 63 66 66 67 68 70
22 23 21 20 18 19 18 15 15 18 19 20 23 25 30 29 30 34 39 42 46 49 52 54 55 54 56 58 60 63 72 76 78 77 77 76 76 76 74 74 67 70 65 65
18 18 20 18 19 19 18 14 13 20 15 16 22 22 24 27 28 31 36 39 43 49 51 54 57 56 57 60 64 66 72 76 77 77 78 78 78 71 70 72 68 67 66 65
19 20 19 18 19 19 19 17 12 11 12 11 14 22 23 25 26 30 32 37 40 45 49 52 55 56 56 60 65 68 72 75 77 76 78 78 78 77 72 74 75 69 74 66
23 24 20 18 19 19 20 19 12 12 21 17 13 19 20 27 28 29 30 32 38 44 48 50 52 57 59 58 63 68 71 75 76 76 77 77 77 78 76 76 76 75 74 76
24 25 25 23 20 20 19 19 17 11 13 13 14 14 19 25 28 27 29 31 35 39 47 49 50 55 59 60 60 65 69 72 75 76 76 77 77 77 78 75 76 76 78 78
26 26 26 22 20 21 20 20 21 20 25 13 12 12 15 18 18 25 29 31 32 37 39 44 49 53 55 60 59 62 64 67 72 74 76 76 77 77 76 77 76 77 77 79
32 28 27 27 20 21 21 20 16 19 15 25 13 16 27 22 25 24 28 29 35 38 41 41 44 52 55 57 63 63 64 64 66 72 73 75 76 76 76 77 78 77 78 78
37 31 31 24 26 22 22 20 18 14 20 18 19 20 24 24 26 30 31 32 34 39 41 42 44 49 54 59 64 66 63 62 65 67 70 74 76 76 76 77 78 78 78 78
30 33 32 29 27 25 21 19 18 19 20 20 19 23 25 25 25 31 32 35 35 37 38 43 44 46 50 57 63 67 65 66 64 69 70 73 76 77 77 77 77 78 78 78
31 31 33 31 28 29 26 23 19 18 19 19 20 22 26 27 26 28 30 32 31 35 39 39 44 48 50 52 57 64 68 66 69 70 70 74 76 77 78 78 78 78 78 78
30 28 32 31 31 29 27 27 26 24 21 21 21 26 28 28 30 32 34 36 35 35 36 37 38 43 51 50 59 62 67 70 70 70 73 74 76 76 78 78 78 78 78 78
28 31 30 26 31 28 28 29 27 26 27 25 27 28 29 31 33 34 36 37 37 38 38 38 35 38 42 46 49 61 61 71 72 72 72 74 75 76 77 78 78 78 78 78
24 27 26 25 25 27 26 27 27 28 29 29 29 30 30 31 32 34 35 35 37 38 38 38 36 33 38 38 48 55 63 66 70 72 73 73 75 76 77 77 78 78 78 78
21 26 22 26 24 25 28 31 27 34 30 31 31 32 32 32 29 32 41 43 49 46 47 46 40 38 37 41 38 47 58 68 71 72 73 74 75 76 76 77 78 78 78 77
19 22 20 21 24 25 28 31 35 29 44 49 46 47 46 45 49 55 53 54 54 54 53 53 53 51 53 53 54 59 59 66 69 70 72 75 76 77 77 78 78 78 78 76
27 21 19 20 22 23 26 25 30 44 45 44 47 48 50 50 49 49 51 53 56 58 58 55 54 54 56 57 64 66 68 69 74 73 73 75 76 74 73 78 78 78 78 78
21 29 23 24 21 30 27 29 31 35 38 42 44 43 45 47 47 48 50 52 57 61 61 60 57 60 63 63 68 69 72 75 74 75 75 76 77 76 76 78 78 75 77 73
25 27 23 27 30 31 31 30 33 34 35 39 38 45 47 48 49 50 51 55 59 63 63 62 60 59 64 67 68 73 74 77 76 76 76 76 76 77 77 73 73 72 71 71
25 28 28 26 28 29 31 32 33 34 36 36 39 42 42 43 45 49 52 58 62 65 64 63 64 64 63 66 70 69 72 74 74 73 72 75 72 75 74 72 65 70 72 65
27 28 24 23 29 31 33 33 33 34 34 36 40 41 40 41 43 48 53 59 65 67 68 67 68 67 70 71 72 73 72 73 74 72 70 68 67 71 70 70 66 49 49 47

GFSCGP_sfc_dewp_054.txt.gz
Dewpoint
36 32 33 34 35 36 35 29 32 33 34 41 37 50 51 56 56 59 52 53 52 54 57 58 59 60 62 64 68 69 72 74 73 72 71 71 69 71 72 73 74 76 77 77
34 31 31 31 32 34 34 32 26 28 36 41 40 48 53 53 57 58 53 54 53 53 55 58 60 60 61 64 67 70 71 74 74 72 72 71 72 70 69 71 74 76 76 78
31 31 29 27 28 28 34 34 30 25 39 40 39 40 50 55 57 54 52 56 54 55 54 57 59 60 60 64 67 70 72 75 74 74 74 75 74 74 70 70 71 73 75 77
32 31 29 28 28 28 26 33 33 28 37 36 38 38 44 39 40 44 48 52 52 55 55 55 57 59 60 63 66 70 72 74 74 75 72 73 68 67 67 70 70 73 75 75
33 31 29 28 28 27 26 27 32 30 26 29 35 33 30 37 37 37 43 49 50 54 55 54 55 58 59 62 65 68 72 73 74 73 75 71 71 68 70 70 72 75 76 76
33 33 29 24 24 24 23 21 24 26 23 25 27 32 34 32 39 37 39 44 50 50 54 56 56 58 58 60 64 67 72 73 74 75 74 75 72 71 67 70 70 72 73 74
30 32 26 20 18 21 19 16 17 17 22 23 25 24 32 33 36 37 40 43 46 51 53 56 56 56 59 60 62 65 72 74 75 75 74 74 76 73 73 73 69 71 70 71
23 25 29 22 19 18 19 16 17 22 19 20 24 25 28 33 33 36 39 42 43 47 54 56 58 57 59 60 63 65 71 73 74 74 76 75 75 74 70 72 70 68 71 70
24 23 24 26 21 19 17 17 15 13 16 16 19 24 25 29 30 31 29 39 43 45 50 54 57 57 58 60 63 65 70 73 74 75 76 76 75 74 74 72 74 73 73 70
24 24 21 21 22 19 19 18 14 14 19 20 15 24 24 30 32 31 29 30 38 44 48 53 55 58 58 59 62 64 69 72 74 74 75 75 76 75 73 75 73 72 75 78
21 24 22 22 23 19 17 18 17 13 15 15 15 16 24 34 33 32 29 34 35 42 46 50 54 58 59 59 60 63 65 71 73 74 75 76 76 76 75 73 74 73 75 75
28 21 23 21 21 21 19 19 20 22 25 18 18 15 24 25 30 30 33 35 35 40 45 50 53 56 58 60 60 62 64 66 72 74 75 75 76 76 76 75 74 75 75 77
32 29 24 23 23 22 21 20 17 19 18 28 18 16 29 25 27 31 31 33 43 45 50 51 51 55 58 60 62 62 64 65 68 73 74 75 75 76 76 76 75 75 76 75
36 31 30 23 28 26 24 20 19 16 23 20 20 20 25 26 27 28 36 37 39 47 48 51 52 52 57 61 64 64 64 64 67 69 73 74 75 76 76 76 76 76 76 76
30 33 32 29 25 26 20 19 20 21 23 23 22 26 29 32 31 34 42 43 45 47 46 53 49 52 59 63 65 66 65 66 66 69 71 73 75 76 76 76 76 76 76 76
32 32 33 33 31 29 28 20 20 20 19 19 20 23 27 32 37 36 40 39 43 43 44 47 52 57 61 62 65 66 66 67 68 69 69 73 74 75 76 76 76 76 76 76
30 30 32 31 32 30 28 28 24 22 22 20 22 30 33 33 36 38 43 41 38 37 46 46 50 58 64 63 66 67 68 68 70 70 72 73 74 75 76 76 76 76 76 76
27 30 31 29 33 30 31 31 29 27 23 21 23 25 28 32 36 41 44 42 37 40 46 49 42 48 53 51 51 66 66 72 71 72 73 74 74 75 76 76 77 77 76 76
25 27 27 28 28 31 31 31 29 28 28 29 28 28 30 32 33 39 37 38 41 46 49 49 41 40 56 52 55 66 65 68 72 72 73 73 74 75 75 76 76 77 77 77
22 27 25 28 26 25 33 29 29 31 29 47 32 31 29 31 30 48 55 53 54 55 57 57 56 54 56 60 53 67 66 70 71 71 72 74 73 75 75 76 77 77 77 76
19 24 22 24 26 27 35 31 32 31 47 47 48 49 51 45 50 52 51 52 53 56 58 62 60 59 62 65 67 71 71 69 71 72 73 74 74 75 76 77 77 77 77 77
29 20 21 24 24 27 34 29 38 47 44 43 46 45 46 48 49 48 49 52 54 58 59 62 62 64 64 66 69 71 73 74 75 75 73 74 76 73 74 77 77 78 77 77
27 32 26 27 25 37 31 34 34 36 39 40 42 40 44 48 49 50 51 54 55 59 61 65 66 67 68 70 74 73 74 77 80 76 76 75 76 76 74 76 77 76 77 76
29 30 29 29 30 30 30 31 33 33 34 35 37 38 40 45 44 45 47 50 54 58 60 66 69 67 69 70 70 75 77 78 78 78 77 77 76 76 76 75 76 76 75 75
25 28 27 27 30 31 29 29 29 31 34 34 35 36 37 42 42 43 46 50 53 58 61 67 69 70 71 73 74 73 75 76 74 77 76 76 75 76 76 70 64 73 72 66
31 32 31 32 36 37 39 39 36 34 33 34 35 35 36 40 41 42 46 49 52 59 62 67 68 69 72 74 75 76 78 77 75 75 74 73 72 74 74 67 65 49 48 46

GFSCGP_sfc_dewp_057.txt.gz
Dewpoint
36 35 30 30 33 35 37 36 35 36 41 42 44 50 53 56 55 56 56 58 58 58 60 60 62 62 62 64 64 64 67 69 69 70 69 71 68 69 66 67 72 73 73 73
34 34 34 32 33 33 33 34 35 33 34 40 48 50 53 53 56 55 55 59 59 56 56 58 58 59 61 64 63 67 66 70 69 70 69 70 70 69 68 68 68 73 73 74
32 34 35 32 32 32 32 32 33 33 31 39 47 48 50 52 56 57 58 59 58 55 55 57 57 59 60 64 65 64 68 71 70 71 70 70 70 69 68 67 66 72 72 74
32 33 33 32 30 30 30 32 34 34 33 37 37 40 50 52 53 53 56 57 55 53 54 57 57 58 60 63 66 65 69 71 70 71 70 68 66 65 68 66 68 71 72 74
27 32 31 31 29 27 26 29 29 32 33 34 37 36 48 50 48 51 54 56 54 55 53 56 57 58 59 62 65 67 67 71 70 71 68 69 68 68 66 68 66 69 72 73
28 33 33 31 29 28 28 28 27 27 30 29 28 35 36 43 47 49 54 56 57 55 53 54 57 58 58 62 65 68 68 69 70 70 71 68 68 66 66 66 67 70 73 73
28 29 31 32 30 29 28 26 22 21 25 28 26 29 35 36 40 48 52 55 56 53 54 54 56 57 58 61 64 67 68 68 71 70 68 71 70 68 66 65 66 70 71 71
24 26 31 33 31 28 26 24 21 18 18 22 22 21 27 32 36 37 47 53 53 53 54 54 55 57 57 59 63 66 69 68 70 72 70 68 70 71 67 70 68 66 70 71
20 25 31 32 32 26 21 21 19 15 21 20 21 23 26 27 28 31 37 47 50 52 54 54 54 56 57 59 62 65 68 69 70 70 71 71 68 71 70 66 70 71 68 70
29 18 23 27 32 30 19 20 17 14 15 16 18 22 24 25 25 28 27 39 44 50 53 54 55 55 57 57 61 63 68 69 70 70 71 72 72 70 72 70 69 68 70 71
34 28 21 21 28 28 22 19 16 16 18 16 19 19 23 27 26 26 29 34 42 46 53 55 55 55 57 57 59 62 65 69 70 71 71 72 73 73 70 72 71 69 70 70
34 31 26 20 21 25 24 18 19 15 16 18 17 16 30 26 28 26 31 30 38 44 53 55 55 55 56 57 57 61 64 68 70 71 72 71 72 74 73 70 71 71 70 72
34 32 27 24 21 21 23 18 18 20 21 19 14 15 24 28 28 27 33 35 34 45 51 54 55 55 55 56 57 60 61 66 69 70 71 73 73 73 74 73 71 71 71 71
43 34 34 26 25 23 24 21 17 16 18 18 20 19 28 30 31 34 34 39 44 43 48 52 55 55 55 56 57 59 60 62 68 69 71 72 73 73 73 74 74 71 72 72
33 28 30 30 31 29 27 23 19 16 16 21 21 26 29 31 36 41 44 45 44 46 51 51 53 56 56 57 57 58 60 61 62 69 70 72 73 73 73 73 74 74 72 73
31 27 31 33 32 30 29 29 20 19 18 18 21 18 35 37 36 40 41 42 41 46 46 48 51 54 56 58 59 59 60 61 63 63 70 71 73 73 74 74 74 74 74 72
29 25 28 30 33 32 31 31 30 20 21 20 20 23 37 36 41 41 43 41 42 45 45 43 48 51 56 58 60 61 62 62 63 65 66 70 72 73 73 74 74 74 74 74
29 24 29 30 32 29 33 36 34 27 24 27 24 32 34 37 44 45 42 37 40 42 41 44 43 45 51 60 63 63 63 66 65 65 67 68 71 72 73 73 74 74 74 74
26 23 26 29 31 32 34 32 31 33 45 46 47 44 36 47 51 52 54 55 56 57 57 57 56 57 58 56 56 66 64 66 68 68 68 69 71 72 73 73 73 74 73 74
23 24 27 29 29 30 34 33 36 36 43 45 44 48 44 48 48 51 53 54 56 58 59 62 61 58 58 60 61 64 66 67 66 66 71 72 71 72 72 73 73 74 74 74
22 25 23 25 28 37 35 35 43 39 42 43 41 44 48 48 50 51 53 54 58 58 59 62 64 64 62 62 61 62 58 64 70 70 71 72 73 73 73 73 74 74 74 75
32 31 29 26 29 30 38 34 34 40 43 41 42 41 47 47 46 47 48 50 56 57 58 59 63 65 67 65 62 59 65 63 66 71 71 72 73 73 74 74 74 75 75 75
32 35 34 34 32 37 34 35 35 32 33 40 41 39 42 45 44 45 46 47 49 56 57 58 61 66 68 69 66 65 65 68 70 73 72 72 73 73 70 74 74 74 75 75
28 34 32 33 32 32 34 32 37 38 38 36 35 37 39 41 44 44 45 46 47 48 55 59 57 63 66 68 70 70 66 71 72 70 74 74 73 74 72 75 74 74 75 75
31 33 33 31 33 35 35 36 37 38 39 40 40 36 36 37 42 43 44 46 46 47 55 59 57 59 65 67 73 74 72 71 69 69 75 75 74 73 74 62 60 71 69 68
31 33 35 33 36 37 37 38 38 39 39 39 41 40 39 39 42 44 44 46 47 45 46 59 60 63 66 67 71 74 74 75 74 70 72 74 74 74 70 62 59 48 47 45

GFSCGP_sfc_dewp_060.txt.gz
Dewpoint
31 26 23 20 22 26 34 36 36 38 47 52 52 51 53 54 57 59 60 60 61 60 61 62 62 62 62 64 65 64 65 66 68 69 70 68 67 68 68 67 69 71 72 73
35 30 29 30 29 29 32 33 34 37 37 42 50 51 53 53 54 57 59 60 60 61 61 61 62 62 61 63 64 65 66 66 67 67 67 69 68 68 68 66 70 71 72 73
31 34 35 35 33 30 31 31 32 34 35 46 49 51 51 52 55 57 56 58 59 59 60 61 61 62 62 62 64 64 67 67 67 68 68 69 70 67 67 66 66 71 72 73
26 31 34 35 33 31 30 32 33 32 34 36 46 46 50 52 53 54 55 54 56 57 59 60 61 61 62 62 64 64 68 68 68 70 68 67 67 68 67 65 66 69 72 73
22 28 32 33 34 32 31 34 32 32 32 33 37 43 47 51 50 51 51 54 56 58 56 58 59 61 62 62 62 65 68 68 68 70 68 67 66 67 67 66 65 66 71 72
24 24 30 32 33 34 32 29 28 29 27 26 29 34 39 48 48 48 49 52 55 57 56 56 58 60 61 62 63 63 67 69 69 70 69 68 67 67 66 65 66 66 70 71
21 22 25 28 32 32 31 26 24 24 24 24 27 30 33 48 49 48 49 50 53 57 55 55 57 57 59 62 64 63 66 68 69 69 69 69 68 67 66 66 64 66 70 71
23 19 23 29 30 30 29 26 25 22 22 23 27 27 29 41 49 49 50 50 52 55 55 54 56 57 58 61 64 64 64 66 68 69 69 68 68 68 67 65 66 64 70 71
34 26 29 28 29 31 30 26 26 21 24 19 23 24 26 27 35 38 48 50 51 55 55 55 55 57 58 61 63 65 65 64 68 68 69 69 70 68 67 67 66 66 68 71
36 32 31 26 26 31 31 27 22 20 21 18 18 21 22 24 25 27 45 48 52 55 56 55 54 57 58 60 62 65 66 65 66 68 68 67 67 70 72 67 67 70 69 69
35 33 31 30 21 24 31 28 21 21 18 17 16 17 22 25 27 27 37 50 52 55 56 55 54 56 57 59 62 64 66 65 66 67 69 69 69 67 69 71 68 67 68 70
35 35 32 29 27 23 29 28 21 19 17 18 18 17 22 25 28 28 28 46 53 55 55 55 54 55 57 57 60 62 65 66 66 68 68 69 70 70 68 68 72 69 68 68
38 37 32 27 24 23 20 22 20 17 18 16 15 16 20 22 28 29 27 32 48 53 54 54 54 54 56 57 58 61 63 66 67 68 68 69 70 71 71 70 69 72 70 68
42 37 34 30 29 31 28 29 22 18 16 16 16 15 16 17 24 34 29 33 43 51 52 54 55 54 55 56 57 60 62 65 67 69 70 70 70 71 73 73 71 69 71 70
40 33 31 28 27 28 30 29 30 19 18 16 16 21 20 20 24 37 35 38 43 50 52 54 55 54 55 56 57 58 61 63 66 68 69 70 71 70 72 73 73 72 70 70
38 32 30 26 27 30 32 32 30 27 18 20 20 21 26 25 35 40 41 46 45 51 53 54 55 55 55 55 57 57 60 62 65 67 68 69 70 72 72 72 73 74 72 71
35 32 30 26 30 31 30 31 33 29 19 20 17 20 34 35 42 47 42 42 43 47 51 54 55 55 55 55 56 57 59 60 64 66 67 69 70 71 73 73 73 73 74 73
34 32 31 26 29 28 33 35 34 41 40 40 43 45 41 51 52 54 56 53 52 52 52 53 53 54 56 56 57 57 59 60 61 63 68 69 70 71 72 73 73 73 73 74
32 34 30 25 30 32 35 35 34 34 40 38 43 48 50 50 51 52 56 58 59 61 61 58 56 56 58 58 60 60 60 60 61 62 63 68 70 71 72 73 73 73 73 73
29 36 33 25 27 33 35 37 38 42 37 39 39 44 46 46 48 49 54 56 57 58 62 64 66 66 61 59 61 64 62 62 61 62 64 66 68 71 72 72 73 73 73 73
28 33 32 27 27 37 36 40 38 36 38 39 42 42 43 43 46 46 47 48 56 56 58 63 67 68 68 65 58 60 64 66 66 66 68 68 67 68 71 72 72 72 73 73
34 35 33 33 31 34 38 39 38 37 37 37 40 37 43 43 43 43 44 45 46 51 56 56 60 66 67 68 69 65 63 63 65 70 70 71 71 70 71 71 72 73 72 73
33 36 34 34 34 37 35 42 46 41 36 38 39 39 39 41 42 43 44 44 44 45 57 57 53 57 64 67 70 71 73 65 65 68 70 71 71 72 72 72 72 73 73 73
31 34 32 32 33 33 35 36 44 38 37 38 38 39 40 39 41 42 43 43 44 44 48 58 56 56 61 66 68 71 73 72 69 67 69 71 71 71 71 73 73 73 73 73
35 34 35 32 33 37 35 35 37 39 40 40 39 38 39 40 41 43 42 44 44 44 45 53 58 56 56 64 66 70 73 73 72 71 69 70 72 70 71 68 67 73 73 70
37 36 35 34 38 39 38 39 40 40 41 42 41 39 37 41 41 41 42 45 44 46 46 48 58 57 58 63 66 68 71 71 71 71 71 71 72 71 69 63 58 48 47 46

GFSCGP_sfc_dewp_063.txt.gz
Dewpoint
27 22 19 18 22 24 31 34 33 36 40 50 50 51 56 61 60 59 59 60 60 61 61 62 62 63 61 62 62 63 64 66 67 68 67 67 66 68 68 67 69 69 72 72
29 23 22 22 22 21 22 24 28 35 48 49 50 49 53 59 60 60 60 60 60 61 61 62 62 62 62 63 62 63 63 66 67 66 67 67 67 67 68 67 68 70 71 73
32 32 28 27 25 23 24 25 28 33 46 49 50 52 50 55 57 60 60 61 61 60 60 61 61 61 62 63 65 64 63 65 66 66 67 69 68 67 67 66 66 70 71 72
29 31 32 30 31 29 28 31 31 32 33 36 49 42 50 51 53 53 56 60 61 61 60 60 61 61 61 62 65 65 64 64 66 67 66 66 64 64 65 66 66 69 71 72
26 26 27 32 32 34 30 33 32 33 32 33 42 43 47 50 51 52 54 57 60 61 61 61 61 61 61 61 64 65 65 65 65 68 66 66 64 65 67 66 65 65 71 71
25 26 26 27 33 34 36 32 32 31 30 28 30 40 35 48 50 50 53 55 56 59 60 61 61 61 61 62 62 64 65 66 66 68 67 66 65 66 66 66 65 65 67 71
34 23 24 27 30 33 34 28 28 25 25 26 27 30 30 46 48 50 50 53 55 56 57 59 60 61 62 62 62 64 64 66 67 68 68 67 66 66 66 66 66 65 66 69
32 23 23 26 26 30 31 31 27 23 23 25 26 26 28 39 49 50 51 52 52 54 56 57 58 60 61 62 62 63 65 65 67 68 68 68 67 67 66 66 65 65 66 68
33 32 34 33 32 28 29 30 30 25 28 19 24 27 29 32 38 48 50 49 49 53 54 56 57 58 59 62 62 63 64 65 67 67 68 68 68 67 67 66 66 65 66 69
35 30 34 33 32 27 28 29 27 25 25 22 22 21 25 28 28 47 49 49 49 50 53 56 55 57 59 61 62 63 63 65 66 67 68 68 68 68 67 67 66 65 66 68
33 33 32 33 29 25 28 28 26 27 25 24 22 24 23 26 29 30 42 48 49 50 51 55 55 56 58 59 62 63 63 63 64 67 67 67 68 68 68 67 67 67 67 66
37 34 32 32 34 35 34 28 30 26 24 20 21 24 23 23 26 28 28 35 43 50 51 54 55 55 57 58 60 62 63 63 63 66 67 67 67 68 69 70 67 67 67 68
34 36 29 28 29 31 29 29 28 25 22 20 19 23 20 20 22 26 28 34 49 50 52 54 55 55 56 57 59 61 63 64 64 64 66 67 67 67 67 68 70 70 67 66
39 34 30 28 31 31 29 28 27 29 21 26 20 22 21 19 20 23 25 31 34 51 52 55 55 55 55 57 58 61 63 64 64 64 65 66 68 68 69 68 67 69 71 69
36 32 33 33 32 31 29 28 27 27 29 18 23 18 19 19 20 23 32 36 34 34 52 55 55 55 55 57 58 59 62 64 65 65 66 66 67 69 69 70 70 68 69 70
35 29 32 30 29 27 27 28 28 30 31 30 18 18 22 41 51 52 48 41 35 43 52 54 55 55 55 55 57 58 61 63 65 66 66 67 68 68 70 71 71 71 69 69
33 34 31 26 26 27 28 30 36 37 38 36 22 33 42 53 55 56 57 55 45 46 52 53 54 54 55 55 57 57 59 62 65 66 67 68 69 69 69 71 72 73 71 70
32 34 34 27 26 26 34 36 37 37 37 38 42 48 52 54 54 53 55 57 60 56 53 53 54 55 55 55 56 57 59 61 63 65 67 68 69 70 71 70 71 71 73 73
35 35 31 27 28 30 36 36 36 38 34 36 38 41 46 53 52 50 47 55 58 63 65 62 57 56 56 56 57 57 58 60 63 64 66 67 69 69 70 71 71 71 71 73
36 38 34 32 28 36 37 39 37 40 34 36 38 37 41 48 45 44 45 47 55 55 62 67 66 61 59 59 57 58 59 60 61 63 66 67 68 69 70 70 71 72 72 72
32 34 31 31 32 37 39 38 39 37 34 37 38 37 38 41 44 44 44 44 50 56 54 59 65 67 68 65 61 59 59 59 60 62 63 65 69 69 70 71 71 72 72 72
33 32 33 33 33 34 39 37 38 41 38 37 38 37 37 39 42 43 43 43 43 48 57 55 59 64 66 70 71 70 67 64 67 66 65 65 66 68 70 71 72 72 72 72
32 34 34 33 33 37 35 40 40 43 37 38 38 38 38 37 39 42 42 43 43 44 49 57 54 56 63 66 71 71 71 66 64 68 69 69 68 67 67 70 70 71 72 71
34 35 33 34 33 35 37 41 41 43 41 41 41 40 40 37 39 41 42 43 43 44 45 56 57 54 57 63 67 70 71 71 70 69 68 70 70 70 71 71 70 71 71 71
37 37 35 34 33 36 37 39 40 42 44 43 44 43 41 39 37 41 41 44 43 44 46 47 56 57 57 61 63 66 70 70 69 69 69 69 70 69 70 70 68 71 71 69
37 37 35 34 38 39 39 40 42 43 44 45 44 44 44 43 40 40 41 43 44 43 44 44 46 55 59 60 60 62 66 68 67 67 67 68 68 70 70 67 62 48 48 48

GFSCGP_sfc_dewp_066.txt.gz
Dewpoint
26 23 21 21 22 25 25 33 34 35 35 50 50 51 59 60 60 60 60 60 60 60 62 63 64 64 64 65 65 65 65 67 68 68 68 68 68 69 69 69 71 71 72 73
26 22 22 20 21 23 23 24 23 30 36 46 46 49 57 59 59 60 60 60 60 60 61 63 63 62 62 63 64 65 65 67 68 68 68 68 68 69 70 69 70 71 72 74
22 24 24 20 21 19 19 21 23 32 38 49 50 50 53 59 60 60 60 60 60 60 61 62 62 62 62 62 63 64 65 66 68 68 69 69 68 68 68 68 68 70 71 73
31 30 23 23 23 20 18 22 22 29 32 38 49 42 50 53 59 60 60 59 60 60 61 61 62 62 62 63 63 64 65 66 68 68 68 68 67 66 67 68 68 69 71 72
29 29 31 26 22 23 19 26 26 30 32 32 39 39 40 50 53 57 59 60 60 60 61 61 61 62 63 63 64 64 65 65 67 68 68 67 67 66 67 67 68 68 71 72
25 27 27 28 31 30 34 32 32 32 32 30 31 42 41 48 50 52 55 59 60 61 61 61 62 62 62 63 64 65 66 65 66 67 68 67 67 67 67 67 66 67 68 71
32 28 24 26 27 33 34 31 29 27 27 28 31 31 35 42 50 50 52 54 57 60 61 61 61 61 62 62 63 64 66 66 66 67 67 67 67 67 67 67 66 66 66 68
32 21 29 33 28 28 32 31 30 26 24 26 29 29 31 34 37 50 51 52 54 58 61 61 62 61 62 62 63 64 65 66 67 67 67 68 68 67 67 68 67 67 66 68
32 29 32 33 33 31 29 30 32 27 28 22 26 27 30 33 34 47 50 52 54 56 58 60 61 62 62 62 63 64 65 65 67 67 68 68 68 68 67 68 68 68 68 68
35 19 31 33 33 32 29 30 28 27 28 25 24 23 28 31 30 34 49 50 52 54 56 57 59 61 62 62 63 64 65 65 66 67 67 68 68 68 68 68 68 68 68 68
31 31 25 32 29 28 30 25 27 29 28 27 25 27 27 32 33 31 41 49 51 52 53 55 57 59 60 62 63 63 64 65 65 67 67 68 68 68 68 68 68 68 68 68
35 31 30 31 32 33 34 32 29 26 26 23 27 27 30 28 28 32 34 52 51 51 51 53 55 58 58 60 62 63 63 64 65 67 67 68 68 69 68 68 68 68 68 68
32 30 26 21 29 31 30 30 29 28 26 26 24 27 30 29 30 28 29 34 46 52 53 52 55 57 57 59 62 63 63 63 64 66 67 68 68 68 68 68 69 69 69 69
37 28 27 24 29 32 28 28 29 27 27 26 26 28 28 26 26 29 29 33 35 51 51 53 54 57 57 59 61 63 64 64 63 65 66 67 68 68 68 69 70 69 69 68
34 26 29 30 31 32 31 29 26 27 27 27 27 29 29 26 26 34 46 50 42 38 53 54 53 56 57 59 61 62 64 64 64 64 65 67 68 68 69 69 69 71 71 69
34 24 29 28 30 30 28 26 27 27 28 28 29 30 38 52 56 56 56 58 58 49 41 54 55 57 57 58 60 62 64 64 65 65 65 66 68 69 69 69 69 69 69 71
33 30 29 25 27 26 26 27 29 35 35 38 33 37 46 54 51 49 50 54 57 61 60 40 53 57 57 57 60 61 63 65 66 66 66 67 68 68 69 70 70 70 69 69
31 31 31 27 28 24 32 37 37 34 34 36 37 38 52 52 50 48 48 50 55 57 64 56 54 56 57 57 58 61 63 65 66 66 67 67 68 68 69 70 71 71 71 70
32 33 29 27 26 30 33 39 37 36 34 36 36 36 39 45 50 48 44 46 53 56 58 66 57 57 59 58 60 61 62 64 66 66 67 68 69 69 69 69 70 71 72 72
33 33 31 33 25 30 39 38 38 39 33 37 37 35 36 43 39 40 42 43 48 55 57 66 64 60 58 59 59 60 61 63 64 66 67 69 69 70 70 70 70 71 72 72
30 32 28 30 29 32 38 38 38 37 35 37 37 37 37 37 41 43 42 42 44 52 56 59 66 67 69 62 60 60 61 62 64 65 67 69 69 70 70 71 72 72 72 72
32 30 30 32 29 29 39 37 36 38 39 38 39 39 39 39 40 42 42 42 44 45 54 56 57 63 68 71 65 63 63 65 66 66 67 68 69 69 69 71 71 72 72 72
30 33 33 33 32 39 40 40 42 42 41 40 41 41 42 40 38 39 41 44 44 45 46 55 57 58 60 65 71 70 70 68 68 66 66 67 68 70 70 71 71 71 73 72
36 37 34 34 36 37 39 42 42 44 42 43 43 43 43 41 39 39 41 43 44 44 44 49 56 58 59 60 63 68 70 71 70 69 70 70 70 69 70 71 71 72 72 72
36 37 35 35 37 38 40 42 43 44 45 45 46 45 44 43 43 42 41 42 46 44 45 46 50 55 58 60 60 63 67 68 68 69 70 71 71 71 71 71 70 71 73 69
38 35 34 34 38 39 39 42 45 46 46 47 47 47 46 45 44 44 43 43 46 45 45 46 48 52 56 58 59 61 63 65 66 67 67 68 70 71 71 70 67 49 50 48

GFSCGP_sfc_dewp_069.txt.gz
Dewpoint
29 26 24 19 22 21 26 27 24 35 40 41 44 50 57 60 58 59 59 60 60 60 62 64 65 65 66 67 67 68 69 71 71 68 67 68 68 69 71 71 73 74 74 75
26 20 21 22 22 22 23 26 29 32 34 41 41 43 53 60 60 59 58 60 60 60 62 64 65 65 65 67 67 68 69 70 71 68 69 69 70 69 71 71 73 74 74 75
24 24 24 21 20 21 20 21 27 27 32 37 44 44 51 58 60 60 60 60 60 60 61 63 64 65 65 66 67 68 69 70 71 71 70 71 71 71 70 70 70 72 74 74
27 25 24 21 19 20 19 21 24 26 27 33 45 38 50 54 58 59 60 60 60 60 61 61 62 64 64 65 67 69 70 71 70 72 71 72 68 67 67 70 70 71 73 73
30 29 25 23 19 20 17 18 18 21 25 28 31 42 41 52 54 57 58 59 60 60 61 61 62 63 64 65 65 67 69 71 72 72 72 70 71 69 69 69 72 73 74 73
31 29 30 26 26 23 20 26 21 19 18 23 29 32 38 43 49 53 57 59 59 60 61 62 62 63 64 64 65 65 69 71 72 72 72 73 73 71 68 69 68 68 69 71
28 25 23 28 28 29 26 23 25 22 19 20 29 30 35 39 47 46 53 58 60 60 60 61 62 62 64 65 65 66 69 70 71 71 71 72 73 73 72 71 68 69 67 68
27 21 26 31 26 26 29 28 20 22 17 15 29 31 34 37 39 47 50 53 57 60 61 62 63 64 64 65 67 68 69 70 70 71 72 73 73 69 69 71 68 67 66 66
28 24 29 33 33 30 29 29 27 25 27 21 22 31 34 35 36 37 40 49 53 56 60 62 62 63 64 66 67 68 69 71 71 70 72 72 73 72 70 73 72 68 71 67
31 13 24 31 32 32 30 30 29 29 23 24 24 27 28 36 35 36 40 44 48 53 56 60 62 63 64 65 66 67 69 70 71 70 71 71 72 73 72 72 72 73 71 71
26 21 8 23 28 27 29 27 28 29 28 23 24 24 31 34 38 37 36 44 48 52 55 57 62 64 65 64 65 66 67 69 70 70 71 71 71 71 72 71 71 72 72 72
32 28 17 10 27 31 30 29 29 26 31 30 26 25 31 34 33 34 37 38 45 51 54 57 60 63 63 65 64 65 66 66 68 69 71 71 72 72 70 71 71 71 72 72
33 31 13 -0 24 30 30 30 29 28 28 31 28 27 35 34 35 36 35 35 43 53 55 57 58 61 64 65 66 66 65 64 65 68 68 70 71 71 72 72 72 72 72 73
36 31 26 11 23 27 28 29 29 27 26 26 28 31 33 34 35 38 38 38 38 44 54 56 57 59 63 65 67 67 66 65 66 66 67 70 71 72 71 73 73 72 73 73
36 25 24 20 21 22 22 23 25 28 29 28 27 31 33 37 41 52 53 55 55 55 50 53 56 59 62 64 66 67 67 68 67 68 69 70 72 72 73 73 73 72 72 72
37 24 28 21 19 25 24 22 23 26 26 28 30 32 37 44 54 52 52 53 55 57 59 57 56 59 62 63 65 67 67 68 68 69 69 71 72 73 73 73 73 73 73 72
33 27 24 13 24 27 21 25 24 24 35 35 33 35 44 48 52 52 53 53 55 57 58 60 63 59 63 62 65 66 67 69 69 69 70 71 72 72 73 73 73 73 74 73
32 32 31 19 20 17 31 39 31 32 37 37 39 40 42 50 51 47 48 50 53 56 59 60 61 63 61 61 61 66 66 69 69 69 70 71 72 72 73 73 73 73 72 73
31 32 25 20 19 22 30 37 37 37 35 37 37 39 39 42 47 47 44 45 48 54 59 61 65 65 58 61 64 66 67 68 69 69 70 71 71 72 72 73 73 73 73 72
33 34 31 25 22 22 37 38 39 39 36 38 38 38 39 43 48 41 44 43 44 53 59 61 67 61 57 63 61 66 67 68 69 69 70 71 71 72 72 73 73 74 74 72
31 32 28 27 24 27 38 38 40 37 37 40 39 40 40 40 41 42 43 45 46 49 58 62 67 64 64 65 65 67 67 68 69 68 69 72 72 73 73 73 74 74 73 73
29 29 28 29 26 24 39 37 36 38 42 41 42 42 42 43 41 40 42 45 46 46 53 59 62 65 67 65 67 68 68 70 71 71 71 72 73 70 70 74 73 74 74 74
32 34 34 34 33 39 40 40 41 44 43 43 43 44 44 43 42 42 42 46 46 46 47 53 57 62 64 68 69 67 69 69 70 71 72 73 73 73 73 74 74 72 74 71
35 37 35 35 38 39 40 41 43 44 43 45 45 45 46 44 44 44 45 47 51 50 47 49 50 53 58 64 66 69 71 71 70 71 71 71 71 71 72 71 71 70 70 70
35 36 35 35 38 39 40 40 43 45 45 45 47 47 47 45 45 45 45 47 49 52 53 51 51 51 53 56 60 63 67 71 71 71 70 69 69 70 71 71 70 70 73 69
38 35 34 34 39 40 40 42 44 44 44 45 46 46 48 47 46 46 46 47 47 47 52 54 52 52 52 53 55 58 62 65 68 68 69 69 72 71 70 69 69 52 53 50

GFSCGP_sfc_dewp_072.txt.gz
Dewpoint
25 24 20 19 20 17 17 13 14 26 41 45 46 49 55 58 57 58 58 59 59 59 61 62 63 62 61 64 66 67 67 69 68 66 65 66 66 68 68 70 72 74 74 74
23 20 21 19 18 19 17 20 19 25 37 43 44 45 49 57 57 58 58 60 58 59 60 62 63 63 62 64 66 67 68 70 70 65 66 66 67 67 68 69 72 73 73 75
25 22 19 19 19 19 19 17 18 21 32 40 43 44 44 50 56 56 58 59 59 59 59 61 63 63 63 63 66 67 69 70 70 70 67 69 70 70 69 69 69 71 73 73
28 26 25 20 19 19 16 16 16 21 28 32 40 36 44 45 53 55 57 58 58 58 59 60 61 62 63 63 65 68 69 70 70 71 71 74 67 66 64 67 67 68 72 72
26 27 27 25 23 21 18 16 17 16 22 28 37 38 38 45 49 53 55 57 57 58 58 59 61 63 63 64 64 66 69 71 71 73 73 70 71 64 64 65 71 74 73 73
30 28 28 27 26 23 20 17 18 17 13 19 29 33 35 44 48 52 54 56 57 57 59 60 60 62 63 64 64 65 69 72 72 71 71 73 73 71 66 68 66 67 67 69
28 29 30 28 24 25 22 16 18 13 9 7 18 26 34 37 46 48 51 55 57 58 59 60 61 61 63 64 64 65 71 73 72 71 70 72 73 73 72 71 68 69 64 64
20 20 27 27 26 26 24 23 15 20 9 5 12 19 27 36 39 44 45 48 54 56 59 60 62 62 63 64 65 66 71 73 72 71 73 75 75 68 69 71 67 66 64 64
22 20 28 30 28 26 27 24 23 16 20 18 9 16 27 32 35 41 41 45 48 54 56 58 60 62 63 64 67 68 71 74 73 70 74 75 75 74 70 75 72 68 71 66
21 16 22 28 31 31 29 28 24 24 24 23 19 19 17 30 37 38 39 39 43 47 53 56 59 61 63 64 65 67 70 73 72 71 71 71 72 73 73 72 73 73 71 71
19 14 14 20 26 24 27 28 28 25 25 23 20 18 24 29 34 36 36 38 39 40 45 53 58 60 63 64 64 66 67 69 70 71 72 73 71 71 72 70 71 73 73 73
22 17 14 8 28 27 28 29 26 26 30 28 25 19 27 28 29 35 36 37 37 41 45 50 56 61 62 63 64 65 66 67 68 71 73 72 73 73 70 71 71 72 73 74
26 17 16 13 7 17 26 28 29 27 26 31 27 26 32 33 35 35 34 36 38 42 45 51 53 59 62 63 66 64 65 65 66 69 69 70 71 71 73 72 72 72 73 73
30 18 19 9 17 22 26 28 30 28 27 27 28 31 31 31 33 39 45 48 46 45 46 51 54 56 62 65 68 68 65 64 64 65 67 71 73 73 72 74 74 73 74 73
28 25 23 19 16 16 17 18 20 27 30 28 27 29 33 35 38 46 50 50 51 52 51 50 54 56 60 64 68 69 66 68 66 68 67 71 74 74 75 75 75 74 73 73
29 25 24 22 18 12 12 14 16 17 25 30 30 31 33 37 41 44 50 52 52 53 55 57 57 55 57 61 66 68 69 68 69 70 70 72 75 75 75 75 75 75 74 74
31 27 23 17 14 15 13 13 15 20 23 27 29 32 34 41 43 50 52 53 54 55 57 59 60 61 59 58 64 67 70 69 71 72 72 73 75 75 76 75 75 76 75 74
29 31 27 18 17 12 14 37 36 29 22 25 32 35 41 44 51 49 50 51 52 54 57 60 60 60 61 59 57 65 66 71 72 73 73 74 75 75 75 75 76 77 75 75
27 30 26 18 12 10 14 37 37 37 29 37 39 40 41 43 47 50 48 49 51 53 55 60 62 62 64 63 60 63 65 68 70 72 73 74 74 75 75 75 75 75 75 74
28 26 33 25 17 16 35 37 40 39 37 41 41 42 42 44 45 46 46 46 49 50 53 61 63 65 65 66 61 61 65 69 71 72 72 74 74 75 75 75 76 75 74 73
33 34 31 29 25 18 36 36 40 35 37 42 41 42 43 42 44 45 44 46 47 48 49 59 65 67 68 63 63 66 67 69 71 70 70 73 73 75 76 76 76 76 75 74
32 30 31 30 28 23 38 37 37 39 41 43 43 43 44 44 43 44 45 46 47 48 49 52 63 66 70 64 65 70 70 70 72 72 71 73 74 71 71 76 75 75 75 75
33 36 34 32 29 37 40 41 42 42 42 42 43 44 45 44 44 45 45 47 48 50 50 51 55 65 68 71 67 68 72 73 71 72 73 73 73 72 74 75 74 72 74 71
36 36 36 35 36 39 39 42 42 43 42 44 45 46 47 46 45 45 45 46 48 50 52 53 52 54 60 67 70 72 71 72 72 72 72 72 73 73 72 71 71 71 70 70
37 37 36 37 38 39 40 41 42 42 44 44 45 46 47 48 47 46 46 48 49 50 53 54 54 54 53 57 61 66 71 71 70 71 71 71 71 72 72 71 70 70 72 68
37 35 34 34 38 39 39 42 43 42 43 45 45 45 46 47 49 48 47 48 48 49 53 55 57 56 55 56 58 60 64 70 72 71 69 68 67 69 68 69 70 56 56 54

GFSCGP_sfc_dewp_075.txt.gz
Dewpoint
35 27 22 23 23 16 11 9 10 18 34 40 42 46 59 55 54 56 57 58 57 58 59 61 60 60 59 60 64 66 68 73 69 67 66 66 64 67 66 66 71 73 72 72
25 23 23 20 19 17 14 14 12 12 19 38 41 43 51 53 54 55 56 58 57 58 59 61 61 61 60 61 64 68 70 73 71 67 68 67 68 65 65 66 71 72 72 73
26 21 21 19 17 17 17 16 16 16 19 29 39 41 49 60 57 55 55 58 57 57 58 60 61 61 61 61 64 68 72 73 72 71 69 69 69 69 65 69 68 70 71 72
25 22 22 19 19 18 17 16 15 14 16 27 36 34 41 56 61 53 54 56 56 55 59 59 61 61 61 61 63 69 71 73 72 74 69 73 67 64 64 66 66 69 71 71
21 24 24 25 21 19 20 17 15 14 16 21 28 31 32 43 48 50 52 54 56 55 56 58 60 62 62 61 62 65 71 73 73 73 73 69 71 65 64 63 74 77 76 72
27 21 21 23 25 24 23 19 18 16 12 12 23 27 31 36 43 49 51 52 55 55 56 58 60 61 62 62 61 63 71 74 74 74 73 75 73 71 63 66 67 67 68 70
22 27 25 24 25 26 25 21 17 14 12 10 11 19 34 34 43 45 49 52 54 55 56 57 59 60 62 63 64 64 71 74 74 73 72 73 75 75 74 73 65 68 63 63
16 17 23 26 25 24 25 20 18 20 11 6 10 14 24 33 41 48 49 51 53 55 56 57 59 60 62 64 67 67 71 73 74 73 73 74 75 67 66 72 66 63 62 63
12 15 22 23 27 25 23 22 20 16 15 11 7 12 15 24 31 45 49 49 52 54 55 57 58 59 61 64 68 69 71 74 74 72 74 74 74 73 68 74 75 68 72 64
17 20 21 23 27 27 25 25 21 21 22 19 16 16 10 21 28 34 39 44 47 52 53 55 58 60 61 62 64 68 71 73 74 72 73 73 73 74 74 75 76 74 74 73
16 17 15 18 26 25 25 25 27 23 22 20 18 19 23 22 29 32 34 41 43 45 50 52 55 58 61 62 63 65 68 72 73 72 73 73 73 73 74 72 74 75 75 76
20 16 15 11 12 16 20 24 24 26 29 24 22 20 23 22 22 30 36 38 40 41 45 48 52 56 59 62 62 64 65 66 70 72 73 73 74 74 73 73 73 75 76 77
25 20 16 14 10 12 20 24 27 22 24 30 23 23 32 30 30 32 34 36 39 41 43 44 48 55 58 61 65 64 64 64 66 71 70 73 73 74 74 74 74 74 76 76
30 23 22 13 16 18 18 15 24 25 24 24 26 27 31 32 33 40 45 48 48 48 45 47 49 53 59 63 67 68 65 64 65 66 68 72 74 74 73 74 75 75 76 77
25 24 23 21 18 17 16 19 23 28 30 28 27 28 32 34 34 45 48 48 49 49 51 48 49 52 58 63 68 69 66 68 67 69 69 71 75 75 75 75 75 76 76 76
27 28 28 24 23 18 17 15 16 19 22 25 30 31 34 37 40 40 41 49 50 51 53 55 55 56 57 60 64 69 69 69 69 71 70 72 74 76 75 75 76 76 76 77
31 33 28 25 21 18 17 17 13 15 18 20 25 32 35 35 38 48 52 51 52 52 55 57 59 59 60 57 63 66 70 69 71 72 72 72 75 76 76 76 76 77 77 77
24 31 33 30 24 18 15 19 22 23 20 17 22 26 31 37 43 45 51 50 51 53 54 56 57 60 60 59 57 63 65 72 72 72 73 73 75 75 76 77 77 77 77 77
22 22 33 28 21 20 16 36 36 34 26 39 23 25 31 42 43 44 46 50 50 53 54 55 57 60 63 64 63 62 66 69 72 73 73 74 74 75 76 76 77 77 77 77
23 24 25 24 25 19 33 37 38 39 29 42 42 43 43 43 40 45 48 47 49 52 54 55 58 62 63 64 65 64 62 69 72 72 73 75 75 76 76 77 77 77 77 76
34 35 30 27 26 20 33 34 36 33 34 42 42 43 43 42 45 48 47 48 49 52 52 56 57 63 67 68 70 69 67 67 71 71 73 76 76 77 77 78 78 78 77 75
33 34 35 33 28 23 35 34 33 41 42 41 41 42 43 44 45 46 47 48 48 50 51 55 55 62 65 70 73 72 71 71 74 74 74 75 77 74 74 78 78 78 78 77
34 36 35 35 29 30 38 37 40 40 41 42 42 43 45 46 45 46 46 48 48 49 50 52 54 58 58 63 71 69 75 75 75 75 75 76 76 76 75 77 78 75 77 72
36 39 36 36 30 34 39 39 42 43 42 43 43 43 45 46 48 46 46 48 48 49 50 51 53 56 57 60 62 66 68 73 74 75 76 75 75 75 75 73 73 72 70 71
38 38 37 37 37 39 39 40 42 42 42 42 43 43 44 45 47 48 48 49 49 49 51 53 55 54 56 58 59 60 61 64 73 73 72 74 72 73 74 73 71 70 72 67
37 35 34 33 37 37 39 41 42 42 42 43 43 44 44 46 47 48 49 49 49 49 53 53 56 55 55 56 56 58 60 59 67 72 72 70 69 71 71 70 70 56 58 54

GFSCGP_sfc_dewp_078.txt.gz
Dewpoint
38 33 29 29 25 24 18 13 8 12 20 26 31 50 53 55 54 59 59 56 57 58 59 60 60 61 60 61 66 70 70 73 72 71 70 71 71 73 72 72 76 76 76 76
33 30 30 21 22 22 21 16 12 10 10 22 36 50 53 54 52 58 59 56 56 58 59 61 61 61 61 62 66 69 71 73 72 72 72 73 73 72 74 74 76 75 76 77
25 25 27 24 20 20 19 16 14 13 13 14 29 50 51 53 54 58 59 56 56 58 59 60 61 61 61 63 67 68 72 73 72 73 72 74 74 74 73 74 73 75 75 76
28 27 23 20 20 19 17 16 14 14 14 13 18 21 54 57 60 57 58 58 54 55 60 59 59 61 61 63 66 69 72 73 72 75 72 74 70 70 72 71 73 74 76 76
22 24 23 21 20 19 19 18 16 14 14 14 15 24 30 55 52 51 57 59 54 52 58 59 60 61 61 63 65 68 71 73 71 72 74 72 72 69 73 72 74 75 78 77
24 23 20 21 22 23 21 19 20 17 12 12 16 16 26 51 48 46 50 57 56 52 55 58 61 61 62 62 64 67 70 72 72 72 73 74 72 74 72 73 71 72 73 75
14 18 24 20 20 23 24 19 18 17 13 10 11 13 26 37 53 51 50 55 55 54 55 57 59 61 63 63 63 66 70 71 72 72 71 74 72 73 76 73 71 70 70 71
11 14 15 24 22 20 23 22 20 21 13 10 14 14 15 24 29 52 55 51 55 56 55 57 60 61 63 64 64 65 70 71 71 72 70 72 75 70 71 74 69 72 68 69
15 7 9 20 23 24 23 23 22 19 18 14 12 16 15 18 26 43 52 56 55 58 56 57 59 61 63 64 66 66 70 71 72 71 72 71 74 74 70 75 77 70 74 73
18 15 13 18 22 22 23 24 21 22 23 22 16 21 16 23 24 39 47 54 59 61 59 56 58 61 63 64 66 67 69 72 72 71 71 70 70 73 73 71 76 75 77 76
18 16 15 14 20 24 25 23 23 22 21 20 18 17 23 27 26 27 48 55 60 62 63 58 58 60 62 64 65 67 68 71 72 72 71 71 71 71 71 72 73 74 75 77
23 19 18 14 15 16 23 26 24 26 29 24 23 20 30 29 19 23 30 49 52 57 65 63 59 60 61 63 64 66 67 69 71 72 72 71 72 71 70 69 74 74 76 78
27 23 19 17 14 12 13 15 19 22 25 32 23 22 29 30 27 25 28 33 48 52 59 61 58 58 60 63 64 65 66 67 70 72 72 72 72 72 71 70 72 74 73 75
27 22 23 20 20 21 19 11 16 19 23 24 26 28 32 34 45 45 48 51 49 54 53 54 55 57 58 64 66 66 65 66 67 70 71 72 72 72 72 73 71 72 75 75
25 21 21 21 21 23 20 17 15 16 23 26 28 29 41 46 48 49 49 50 50 52 55 58 58 60 59 65 67 68 67 67 67 69 70 72 73 73 73 73 74 73 73 74
28 27 27 25 21 24 21 21 16 16 22 29 30 32 45 47 45 48 54 52 52 54 55 59 61 63 64 66 68 68 68 68 69 69 70 72 73 74 73 74 74 74 73 74
24 37 30 25 22 22 19 21 18 18 19 23 24 29 34 41 43 50 52 53 52 53 55 56 57 59 64 65 69 69 70 70 70 71 71 72 73 74 74 74 74 74 74 74
22 23 35 24 25 26 25 21 22 18 19 16 18 22 25 37 47 48 50 52 51 52 53 54 54 56 59 62 64 66 70 71 72 72 73 72 73 73 75 74 74 74 74 75
23 23 32 29 19 27 27 34 36 34 25 37 40 42 42 44 42 48 49 48 49 51 53 54 55 56 60 63 64 67 68 70 70 71 73 73 72 73 74 74 74 74 74 75
33 32 27 21 24 20 33 32 35 30 29 40 41 42 42 43 34 45 47 48 49 50 53 54 57 57 61 66 67 68 69 68 72 71 72 74 73 73 74 75 75 75 75 74
35 36 34 28 23 19 35 37 35 27 33 40 40 41 42 42 44 45 46 48 50 50 51 53 56 57 60 61 65 68 73 73 69 72 72 74 75 74 75 76 76 76 75 75
32 34 34 33 28 24 34 33 30 39 39 38 39 40 40 42 44 45 46 48 49 49 49 51 54 57 59 60 62 64 68 68 75 74 73 74 75 74 73 76 76 76 76 76
34 36 33 33 35 37 38 41 43 39 38 39 41 41 41 41 43 46 48 47 48 50 49 50 52 57 59 60 60 60 63 65 68 74 75 74 76 75 74 75 76 76 76 75
35 37 35 33 29 34 37 40 44 42 41 42 41 41 41 41 42 45 47 47 48 49 49 51 53 54 56 58 57 59 61 64 66 75 76 75 75 75 75 74 75 75 75 75
38 37 35 33 34 37 35 38 40 41 42 41 41 41 41 42 43 44 46 48 49 49 50 52 53 55 55 57 57 58 61 63 65 73 75 75 74 75 75 74 75 75 75 73
39 37 35 34 38 37 37 40 41 41 41 41 41 41 42 43 44 45 46 49 50 49 51 52 54 55 54 56 56 57 57 59 61 65 69 73 72 73 73 73 73 56 61 56

GFSCGP_sfc_dewp_081.txt.gz
Dewpoint
36 35 33 31 30 28 27 24 19 16 15 26 33 58 60 61 58 62 63 62 57 57 59 58 58 59 61 64 64 66 67 68 71 70 70 69 68 69 69 72 71 74 74 72
37 35 34 33 30 28 24 22 22 19 16 20 51 55 56 57 55 59 57 56 61 57 58 62 58 58 61 62 66 66 68 69 70 69 70 69 68 70 70 71 74 73 73 73
27 32 34 31 29 22 21 21 19 19 16 16 48 51 51 53 55 55 60 60 60 60 57 59 58 57 60 61 65 68 69 69 70 68 70 70 71 69 71 70 72 71 74 73
30 29 25 26 27 25 18 21 19 16 15 15 18 38 50 51 55 58 59 62 62 63 59 58 59 58 58 63 64 69 70 69 69 69 67 68 68 67 70 72 71 72 72 73
24 24 26 26 24 21 20 22 20 19 15 14 13 14 48 51 52 55 59 57 61 62 60 58 58 59 59 63 63 68 70 69 68 70 67 68 68 68 69 68 70 72 72 73
22 24 24 22 23 22 23 20 20 20 18 13 13 15 41 51 50 49 58 59 62 60 58 59 58 59 60 63 64 65 70 68 68 69 71 68 67 68 69 69 70 71 72 73
17 18 20 21 22 21 23 28 21 18 18 16 14 12 13 53 53 51 55 57 55 58 58 59 58 58 59 61 64 64 68 69 67 67 68 72 68 68 70 70 70 69 70 71
10 9 15 17 23 21 21 21 22 18 19 17 16 13 15 28 54 52 53 53 52 57 58 59 59 59 60 61 64 66 66 69 68 67 67 69 70 68 70 71 70 69 68 68
18 16 17 14 13 22 21 21 22 20 20 20 19 19 17 18 29 50 47 52 54 57 54 58 59 59 60 61 62 66 66 67 68 68 66 68 72 67 69 69 70 69 68 70
19 16 16 15 16 19 23 24 22 21 22 21 21 21 23 18 15 48 52 54 60 62 61 63 63 60 60 61 62 64 67 67 68 68 67 66 68 72 70 68 72 70 67 69
24 23 20 19 16 16 18 22 22 23 23 19 20 21 23 35 26 42 50 54 59 63 63 63 66 66 63 61 62 63 68 67 68 67 68 66 66 71 71 70 67 72 70 73
25 23 22 21 20 18 16 12 27 26 25 27 28 24 39 44 47 39 49 52 56 60 63 63 64 64 64 63 63 62 67 68 68 68 68 68 66 68 70 69 69 72 70 72
23 24 21 21 17 21 22 21 20 24 22 24 27 28 41 43 43 50 52 55 57 59 59 60 63 64 63 63 65 63 65 68 68 69 68 68 68 66 68 67 68 69 73 73
27 19 19 19 20 21 21 21 23 20 17 23 24 27 41 43 44 51 54 55 57 58 57 59 62 62 63 65 66 63 64 68 69 69 69 68 68 68 66 66 66 70 71 72
25 22 22 22 21 21 21 20 23 23 19 16 19 25 38 45 52 52 54 55 57 58 60 62 63 64 65 68 66 63 64 65 69 70 70 69 69 68 69 68 68 64 72 70
29 26 31 26 25 23 21 21 22 22 21 17 19 30 39 49 51 51 52 54 52 54 55 55 59 64 67 68 68 69 67 65 68 69 70 70 70 70 69 70 69 67 65 72
26 34 28 24 24 22 23 23 23 22 22 22 18 38 39 47 51 52 51 52 50 52 54 53 55 57 62 67 67 65 66 67 67 68 70 70 70 70 70 70 70 71 68 66
23 26 33 26 27 20 22 25 30 31 37 39 41 42 45 51 52 53 52 51 49 52 52 53 54 56 60 65 67 67 66 64 68 68 69 70 71 70 71 70 71 71 72 70
32 31 28 26 25 24 24 32 33 31 35 39 40 41 41 43 46 45 48 48 48 49 51 52 53 56 59 59 64 68 69 69 70 69 68 70 70 71 71 70 70 71 71 72
32 34 34 29 25 22 33 34 35 33 31 39 38 39 40 42 41 43 44 46 47 48 50 50 52 55 58 59 60 64 64 67 66 69 71 70 70 70 71 72 71 72 72 71
32 33 30 30 28 27 36 39 36 24 37 42 38 39 39 39 42 43 45 46 46 49 50 49 52 54 57 58 58 58 61 61 63 64 66 73 71 70 71 72 72 72 72 72
31 30 29 32 29 26 37 38 38 41 42 41 41 41 40 40 40 42 44 46 48 48 50 49 51 52 57 58 56 55 57 58 60 62 63 71 72 71 72 72 73 72 72 72
33 33 30 31 33 34 36 36 40 41 41 41 41 40 40 40 40 41 42 44 47 48 49 50 51 53 55 57 57 54 56 58 59 61 63 71 73 72 71 72 72 73 73 72
38 36 33 32 32 35 36 38 39 39 39 40 40 40 40 40 40 41 43 43 46 48 49 50 52 52 55 56 57 56 57 59 59 60 62 73 72 73 72 73 73 73 73 72
37 36 33 33 34 35 36 37 39 39 40 39 40 40 40 40 40 41 43 44 45 48 49 50 52 52 55 56 56 55 56 58 59 60 62 68 73 72 74 73 74 73 73 72
38 35 32 31 36 37 37 39 40 39 40 39 39 39 40 40 39 41 42 45 46 48 50 50 52 55 55 55 54 53 54 57 58 59 61 60 65 69 74 74 72 57 61 59

GFSCGP_sfc_dewp_084.txt.gz
Dewpoint
36 35 35 37 33 30 29 27 26 26 24 19 50 59 59 59 62 60 61 60 60 58 59 57 57 61 64 64 64 66 67 67 70 68 67 69 67 70 70 70 71 73 72 72
37 34 36 35 32 30 30 27 24 23 24 20 56 59 60 60 62 58 58 61 60 58 59 57 57 61 63 63 64 66 66 67 69 68 68 68 68 69 69 71 71 73 73 72
35 35 37 36 32 31 27 24 23 21 21 50 54 55 59 61 61 62 61 61 60 58 58 57 57 59 63 63 65 66 67 67 69 68 69 69 69 69 69 70 72 72 73 72
33 32 28 34 31 30 26 25 22 20 18 14 39 32 51 55 55 57 61 60 61 60 60 59 57 58 62 63 65 67 67 68 68 68 68 68 68 66 69 70 71 71 73 72
22 27 27 26 26 28 27 26 22 24 20 15 16 21 43 51 52 54 56 59 60 60 61 60 57 57 60 63 64 68 67 68 68 67 66 67 67 67 69 70 70 71 72 72
19 23 23 23 25 25 24 23 23 21 19 16 15 13 33 49 50 51 52 58 59 60 60 61 59 57 60 61 65 67 67 67 69 68 66 67 66 67 68 68 69 70 71 72
15 15 16 18 19 23 23 22 21 19 16 16 21 15 16 49 50 51 52 55 57 58 59 61 60 57 59 61 63 67 67 66 68 69 67 66 67 66 68 67 68 70 71 72
16 11 15 16 16 20 21 21 21 18 18 17 19 16 17 28 50 51 54 56 52 57 58 60 60 59 58 61 61 66 67 66 66 67 68 69 67 66 69 70 69 69 69 70
16 15 19 20 19 18 21 20 21 20 27 20 21 23 26 44 43 50 50 56 55 59 60 59 60 59 59 61 62 63 68 66 66 66 66 67 70 67 67 70 70 69 68 69
23 16 20 21 18 20 17 17 22 21 20 20 22 22 24 43 47 51 51 54 58 57 60 60 61 61 62 60 63 63 65 67 66 65 65 65 67 70 67 68 69 69 69 68
25 21 20 20 20 21 18 20 20 24 23 20 19 22 43 45 50 51 52 51 56 57 61 61 62 63 63 63 64 64 63 65 67 66 65 64 65 69 70 67 67 71 68 69
24 23 21 22 23 23 19 21 22 23 25 26 23 26 42 48 51 52 55 52 54 58 62 64 66 66 65 64 63 66 66 65 66 67 66 64 64 66 70 70 67 68 70 72
21 21 19 17 21 21 20 20 20 23 22 22 24 27 47 50 52 52 54 59 61 61 61 62 64 65 65 65 64 65 66 67 66 67 67 66 63 64 66 70 70 67 69 70
27 19 19 18 19 20 21 23 23 22 20 21 19 21 46 50 52 53 53 54 56 57 59 60 61 64 64 65 66 66 66 68 69 68 66 67 66 63 63 68 68 70 70 71
24 21 26 27 25 25 23 22 23 22 21 21 20 20 48 50 51 52 54 54 55 54 55 57 59 65 65 66 68 68 67 68 69 69 68 66 68 67 63 63 68 67 70 71
30 25 27 23 24 24 21 21 23 23 27 31 29 33 46 50 50 51 52 54 54 54 54 56 58 59 62 65 67 67 69 69 69 69 68 68 68 68 67 64 64 66 65 71
26 28 25 21 25 21 16 23 29 31 39 39 39 41 41 50 50 49 50 52 54 54 54 54 57 59 61 62 66 67 66 66 66 69 69 69 69 68 68 68 66 65 64 62
21 29 29 24 22 16 16 25 34 37 37 38 38 39 40 43 47 46 47 47 49 54 53 52 54 58 61 62 62 66 68 67 67 67 69 71 70 69 68 68 68 67 67 65
32 29 26 23 22 22 24 36 37 32 35 40 40 39 39 40 43 43 45 46 46 51 54 51 52 54 57 60 61 62 65 68 67 68 67 67 71 70 70 69 69 69 69 68
31 34 31 25 21 21 33 36 40 35 32 40 41 39 39 39 39 40 44 45 47 48 53 50 51 52 55 57 59 60 60 61 62 63 65 66 66 72 71 70 69 70 70 70
27 29 25 26 25 30 35 36 38 29 32 41 41 40 39 38 39 40 42 42 45 47 50 51 50 51 52 57 56 53 57 58 60 62 63 66 65 68 72 71 70 70 70 70
26 25 22 25 25 25 35 35 34 39 40 40 40 40 39 39 40 40 40 41 44 45 49 52 51 51 52 56 57 54 53 56 58 60 63 64 66 68 70 71 71 70 70 70
29 31 26 28 28 36 37 36 38 38 38 38 39 39 39 39 40 40 40 41 43 45 48 49 53 51 52 55 57 54 54 55 56 59 60 63 65 68 72 72 71 71 70 71
34 34 29 30 29 34 36 38 38 38 38 37 38 39 38 38 39 39 40 40 42 43 47 49 49 52 52 55 56 54 54 55 57 58 60 62 61 70 72 73 72 71 71 71
33 34 30 30 32 32 36 36 38 38 39 38 38 38 38 38 39 40 40 39 41 43 47 50 50 50 53 54 54 54 53 53 55 57 59 61 61 64 72 73 72 72 72 70
35 31 28 27 32 31 31 35 39 38 38 38 37 38 38 36 36 39 39 39 40 41 46 50 49 53 53 53 52 52 52 52 53 56 58 60 61 61 65 71 71 57 59 58

GFSCGP_sfc_dewp_087.txt.gz
Dewpoint
31 35 35 36 35 33 30 29 29 28 26 40 56 55 58 60 62 60 61 59 59 59 57 58 58 63 64 65 65 66 67 67 69 67 68 68 68 70 70 70 71 72 72 72
36 34 35 37 36 33 32 31 28 27 26 22 47 56 57 60 60 61 61 60 59 58 58 57 58 63 64 64 65 67 67 66 69 67 67 69 68 69 69 70 70 72 72 72
35 36 38 36 35 33 30 30 28 26 30 56 54 55 57 58 61 63 60 60 60 60 56 56 57 62 64 64 64 66 66 66 68 67 68 69 68 69 68 70 70 72 73 72
35 35 35 32 34 32 30 29 27 24 20 16 42 42 53 57 58 60 61 59 61 60 58 56 56 62 63 63 64 65 66 66 67 68 67 67 68 66 68 69 70 71 73 71
28 28 30 27 28 32 30 31 26 23 19 17 17 22 40 56 56 57 59 60 61 61 59 56 56 60 62 63 64 65 66 66 67 67 67 66 67 66 68 69 69 71 72 72
20 23 24 23 26 28 28 24 23 21 19 15 16 14 23 53 54 54 56 57 60 60 60 58 57 58 62 63 64 65 66 66 67 67 66 66 66 67 67 68 68 70 71 71
13 15 17 16 18 22 23 22 20 17 15 15 17 16 19 39 52 55 54 55 58 60 59 60 58 57 60 62 63 65 66 66 67 67 66 66 66 66 67 68 68 69 70 71
13 10 16 19 18 17 20 21 21 16 17 17 20 16 30 46 48 51 51 53 56 58 59 59 60 57 58 61 63 65 66 66 67 67 66 66 66 66 67 68 68 69 70 70
16 16 21 21 20 20 18 19 26 20 23 20 21 23 34 49 51 52 52 53 52 55 58 59 60 58 58 60 62 65 66 66 67 67 67 66 66 66 66 69 69 69 69 70
25 16 21 22 20 21 19 20 20 21 18 17 21 26 40 49 51 54 57 57 55 55 57 58 61 61 58 60 61 65 66 65 66 67 67 67 67 67 66 67 70 69 69 69
27 20 18 21 21 21 21 20 22 24 22 19 19 37 46 50 51 53 55 58 56 56 57 59 60 61 62 60 61 62 66 65 65 65 66 66 67 69 67 67 67 69 69 69
22 22 19 21 22 22 23 21 22 21 20 24 23 37 47 50 50 52 53 54 57 59 62 64 66 66 66 64 62 63 64 66 66 65 65 64 64 66 69 68 67 67 69 69
23 20 13 12 17 22 20 23 24 23 23 20 22 30 49 51 52 51 51 53 55 57 59 62 64 64 65 65 65 66 66 66 66 66 65 64 64 64 65 68 69 66 68 69
27 20 17 11 18 22 23 23 23 23 21 21 21 22 48 49 51 53 53 51 53 55 58 59 61 62 64 66 66 66 67 68 67 67 66 65 64 64 64 64 69 69 67 68
22 21 24 24 24 24 23 22 22 22 22 21 24 41 42 48 50 52 55 55 53 52 53 57 59 61 62 63 68 68 68 67 69 68 68 66 66 64 64 63 65 68 69 68
28 27 25 21 25 22 19 27 26 28 35 30 33 41 40 48 46 47 50 54 54 53 53 54 58 60 60 61 62 64 66 69 69 69 68 68 67 67 64 63 63 66 67 68
26 27 22 18 25 18 18 25 35 37 38 39 38 38 40 45 44 45 46 47 51 53 54 53 55 57 60 60 60 61 66 67 68 69 69 69 68 68 67 65 63 63 65 66
27 27 26 22 20 13 14 36 37 37 39 40 40 39 38 39 43 44 45 44 46 52 53 54 54 55 58 60 58 60 63 68 67 69 70 70 70 69 68 67 66 63 63 64
28 26 25 22 20 20 28 34 37 34 35 40 40 39 39 39 41 42 41 42 42 46 54 54 52 55 54 58 59 58 58 61 65 67 66 66 67 69 70 69 67 67 65 64
32 32 30 24 21 19 29 34 36 38 30 40 41 40 39 39 35 39 40 41 42 44 48 54 54 51 56 55 57 57 57 57 59 60 62 65 66 66 68 71 69 69 68 67
24 25 24 24 23 28 34 34 35 28 29 40 40 40 39 38 39 40 40 41 42 43 44 49 54 53 51 55 57 56 56 55 57 59 61 63 65 67 66 67 71 71 70 69
24 22 21 24 28 25 35 33 27 34 36 38 38 39 38 39 39 39 39 40 41 41 43 46 49 54 53 54 57 55 52 54 56 58 59 60 63 65 68 67 70 71 70 70
25 28 25 27 26 34 35 32 37 36 35 35 36 37 38 38 39 39 39 40 40 40 41 44 49 51 54 54 56 53 52 53 53 56 58 59 62 63 65 66 69 72 71 71
32 33 27 28 27 34 36 37 37 38 37 37 37 38 38 37 37 36 37 38 39 39 40 42 45 49 51 54 55 54 52 53 53 53 55 58 61 61 63 67 71 71 71 70
32 33 30 28 31 32 33 37 36 38 38 38 38 38 37 37 36 35 35 37 39 40 39 40 42 46 49 53 54 53 52 52 52 53 55 57 60 60 62 64 71 72 72 71
34 31 29 28 31 31 30 36 37 38 37 38 37 37 37 36 37 37 38 36 37 38 39 39 41 45 49 53 53 51 51 50 50 51 53 54 57 60 61 63 64 60 58 56

GFSCGP_sfc_dewp_093.txt.gz
Dewpoint
28 28 32 38 39 36 32 30 29 29 49 55 49 51 56 62 62 62 61 62 60 61 62 63 64 65 65 65 67 69 70 72 72 71 70 70 70 72 75 73 74 73 73 74
28 29 35 38 38 33 33 32 30 29 39 49 37 40 55 59 61 63 62 61 61 61 61 62 64 64 65 65 66 69 70 72 72 71 72 72 72 72 73 73 73 72 73 75
26 32 37 36 37 35 34 33 30 26 28 50 51 48 55 59 61 62 63 62 62 62 61 62 63 63 64 65 67 68 70 71 72 72 72 72 73 73 71 72 71 75 72 73
32 37 36 36 35 36 35 33 30 29 26 20 46 24 51 55 58 61 62 62 61 62 62 61 61 62 63 65 66 68 70 71 71 73 72 73 69 73 69 71 72 72 75 74
33 35 36 35 35 35 33 33 32 29 26 22 37 22 38 56 54 53 59 62 62 61 61 61 60 62 63 64 65 67 70 71 71 73 73 71 71 70 70 71 74 74 75 75
20 20 26 30 29 32 31 27 24 24 22 19 20 17 40 45 50 52 54 55 61 62 61 61 61 62 62 63 65 66 69 71 72 72 72 73 73 72 70 71 70 71 75 73
17 17 18 21 19 28 29 25 21 20 18 17 21 30 47 51 53 54 55 57 58 59 62 62 61 61 62 64 65 65 69 71 71 71 71 71 72 73 73 73 71 71 70 71
17 15 19 21 21 20 26 23 21 21 18 17 23 35 47 51 53 55 57 58 59 59 58 62 62 61 62 64 65 67 69 71 70 70 72 73 73 69 70 72 70 69 69 70
18 17 20 22 23 23 23 23 21 21 22 17 21 38 46 49 51 53 55 57 58 61 59 60 62 61 61 64 66 67 69 71 70 70 72 72 72 71 70 73 73 70 73 71
23 18 20 21 22 23 23 23 21 23 23 19 33 39 42 48 50 52 53 56 58 60 60 58 62 62 62 64 65 66 68 70 71 70 70 70 70 71 71 72 73 73 73 74
23 20 20 22 23 23 23 22 26 25 24 20 25 38 48 51 52 50 51 53 57 60 60 63 65 63 62 64 65 66 66 68 68 69 70 71 70 70 70 70 71 73 73 74
25 19 20 20 23 24 23 24 23 24 28 27 30 38 52 52 52 53 50 51 54 58 59 61 62 63 66 64 65 66 65 66 67 69 71 70 70 70 69 70 70 71 73 74
21 18 19 20 20 23 22 21 23 23 24 30 24 37 50 50 49 50 51 51 52 54 57 59 59 59 60 63 67 67 65 64 65 69 68 70 69 70 70 70 70 70 71 72
26 21 17 14 22 23 21 17 21 22 23 25 28 42 47 46 47 48 50 51 52 53 54 56 58 58 58 59 61 64 68 67 67 66 67 69 70 70 70 71 71 71 71 71
24 21 23 23 22 20 18 18 17 22 24 25 37 43 46 45 45 45 47 48 50 52 51 52 54 57 59 58 59 61 62 67 70 70 68 68 70 70 71 71 71 71 71 71
29 25 24 21 22 23 25 28 25 28 34 38 41 43 45 44 43 44 45 46 46 48 51 52 53 53 55 59 58 59 60 63 68 70 70 70 70 70 70 70 70 71 71 71
28 27 22 18 23 22 16 27 33 37 39 38 38 40 43 41 41 41 41 42 43 45 46 47 51 51 54 55 59 58 59 60 63 63 66 71 71 71 71 70 70 70 70 71
28 28 30 21 21 14 24 37 37 37 39 39 39 40 40 40 41 42 42 42 42 43 43 43 43 46 50 54 54 59 58 59 59 60 61 62 65 71 71 71 71 71 70 70
29 28 28 23 19 20 28 35 37 34 37 40 39 40 40 39 39 42 43 41 40 41 43 44 43 42 46 51 53 56 58 57 57 57 59 61 62 64 66 71 71 71 70 70
31 33 30 27 22 16 27 34 38 38 29 40 40 38 36 34 30 39 40 37 38 39 41 43 43 43 43 45 49 54 56 57 55 57 58 60 62 62 64 66 68 71 71 70
32 34 30 28 25 24 33 33 36 28 31 40 37 36 35 32 34 36 37 38 39 39 39 41 41 42 44 46 47 52 55 56 57 55 57 59 61 61 63 65 67 68 70 71
31 32 34 32 29 22 34 34 34 39 40 37 35 34 33 34 35 36 36 37 38 38 39 39 40 40 42 44 46 48 51 55 58 57 56 58 59 60 63 64 63 65 68 69
33 34 37 33 29 35 35 34 38 35 36 35 35 34 36 35 36 36 37 38 37 38 39 39 39 41 42 44 46 46 50 53 56 56 56 56 58 59 61 62 62 64 66 68
36 34 35 31 31 34 36 38 39 37 34 35 35 36 37 36 37 37 37 37 37 37 38 39 39 40 41 43 44 46 47 50 53 56 56 55 56 57 58 59 61 63 64 66
36 37 36 34 34 34 35 37 38 38 37 36 36 37 37 37 38 38 38 40 39 39 39 39 40 40 41 43 43 44 46 48 51 53 55 54 53 56 56 58 59 59 63 64
37 40 40 38 36 38 34 37 39 39 38 37 37 37 38 39 39 40 40 40 39 39 40 40 41 41 41 41 43 45 46 48 50 52 52 52 52 51 52 57 57 55 53 53

GFSCGP_sfc_dewp_096.txt.gz
Dewpoint
24 25 24 30 33 36 37 34 33 39 51 51 49 47 56 60 59 60 60 61 59 59 58 60 63 63 61 61 65 67 69 72 71 69 68 68 68 75 71 71 73 73 73 74
21 23 26 33 37 38 36 32 31 31 45 47 34 35 46 57 58 60 60 60 60 60 57 60 63 64 63 62 65 68 70 73 72 70 71 70 70 70 69 71 73 71 72 73
19 21 32 37 38 35 37 34 31 30 32 36 42 46 52 55 57 60 62 61 61 60 58 57 61 63 63 63 65 68 70 73 73 72 73 75 74 76 72 74 70 71 72 71
22 30 34 38 36 35 31 36 32 27 26 32 41 35 47 53 57 60 61 61 62 61 60 59 60 62 63 64 64 67 71 72 73 74 72 73 67 65 66 69 70 70 71 71
26 33 35 35 36 36 33 35 34 28 26 25 33 30 46 51 51 53 60 61 62 62 61 60 59 61 62 64 64 66 70 72 72 74 74 73 71 65 66 68 77 74 73 72
31 34 36 35 36 36 34 33 32 29 24 22 30 28 42 46 52 53 55 57 61 62 62 62 60 61 62 62 64 64 69 72 73 73 74 74 72 70 69 69 78 73 69 70
28 29 24 25 33 35 31 26 24 25 21 18 23 23 48 50 53 54 56 57 57 58 62 62 62 60 62 63 64 65 69 72 73 72 72 73 74 74 72 73 66 71 67 67
20 22 24 22 25 30 29 24 20 24 18 16 23 31 47 50 52 56 57 58 60 60 59 62 63 62 62 63 65 67 69 71 72 72 73 74 74 71 70 70 65 67 66 67
21 19 19 21 22 24 28 26 22 19 20 16 25 45 47 48 50 54 55 58 59 62 58 59 62 62 62 63 65 67 69 72 72 71 73 73 74 73 70 71 71 68 71 67
23 21 19 20 21 23 26 26 21 21 23 21 22 38 43 48 50 52 54 56 59 61 63 59 62 63 63 63 64 67 70 72 72 71 71 71 73 73 73 71 72 71 71 72
20 22 20 22 23 24 23 23 25 21 22 19 23 35 49 50 52 51 52 54 57 59 60 62 62 67 65 64 64 65 67 69 70 70 71 72 72 71 72 70 71 72 73 74
24 19 20 20 22 23 24 26 28 23 27 23 24 43 52 51 52 52 52 52 53 56 58 59 61 63 66 67 65 65 66 66 67 69 70 71 72 73 70 71 70 71 73 74
22 21 18 19 18 23 22 24 24 25 24 28 20 42 51 50 50 52 51 52 52 53 54 56 57 57 59 62 66 68 66 65 65 68 68 70 71 71 72 71 72 71 71 72
25 22 22 16 22 23 21 17 21 22 22 24 26 46 48 49 49 50 51 52 52 52 52 52 53 56 57 59 60 63 67 68 66 66 67 69 70 71 70 73 73 72 72 72
24 24 24 21 19 18 18 16 15 21 27 26 37 44 47 47 48 49 50 51 50 51 52 53 51 53 55 58 60 59 61 64 68 69 69 69 71 72 71 72 72 72 72 72
26 26 24 20 17 16 16 20 19 19 26 32 44 44 46 46 46 46 47 48 49 48 48 49 50 52 53 55 57 59 60 61 64 67 70 71 72 72 72 72 72 73 72 73
25 25 24 18 18 16 12 18 21 24 31 34 40 44 45 44 44 45 44 44 44 45 45 46 45 46 50 53 56 57 58 59 61 62 65 68 70 71 72 72 72 72 72 72
24 27 22 18 20 11 26 29 27 29 33 38 43 45 45 45 45 45 45 44 43 43 44 44 43 43 44 46 52 57 57 59 59 60 61 63 66 66 69 72 73 74 72 72
30 25 20 17 12 19 23 31 31 30 34 37 40 42 42 41 41 44 44 42 42 42 42 43 43 43 45 45 46 50 56 58 58 58 58 60 62 63 64 67 70 71 74 73
28 31 26 22 17 14 25 29 33 33 27 38 39 40 39 38 34 41 42 38 38 38 39 40 41 40 42 46 45 47 49 55 58 58 58 60 60 62 62 64 66 69 70 72
31 31 27 25 22 19 31 34 35 26 33 38 39 39 37 34 35 36 35 37 37 38 39 40 41 41 43 44 46 48 48 50 55 57 59 60 59 60 62 64 66 65 67 70
34 33 36 30 27 23 34 34 31 40 41 39 37 35 33 33 34 35 36 37 38 39 39 39 40 41 43 44 46 48 49 51 54 54 57 60 60 57 56 61 64 64 65 66
35 34 38 30 31 36 35 37 40 37 38 35 34 33 34 33 34 36 37 38 37 38 39 39 40 42 43 45 47 47 50 51 51 52 54 57 60 59 59 58 58 62 64 65
34 35 32 31 29 33 35 37 37 34 33 34 34 34 35 35 35 36 36 36 38 38 39 39 40 41 43 45 46 48 48 50 50 50 52 54 56 57 58 55 53 53 55 58
36 36 35 33 33 34 37 37 38 37 35 34 34 34 35 35 36 35 36 38 39 40 40 40 41 42 43 45 46 46 47 48 48 48 49 52 51 54 55 56 55 55 56 55
37 41 41 36 31 35 32 37 38 39 38 36 35 35 36 37 36 37 38 39 39 40 41 41 42 42 43 44 45 47 48 48 48 47 46 46 47 50 51 52 52 50 51 50

GFSCGP_sfc_dewp_099.txt.gz
Dewpoint
23 20 20 25 26 28 33 34 33 40 46 50 55 57 59 61 60 60 58 55 54 55 57 56 56 57 57 61 64 67 68 72 70 68 66 69 71 72 72 69 72 72 72 72
20 18 19 23 27 30 35 32 32 42 47 54 55 51 60 58 58 59 60 60 59 59 57 57 59 59 57 60 64 67 70 72 71 67 71 74 70 70 75 70 72 73 71 72
21 17 20 25 27 33 36 32 32 34 45 41 39 47 52 54 55 59 60 61 60 60 58 57 59 59 59 60 64 67 71 73 72 74 74 71 73 71 69 69 69 71 71 70
22 18 22 29 32 33 30 31 30 32 34 36 43 44 54 51 58 59 61 62 61 61 61 56 58 59 59 60 63 67 70 73 72 73 74 74 68 67 72 73 68 70 71 73
21 19 25 31 32 30 28 33 32 29 29 39 41 42 52 49 51 58 59 61 62 61 59 56 56 60 59 60 61 65 70 73 73 74 75 71 74 68 70 73 74 73 74 71
22 23 30 31 32 31 34 32 34 31 26 26 40 39 45 53 50 55 58 60 61 60 61 59 61 61 59 59 61 63 70 74 74 74 73 74 70 74 70 73 70 69 68 70
28 27 31 32 32 34 34 32 27 26 23 21 33 38 50 50 53 56 57 58 59 61 61 60 61 61 62 59 60 63 71 74 73 72 73 73 73 72 72 71 69 72 68 68
24 27 28 33 32 31 32 27 22 25 18 16 21 37 46 50 55 56 57 59 60 60 61 61 62 61 63 61 61 63 71 74 73 73 74 76 75 70 68 71 67 69 71 68
22 21 24 25 28 27 30 26 21 18 18 14 30 45 46 49 52 55 56 58 59 62 61 61 63 64 63 62 63 65 70 74 73 72 75 76 76 75 70 72 72 68 70 73
25 23 22 23 25 25 26 26 21 20 24 19 32 41 41 49 50 53 54 56 58 61 62 60 61 65 65 65 63 65 68 72 72 72 72 72 73 74 74 71 72 73 72 70
21 23 22 22 25 23 24 25 25 21 20 20 25 40 48 51 51 52 53 54 56 58 60 63 65 67 68 69 69 64 66 69 71 72 72 74 72 73 74 72 71 72 74 72
23 20 21 20 23 24 24 24 24 23 26 22 22 45 50 50 51 53 53 52 54 56 58 60 63 63 62 63 67 70 69 67 69 72 73 72 72 73 72 72 71 72 74 74
22 17 21 21 19 21 23 24 24 22 21 29 21 47 51 50 52 52 52 52 52 53 54 56 59 60 61 61 62 67 68 68 69 71 69 71 71 72 72 72 72 72 74 73
33 17 22 19 22 20 21 22 23 22 23 24 27 47 49 49 51 52 52 52 52 53 53 53 54 57 59 61 61 61 64 66 68 70 69 72 73 73 72 72 73 73 74 74
24 23 21 21 18 18 20 18 16 21 24 23 41 46 48 50 50 51 52 52 52 52 52 52 52 54 57 61 61 61 61 62 65 70 72 72 74 72 72 73 73 73 74 73
27 25 26 21 17 16 16 15 16 16 19 26 44 46 49 50 51 51 50 50 50 49 49 49 50 52 54 57 58 60 61 62 62 64 66 70 72 73 74 72 74 74 73 75
29 25 27 22 18 17 16 18 17 19 19 25 41 46 49 48 48 49 49 48 48 48 48 47 47 48 49 52 56 58 60 60 62 62 62 64 67 68 72 73 73 73 75 75
27 30 26 19 24 18 18 23 14 17 22 30 45 46 47 47 46 46 47 46 45 45 45 45 44 45 46 47 48 53 57 60 61 62 61 60 63 65 66 68 73 74 75 74
25 27 20 17 18 19 25 27 25 25 29 34 43 45 45 45 45 46 45 45 45 44 44 44 43 41 45 47 47 49 50 56 59 59 60 60 60 62 63 65 67 69 73 73
24 28 26 23 17 16 25 25 26 27 24 33 40 43 44 43 41 44 44 40 40 40 41 41 41 41 42 45 44 48 48 50 54 58 60 61 61 60 61 62 63 65 67 70
27 28 23 22 23 22 31 31 31 27 30 36 37 39 40 39 41 42 39 38 38 39 39 40 41 41 44 45 46 48 49 50 52 54 55 58 61 62 60 61 62 63 63 66
31 31 32 28 25 21 32 32 27 41 40 37 37 39 38 38 37 36 37 38 37 38 38 38 40 42 43 45 47 48 49 52 53 54 54 55 57 58 59 61 61 62 64 65
35 32 36 30 33 39 34 37 41 39 40 38 38 35 35 33 33 35 37 38 37 38 39 39 40 42 43 45 48 48 51 52 52 52 53 54 56 56 59 61 61 58 61 60
33 34 34 32 31 35 34 36 39 38 38 35 34 34 33 32 34 36 37 38 37 38 39 40 41 41 43 46 47 49 50 51 51 51 51 51 52 55 55 53 55 55 54 54
35 35 36 34 32 34 35 36 37 36 35 34 33 33 33 34 34 36 37 38 38 39 40 41 42 42 43 45 47 47 49 50 49 49 49 49 48 50 52 54 52 54 58 53
34 39 39 35 34 34 35 38 38 38 37 34 33 34 34 34 34 35 37 39 39 40 42 42 43 43 43 44 45 47 48 49 49 48 46 44 43 44 45 47 50 49 49 48

GFSCGP_sfc_dewp_102.txt.gz
Dewpoint
28 21 19 21 25 32 33 35 39 41 53 53 53 57 58 60 62 55 52 52 52 54 56 55 55 57 60 64 67 70 73 75 74 73 73 75 73 75 74 74 75 74 76 75
22 17 18 19 24 25 27 34 37 50 53 54 54 54 57 60 60 59 54 53 55 57 55 56 56 57 60 65 68 70 73 75 75 73 74 74 71 74 75 74 75 75 75 76
21 16 17 16 19 22 25 30 36 54 48 50 52 53 53 59 59 62 58 55 56 59 58 55 57 57 59 64 67 70 74 74 75 76 75 72 73 76 75 73 74 74 75 74
20 19 15 17 19 24 27 35 40 47 45 45 50 48 51 57 60 62 61 61 58 58 60 55 57 57 58 63 66 71 74 74 74 73 76 76 75 71 75 74 74 74 74 75
17 19 16 19 22 26 30 31 33 31 34 44 44 42 51 56 56 60 62 60 60 59 59 57 57 58 59 62 64 69 73 75 76 77 76 76 71 66 72 71 77 76 77 74
21 19 19 22 28 30 30 31 32 31 27 34 41 39 50 54 58 55 59 59 60 60 59 59 58 59 59 60 63 68 72 75 75 76 75 76 72 70 72 72 76 75 74 75
21 20 20 25 28 31 27 31 30 28 25 23 38 38 51 56 57 60 59 61 62 63 60 59 59 60 60 61 62 68 72 74 75 75 75 75 75 71 71 74 73 73 73 73
19 23 22 28 30 29 30 31 28 27 23 21 37 44 50 55 58 60 59 60 62 65 68 63 61 63 63 62 63 68 72 74 74 74 76 77 76 75 72 73 73 70 72 71
22 23 27 29 31 34 29 29 27 23 22 18 42 50 52 53 55 56 56 58 60 62 63 67 64 62 62 65 64 68 72 74 74 74 75 77 77 77 74 77 77 73 72 71
27 27 27 25 27 28 29 28 25 26 26 24 42 45 47 51 53 54 55 56 58 60 62 64 66 66 70 71 71 70 73 74 75 74 76 75 76 77 77 78 76 78 74 73
24 28 24 24 23 24 26 25 26 23 23 22 38 46 49 51 52 53 54 55 56 58 60 62 64 66 68 69 67 69 70 73 74 75 75 75 75 75 77 75 76 76 78 73
25 22 25 21 21 21 21 24 25 25 29 26 43 46 52 51 52 53 53 53 54 57 59 61 62 63 64 67 68 67 67 69 71 72 74 74 76 76 75 75 75 76 77 78
28 22 22 21 20 23 24 24 22 22 23 31 33 45 52 52 52 53 53 53 53 55 57 58 60 62 63 64 65 67 66 67 70 73 73 74 75 74 76 76 76 76 77 77
36 19 24 25 26 21 21 22 23 22 23 23 42 48 49 50 51 52 53 53 53 53 54 56 57 59 62 62 62 63 65 66 68 70 71 73 75 75 75 77 76 77 77 76
22 23 21 22 23 18 20 17 20 22 25 30 46 47 50 50 52 52 53 53 52 52 52 54 54 57 59 61 61 61 62 63 65 67 67 68 70 74 75 76 75 75 76 75
26 26 24 23 18 18 17 18 17 16 17 42 44 47 51 52 52 52 51 50 50 49 49 50 52 55 56 58 60 60 61 62 62 63 63 66 68 68 69 72 74 75 75 76
28 28 26 22 20 17 16 17 17 17 19 26 43 47 50 50 50 51 51 49 49 49 48 48 48 50 52 54 58 60 61 62 61 62 62 63 66 67 67 68 69 73 74 75
28 32 29 23 25 17 18 22 18 16 18 28 43 48 49 49 50 50 50 48 47 47 46 46 44 46 47 47 50 56 58 64 63 63 62 62 63 63 64 66 66 68 70 74
22 28 23 21 18 19 19 25 20 17 17 40 46 47 47 47 46 46 47 47 47 46 46 44 43 43 48 47 50 53 55 57 60 61 62 63 64 63 62 64 65 65 67 69
23 27 26 23 17 16 29 25 23 22 22 31 45 46 46 46 43 45 46 44 42 42 43 42 41 41 44 46 46 51 51 55 56 57 58 59 62 64 63 62 64 66 66 67
25 26 22 22 24 24 29 29 26 22 31 34 43 46 46 46 45 45 42 41 40 40 40 41 42 43 46 47 48 50 52 52 54 55 57 59 59 61 64 63 65 64 63 64
30 28 28 25 22 21 33 31 29 41 39 36 37 47 44 43 42 40 41 40 39 39 38 39 42 44 44 47 51 51 53 55 55 56 55 57 59 57 55 62 65 65 65 63
33 33 34 33 33 39 35 39 40 39 41 41 42 39 40 37 37 38 39 39 38 39 40 39 41 43 46 49 52 49 55 55 55 55 55 56 57 57 58 60 62 62 64 62
32 33 33 34 37 36 36 37 38 38 39 38 38 36 36 34 35 36 37 38 38 38 39 40 41 42 45 49 50 53 53 53 53 53 53 54 54 54 56 54 54 55 56 58
33 36 34 34 36 34 33 34 36 36 37 36 35 34 34 33 34 36 37 39 38 40 40 42 43 43 44 46 48 47 51 52 50 51 51 52 50 52 52 53 52 53 56 55
37 36 41 36 36 37 36 36 36 36 35 35 34 33 33 34 35 36 36 38 39 41 42 43 44 44 44 45 46 48 48 50 50 48 48 48 48 48 48 48 49 49 48 47

GFSCGP_sfc_dewp_105.txt.gz
Dewpoint
27 24 23 22 24 25 29 36 44 49 55 56 56 57 55 61 63 63 55 51 51 52 55 57 58 61 64 65 64 69 68 71 69 70 71 72 71 72 71 70 73 72 73 72
27 25 24 21 21 23 24 30 51 57 58 56 57 57 58 60 62 63 60 52 53 54 55 55 57 61 63 65 66 70 71 71 69 71 72 72 70 72 72 73 72 73 73 72
24 23 23 17 17 18 23 24 49 52 54 59 54 54 56 59 61 62 61 60 54 55 54 54 55 61 63 65 68 70 71 71 72 71 70 70 70 72 72 71 72 73 72 72
20 23 19 15 16 16 19 34 51 51 50 49 52 46 53 55 57 59 60 63 58 57 54 54 55 60 62 65 67 71 71 70 72 72 70 65 69 68 70 71 72 72 72 72
20 17 19 14 16 17 21 48 50 48 48 48 48 47 51 55 54 57 60 60 60 58 57 58 56 58 62 64 66 71 71 71 71 72 72 71 67 66 69 71 71 72 72 73
19 18 18 19 17 19 27 28 42 49 51 47 47 45 51 54 55 57 58 58 62 59 59 58 57 56 61 63 66 69 71 72 72 71 71 70 62 62 68 69 71 71 72 71
22 16 20 19 22 27 29 27 30 33 44 39 44 44 49 56 55 57 57 58 64 63 58 59 59 57 60 62 65 67 72 72 72 72 71 70 68 69 70 69 70 71 71 71
22 18 20 23 24 26 31 26 32 34 28 25 37 47 53 56 60 61 62 64 64 65 65 65 65 63 62 61 65 67 70 72 72 72 72 71 70 69 65 68 71 70 71 70
28 21 23 25 27 33 31 30 29 33 28 26 48 53 55 56 57 58 60 62 62 63 65 67 67 68 65 65 65 67 69 71 73 72 73 72 72 70 69 68 71 70 71 72
33 26 28 28 30 31 31 30 26 28 26 26 46 48 50 53 54 55 56 58 61 63 64 65 67 68 69 69 69 69 69 69 71 72 73 73 73 73 73 73 72 71 72 71
30 30 30 27 28 28 28 27 30 27 29 24 41 46 55 53 53 53 54 56 58 61 64 64 64 65 67 68 67 68 67 65 65 66 69 72 73 73 73 73 72 71 71 71
30 27 30 27 25 23 24 24 27 28 26 35 44 47 57 55 53 53 53 54 57 60 62 63 64 64 65 66 66 66 68 66 65 66 69 72 72 73 73 73 73 72 71 71
28 29 26 27 30 22 22 24 24 22 23 26 31 47 57 55 54 53 52 53 56 57 59 60 61 62 63 64 66 67 66 65 67 69 69 71 72 73 73 73 73 73 72 71
41 22 30 28 29 29 23 22 23 28 23 42 47 49 51 51 52 53 52 52 53 55 56 58 59 59 60 62 63 64 65 66 67 68 68 68 68 71 72 73 74 74 73 73
25 28 26 24 26 25 19 18 21 23 33 37 47 47 50 51 51 52 53 52 52 53 54 55 58 59 58 58 60 61 63 64 65 65 66 67 68 68 69 71 72 72 73 73
29 27 27 26 22 20 18 18 19 20 44 47 48 49 51 52 52 52 51 50 49 48 48 54 54 54 59 58 58 59 60 61 62 63 64 66 67 67 68 68 68 72 72 72
30 32 31 24 28 24 19 19 19 19 20 46 46 49 51 51 51 51 50 48 48 48 48 48 49 50 51 53 58 59 60 60 61 61 62 64 65 65 66 67 67 68 68 71
30 31 32 28 27 22 22 26 23 19 20 45 49 50 51 51 51 50 50 48 47 47 46 44 45 46 47 49 51 55 58 61 61 61 62 61 61 62 64 65 66 66 67 68
27 28 28 24 24 25 25 26 22 24 43 48 49 50 50 50 49 49 48 48 47 46 44 43 46 47 47 48 49 52 54 56 56 56 56 57 58 62 60 60 63 64 66 67
27 29 28 29 24 22 30 27 27 27 42 49 49 49 48 46 44 45 46 44 43 42 42 42 44 45 46 46 49 50 52 52 53 54 55 56 57 58 57 60 60 61 62 64
27 28 25 24 26 31 34 30 29 25 36 45 48 47 47 45 46 46 42 42 42 41 41 44 45 45 47 49 50 50 51 51 52 53 53 55 55 55 55 57 61 62 61 61
34 30 29 27 26 29 38 37 38 40 47 48 49 46 43 40 40 40 40 41 41 40 40 44 44 44 48 49 48 49 50 52 53 53 52 53 54 54 53 55 56 59 62 62
30 37 36 36 37 40 41 41 41 44 44 47 45 44 46 41 39 40 40 40 40 40 41 42 42 45 48 49 50 49 49 50 50 50 50 51 53 53 54 55 54 53 57 60
34 37 34 37 42 39 39 41 40 42 42 41 44 45 43 41 42 42 40 40 40 41 41 43 43 44 45 47 47 47 49 49 49 49 49 49 49 49 50 52 53 53 53 54
39 38 34 34 36 37 39 40 39 37 40 37 38 36 35 38 38 39 41 39 41 41 44 42 44 46 46 46 46 47 47 48 48 48 48 48 49 48 48 48 50 50 50 51
44 40 42 37 42 38 39 41 40 38 37 38 36 35 35 34 37 39 41 41 43 43 42 44 44 44 43 43 45 46 46 46 47 47 48 49 49 48 48 48 48 47 46 45

GFSCGP_sfc_dewp_108.txt.gz
Dewpoint
30 24 22 23 24 24 25 33 49 54 57 56 56 56 60 62 61 58 61 61 54 56 57 59 62 63 63 63 66 66 67 69 70 70 69 69 69 70 70 70 72 71 72 70
27 24 25 25 24 23 23 27 48 56 56 57 56 56 58 61 60 60 61 60 53 57 58 59 63 62 62 63 67 68 69 68 68 71 71 71 71 71 70 70 72 72 72 70
26 26 27 26 23 20 18 25 50 53 56 57 55 54 56 60 60 62 63 62 61 56 56 58 61 63 62 65 68 69 69 67 69 70 71 70 70 71 71 71 71 72 71 71
24 26 25 24 22 17 15 21 47 51 50 46 54 46 53 56 58 61 62 62 62 55 55 58 60 62 62 66 67 69 69 70 71 70 68 67 69 68 69 70 71 71 71 71
21 21 20 20 20 17 17 50 51 49 50 48 50 47 47 55 56 58 61 61 62 60 54 56 60 62 62 66 68 68 69 69 71 71 69 68 67 68 69 70 71 71 71 71
25 26 19 18 19 17 47 49 49 51 49 44 47 47 50 52 54 57 60 61 62 61 62 58 61 62 62 65 68 68 68 69 70 71 71 69 64 66 67 69 70 71 71 71
28 29 21 18 18 23 31 40 35 40 40 38 46 48 49 54 56 57 59 61 62 61 62 63 61 61 62 64 67 69 69 69 71 70 71 68 64 65 68 68 70 70 70 71
24 24 20 21 20 20 27 28 33 32 34 38 41 45 52 55 58 58 59 63 63 64 66 67 65 62 63 64 66 69 69 70 71 70 71 69 68 70 69 69 70 70 70 70
26 26 27 27 25 25 26 30 31 35 31 37 49 53 56 57 57 60 60 62 63 64 66 66 68 68 65 65 66 68 70 70 70 71 71 70 70 68 65 67 70 71 70 70
31 24 27 29 29 31 31 30 25 27 26 28 45 49 50 54 56 58 58 60 62 64 66 66 68 68 68 68 69 70 70 68 67 68 69 71 70 70 68 68 69 70 70 71
35 28 26 30 27 28 28 28 27 26 27 25 39 46 56 55 55 55 56 59 61 63 63 65 66 67 67 68 68 67 66 64 64 66 67 69 71 72 72 71 71 71 70 69
31 28 28 28 30 26 27 27 29 26 24 38 43 48 55 55 55 54 55 56 61 62 63 63 64 65 66 67 67 67 66 66 66 68 68 69 71 72 72 72 71 71 70 69
29 24 28 27 26 27 21 25 28 25 28 39 40 47 56 54 53 54 55 58 59 60 61 62 63 63 65 65 66 66 67 67 68 69 68 69 69 71 72 71 72 71 70 70
37 26 31 28 28 29 26 21 24 24 32 42 45 50 53 53 52 52 54 57 58 59 59 58 60 61 63 65 65 65 66 67 68 67 68 68 68 69 70 71 71 72 71 69
29 27 29 30 26 23 24 18 18 24 34 32 48 48 51 52 52 52 53 55 56 57 58 57 56 58 59 61 61 63 63 65 65 65 66 67 67 68 68 68 68 71 72 72
26 27 31 28 26 26 20 19 26 44 47 48 49 49 51 52 52 52 51 53 53 54 55 57 58 57 57 58 58 60 61 61 62 64 65 66 66 66 67 67 68 68 69 71
30 29 28 26 27 24 19 21 19 31 48 49 47 49 51 51 51 51 50 48 48 52 50 49 50 50 51 57 58 58 60 60 61 60 60 62 64 63 64 66 66 67 67 68
28 29 30 29 26 19 22 25 23 35 48 49 50 51 51 51 51 50 49 47 47 45 46 46 47 47 48 50 54 60 59 57 56 56 57 58 61 62 63 64 64 65 67 67
25 27 26 23 29 24 26 26 26 43 47 51 51 51 51 51 49 47 45 44 43 43 45 46 45 45 46 49 52 53 53 53 53 53 54 55 56 57 59 61 63 64 64 65
25 27 25 26 24 21 31 29 33 39 41 51 52 51 50 48 45 45 44 41 41 43 44 44 45 45 47 49 51 50 50 50 51 52 53 54 54 54 55 55 59 62 61 62
24 24 21 24 24 30 34 39 39 27 33 50 51 51 49 47 46 44 41 40 40 43 44 44 46 46 47 49 49 49 49 50 51 51 52 52 52 52 52 53 55 56 58 61
32 23 24 24 24 26 39 38 37 41 48 49 50 47 47 45 41 40 39 38 40 43 43 43 45 47 48 49 49 48 48 49 49 49 49 50 50 52 52 52 53 53 53 56
27 33 34 34 35 39 39 41 45 47 47 48 46 46 45 44 42 41 39 39 40 41 42 44 45 46 47 47 47 47 47 48 48 48 48 48 49 49 49 49 50 50 51 52
36 35 37 37 39 39 38 39 41 44 46 46 45 47 46 44 44 43 42 40 40 40 42 43 44 45 45 45 46 46 46 47 47 46 47 48 48 48 48 48 49 49 48 48
41 39 34 34 37 37 38 38 37 39 40 41 44 43 42 42 42 40 40 39 41 42 42 44 44 44 44 44 46 46 45 45 45 46 47 47 48 48 48 48 47 47 47 48
40 37 36 36 41 38 38 38 40 35 37 37 35 34 38 39 40 40 38 41 41 42 44 43 43 42 42 43 44 44 44 45 44 43 44 45 45 46 47 47 47 46 45 44

GFSCGP_sfc_dewp_111.txt.gz
Dewpoint
32 24 23 25 25 25 25 25 42 56 56 57 56 56 59 61 59 60 60 60 58 60 62 64 65 67 66 67 67 68 68 69 69 68 67 67 67 68 70 70 71 71 72 70
28 24 25 25 25 24 23 24 51 56 57 57 57 56 59 61 61 61 60 61 57 59 62 64 64 65 65 65 67 67 68 69 69 70 70 69 69 70 70 70 71 71 71 69
27 27 27 25 26 24 20 20 37 53 56 56 56 55 57 59 61 60 61 62 61 57 59 62 63 63 63 64 66 67 68 68 69 70 70 70 70 70 70 69 70 71 71 70
26 28 27 25 25 22 19 20 30 54 51 47 54 46 54 57 58 58 59 61 61 59 60 61 62 62 62 64 66 67 68 67 69 70 69 68 68 67 69 69 70 71 71 72
21 22 23 24 23 20 20 30 26 51 48 48 50 47 46 56 56 57 58 58 62 60 59 61 61 62 62 65 66 68 68 69 70 70 68 68 68 68 69 70 70 70 71 71
25 26 24 22 20 20 49 49 49 49 47 41 47 46 48 53 55 56 57 60 63 61 61 60 61 61 61 66 67 68 68 69 70 70 68 68 67 67 68 68 69 70 70 71
27 28 27 22 20 28 48 42 40 40 39 39 45 48 48 53 56 58 58 61 63 63 62 65 61 61 62 66 66 67 68 68 70 70 69 68 66 67 68 68 69 69 69 70
24 23 22 21 19 18 45 36 35 32 36 37 47 44 50 56 58 59 61 60 63 64 64 65 64 63 62 65 67 67 67 67 69 69 70 69 66 66 68 69 69 70 70 70
24 26 29 24 24 25 28 30 32 34 34 36 45 52 55 57 58 59 61 62 63 64 65 65 66 66 64 65 67 68 68 68 70 69 70 68 67 68 68 69 69 70 70 70
28 25 27 29 30 31 27 30 27 28 28 28 43 46 50 54 55 57 58 60 61 63 66 66 67 68 68 66 67 70 70 69 68 70 70 70 69 69 66 68 68 70 70 69
34 28 26 29 27 28 29 27 27 26 27 30 37 44 55 55 56 56 58 59 61 63 64 66 67 68 68 68 68 68 66 66 66 67 68 68 69 71 69 68 68 69 70 70
30 28 27 27 29 29 28 30 27 26 25 41 41 46 56 56 56 56 57 60 62 63 63 65 66 67 67 67 66 66 65 65 67 67 68 68 68 69 70 71 72 71 70 70
27 24 27 26 30 27 25 22 29 25 33 39 38 46 55 55 55 56 57 60 61 61 61 62 64 65 66 66 65 66 67 67 67 68 68 67 68 69 70 71 72 71 70 69
35 27 30 28 23 25 25 27 21 25 34 42 45 50 53 52 53 55 57 59 59 59 60 61 62 63 65 65 64 65 67 68 67 67 67 67 67 69 69 70 70 71 70 69
28 25 28 36 31 26 25 22 23 22 30 32 46 49 52 52 52 55 57 58 57 57 57 58 59 61 62 63 64 65 66 66 67 66 67 67 67 68 68 68 68 69 70 71
27 27 30 31 37 25 21 23 25 45 48 48 48 48 52 52 53 55 56 56 56 56 56 56 57 57 58 61 62 63 63 64 65 65 65 65 65 67 67 67 67 67 68 68
30 27 28 26 33 27 25 23 23 43 48 48 46 49 52 51 52 53 54 54 55 54 54 49 49 52 58 59 61 60 60 60 60 59 60 61 63 63 65 65 65 66 66 68
28 29 29 27 29 25 26 26 32 47 49 49 50 51 52 51 52 51 52 52 50 49 47 47 48 51 55 58 57 57 55 53 53 53 54 55 57 60 62 63 62 63 64 64
27 27 26 25 27 28 29 28 27 36 47 51 51 52 51 51 50 48 48 47 47 46 46 46 47 50 52 52 51 50 50 50 51 52 52 53 54 55 56 58 61 62 63 63
25 26 24 26 22 24 33 30 37 41 38 50 52 51 50 48 45 45 44 45 45 45 45 45 48 49 49 49 49 49 49 49 49 50 51 51 52 53 54 54 55 59 61 62
22 24 19 23 23 29 35 37 39 30 30 52 53 52 50 47 46 42 43 44 44 44 44 46 47 48 48 49 47 47 47 47 48 49 49 49 49 50 51 51 52 52 53 55
25 22 22 23 22 25 38 39 32 38 45 50 53 52 49 48 43 40 41 43 43 43 45 46 46 48 48 47 46 46 46 47 48 48 48 48 49 49 49 49 49 50 50 50
29 32 33 30 32 38 39 44 46 47 47 50 49 50 48 47 45 41 41 42 42 43 45 46 46 45 46 46 46 45 46 47 46 47 47 48 48 48 48 47 47 48 47 47
36 35 37 36 38 39 38 40 44 45 46 49 49 48 48 47 46 47 45 44 43 43 44 45 44 44 44 45 45 45 46 46 46 45 45 47 46 47 48 47 47 47 46 45
39 38 33 34 38 37 37 38 43 45 45 46 47 47 47 47 45 43 43 42 41 43 44 44 43 43 44 44 44 44 44 44 43 43 44 44 45 45 45 46 46 46 46 45
38 36 35 36 38 36 37 41 40 43 43 43 42 42 43 42 41 40 40 41 42 44 45 43 43 42 43 44 43 43 43 43 41 41 42 42 43 43 44 44 44 45 45 44

GFSCGP_sfc_dewp_114.txt.gz
Dewpoint
32 27 28 25 25 26 24 24 33 56 57 57 56 56 58 60 59 59 60 58 59 60 63 65 66 67 68 68 68 67 67 67 69 68 66 67 68 69 71 72 72 72 72 72
27 24 25 26 26 24 25 24 49 56 58 56 57 56 59 60 59 58 60 62 58 60 62 64 65 67 67 67 68 68 68 68 69 69 69 69 69 70 71 71 72 72 72 71
28 28 26 25 24 23 22 20 48 52 56 57 56 55 57 60 61 60 62 62 63 61 62 63 64 66 66 66 67 68 68 69 69 70 70 70 71 71 71 71 72 72 72 71
27 29 27 26 25 24 21 21 35 54 49 46 53 45 54 58 59 60 60 61 63 63 62 63 63 65 64 66 67 68 68 69 69 71 70 69 69 69 70 69 71 72 72 72
25 22 26 26 25 23 22 36 35 52 47 46 47 43 46 57 56 58 58 60 63 61 60 61 63 64 64 65 66 68 68 68 70 71 70 69 69 70 70 71 71 72 72 72
25 27 24 24 24 23 49 47 48 47 46 39 43 42 45 53 55 58 58 59 62 63 61 62 64 64 63 64 66 68 68 68 69 70 69 69 68 69 70 70 70 71 72 72
26 26 28 25 22 35 47 44 39 38 39 39 42 46 45 54 56 58 58 58 60 64 63 62 62 62 62 65 67 68 68 68 70 70 69 69 69 69 69 70 70 70 71 72
24 22 26 22 24 25 43 39 37 32 35 36 47 43 47 57 58 58 58 57 60 64 64 63 64 63 63 66 67 68 68 68 70 70 70 69 68 69 70 70 71 71 71 72
26 24 28 25 21 32 39 38 36 34 34 39 44 50 55 57 59 59 58 59 61 63 64 64 65 67 64 65 67 68 68 68 69 70 71 69 68 67 69 70 71 71 72 71
27 25 27 28 30 31 32 34 29 30 28 27 43 45 46 54 56 59 60 60 61 63 64 65 66 68 67 66 67 69 69 68 70 70 71 70 69 69 70 70 70 71 72 72
30 28 26 28 28 29 28 28 27 28 30 31 36 41 54 54 56 56 58 60 61 63 64 64 66 68 68 68 69 70 69 68 69 70 70 70 71 71 70 69 69 70 72 71
30 28 26 27 29 30 27 30 27 27 28 38 38 41 55 57 56 56 58 60 61 62 63 65 66 67 67 67 67 66 66 67 67 68 68 68 69 70 71 71 70 70 71 71
24 26 25 25 28 26 25 27 27 26 38 39 32 38 55 57 56 58 58 59 61 61 63 64 65 66 66 66 66 65 67 67 67 68 68 68 68 69 70 71 72 72 72 71
35 29 27 27 24 25 24 25 25 26 31 38 38 47 53 54 54 57 59 60 60 60 61 62 64 65 66 65 66 67 67 67 67 67 67 66 67 68 69 71 72 72 72 71
26 27 32 32 29 28 26 23 26 23 28 30 40 46 51 53 54 57 59 58 58 58 59 60 61 63 64 64 65 66 66 65 66 67 67 66 67 68 68 69 69 70 71 72
27 28 32 30 33 29 22 24 30 47 48 47 48 46 53 53 55 57 58 57 56 56 56 57 59 61 63 64 64 64 63 63 65 64 63 64 65 66 67 67 67 68 69 69
28 28 28 26 30 27 26 25 27 37 48 48 45 47 53 52 55 56 57 57 56 56 52 54 58 60 61 61 62 61 62 62 60 59 59 60 63 63 64 64 66 67 67 67
28 29 29 27 32 26 28 29 46 49 50 50 50 52 52 53 54 55 56 55 53 51 53 54 57 58 57 57 57 57 58 57 54 54 54 56 57 58 61 63 63 63 64 64
28 28 26 24 27 27 28 29 31 37 44 51 51 52 52 52 52 51 54 52 49 48 49 52 54 54 53 53 54 54 56 55 52 51 53 54 55 55 56 57 60 61 63 64
24 25 25 26 23 20 29 34 39 44 32 52 52 52 52 51 48 49 49 50 47 46 49 51 51 50 52 53 51 50 49 49 50 50 51 51 53 53 54 54 56 57 60 62
22 25 19 26 23 27 34 39 40 27 29 51 53 53 52 50 49 47 49 47 47 47 48 49 49 49 48 47 47 46 47 47 48 49 50 50 51 51 52 53 53 53 54 55
22 22 22 23 22 23 39 39 32 35 47 53 53 53 51 49 46 48 46 45 45 46 47 48 48 47 47 47 46 46 46 47 49 49 49 49 50 49 48 50 50 50 51 51
29 29 31 26 27 35 39 42 46 47 48 51 51 50 49 46 46 48 46 44 45 46 47 48 46 46 46 47 46 46 47 47 47 47 47 48 49 48 49 48 49 47 48 47
35 36 36 36 38 39 38 42 45 46 48 50 51 50 49 48 47 47 47 45 45 45 46 45 45 45 45 46 46 46 47 47 45 45 46 46 46 46 46 46 47 46 46 46
37 37 34 34 37 38 39 40 43 47 49 49 50 50 49 48 45 47 47 46 45 45 45 45 44 44 44 45 44 45 45 45 44 44 44 44 44 45 44 45 45 45 46 45
38 36 35 36 38 36 37 41 43 46 47 47 47 47 47 47 45 48 49 46 44 45 46 45 44 45 44 44 44 45 44 44 43 43 42 43 43 43 42 42 42 44 43 43

GFSCGP_sfc_dewp_117.txt.gz
Dewpoint
33 38 39 35 28 28 30 26 39 54 57 56 55 56 58 61 61 61 61 59 60 60 63 64 65 66 68 69 70 71 71 70 68 69 68 69 69 71 71 73 73 74 74 74
34 38 35 28 26 26 25 25 52 56 58 56 56 55 58 60 60 60 61 60 60 60 62 64 66 66 67 69 70 71 71 71 69 68 69 69 71 70 71 72 73 73 73 73
37 35 27 27 25 25 24 24 49 50 56 56 55 56 57 59 60 60 62 62 61 60 61 63 65 66 67 68 69 70 71 70 70 71 70 71 71 73 71 71 72 72 73 72
35 28 25 25 24 25 25 23 40 53 49 45 54 45 55 57 58 59 61 62 61 62 62 62 63 65 66 68 69 70 71 70 71 73 71 72 68 69 73 73 73 74 74 73
28 27 27 27 26 26 26 29 32 45 49 46 50 44 48 56 57 58 59 61 62 62 61 62 63 65 65 67 68 69 71 72 72 73 72 70 73 74 70 72 74 75 75 74
26 26 25 25 26 26 47 42 46 49 48 37 41 42 46 54 56 58 59 59 62 62 61 62 63 65 65 66 67 68 70 72 72 73 73 73 73 74 74 72 70 73 71 72
27 26 27 26 25 33 48 40 41 42 41 35 44 45 43 53 55 58 59 59 60 63 62 61 63 64 65 65 67 67 70 71 72 72 73 72 72 73 73 73 75 75 70 73
21 16 25 27 27 26 41 35 27 29 33 32 48 43 45 55 57 58 60 60 61 62 63 63 62 63 64 65 67 68 70 71 71 72 73 73 73 71 71 72 70 70 71 77
26 25 28 27 24 30 37 36 33 35 38 36 44 47 53 56 57 57 59 60 60 62 63 63 63 63 64 65 67 68 70 71 71 71 74 74 73 72 71 73 73 72 74 75
28 25 27 28 29 30 35 34 27 33 34 30 43 45 45 53 55 57 58 58 59 62 63 64 65 66 66 67 67 69 70 71 71 72 73 74 72 72 71 72 73 74 74 74
29 29 28 30 30 29 29 30 31 30 32 27 34 42 55 54 56 58 57 57 59 61 63 64 65 67 67 68 68 70 71 71 71 72 74 74 73 72 72 72 73 73 74 74
29 28 27 27 30 29 28 29 31 28 33 37 36 38 55 56 56 58 59 60 60 60 63 64 65 67 67 68 69 71 71 71 71 71 73 73 73 74 73 72 71 72 73 74
29 28 22 25 26 27 26 26 25 29 39 39 28 35 56 57 56 57 58 60 62 63 64 65 66 67 68 67 67 68 69 70 71 72 71 71 71 71 72 73 74 73 74 74
39 30 29 18 27 27 25 25 26 24 30 34 34 44 54 55 56 57 59 60 61 61 62 63 65 66 67 67 68 68 68 69 69 69 68 69 69 70 70 72 74 74 75 74
30 31 31 29 27 25 25 27 38 29 28 32 37 44 49 55 56 57 60 60 60 60 61 62 63 65 66 66 67 67 67 67 68 68 68 68 69 69 70 71 72 74 75 74
31 33 32 30 31 32 24 26 34 40 41 41 42 44 52 56 57 58 58 58 59 59 60 60 62 63 65 65 66 65 65 65 66 65 67 67 68 68 68 69 70 71 72 73
33 32 31 27 31 31 26 27 30 42 47 47 42 48 54 55 56 57 57 58 58 58 58 60 61 62 64 64 64 63 62 61 61 60 63 63 65 66 67 67 67 68 69 72
34 35 33 26 31 27 29 36 39 43 48 49 49 51 54 55 56 58 59 58 56 56 58 58 58 58 58 58 59 58 57 58 57 57 59 60 62 63 64 65 66 66 67 68
34 34 29 26 23 28 29 32 33 31 31 45 50 53 54 56 56 57 57 55 55 56 57 56 56 56 56 56 57 57 57 55 54 55 56 57 59 59 58 59 61 65 65 66
29 35 27 30 22 19 31 34 38 41 31 50 53 53 54 55 51 51 51 51 52 54 54 54 54 55 54 54 54 54 54 54 53 53 54 55 55 56 56 56 57 59 62 63
28 30 24 27 25 25 34 40 40 31 34 50 54 54 54 54 53 53 51 51 52 54 53 52 53 51 51 51 50 49 50 51 50 54 54 53 53 54 54 55 56 57 57 59
28 28 28 27 25 20 41 40 34 44 47 52 55 55 55 52 54 53 51 49 50 50 50 49 48 48 48 48 48 48 48 50 51 52 51 51 52 50 51 54 53 55 55 56
35 33 33 30 30 41 42 45 49 49 50 54 56 54 52 52 52 52 51 49 49 49 49 47 47 47 47 48 48 46 49 50 49 50 50 50 51 50 51 51 51 49 52 50
38 39 41 40 42 41 42 45 49 50 50 52 55 52 52 51 51 50 49 48 49 49 48 48 47 46 47 48 49 49 49 50 49 49 48 48 48 48 48 46 46 46 47 47
41 40 39 38 40 41 40 43 45 51 52 53 52 51 51 51 50 49 49 49 48 48 48 47 47 47 47 47 48 47 48 48 47 46 46 45 45 45 45 45 44 45 46 45
42 42 42 42 42 42 42 44 45 48 51 52 51 50 50 50 48 49 50 51 49 48 47 47 47 47 46 46 46 47 47 47 46 45 43 42 41 41 41 41 41 43 44 42

GFSCGP_sfc_dewp_120.txt.gz
Dewpoint
27 32 36 37 35 33 41 39 42 50 55 55 55 55 57 61 61 60 60 60 57 58 60 62 63 64 65 67 68 70 70 72 69 68 67 66 66 68 68 68 71 73 71 73
30 32 35 40 32 30 36 35 43 52 56 55 54 54 58 60 59 58 60 57 57 58 60 63 64 64 65 67 69 70 71 73 70 68 69 68 68 66 67 68 71 71 72 72
19 26 38 33 30 31 30 31 44 45 54 53 53 55 57 60 61 58 61 60 59 60 59 62 64 64 65 67 68 70 72 72 72 71 70 71 73 75 72 69 69 70 71 71
24 31 34 34 32 32 32 27 42 48 46 46 52 49 55 57 58 57 58 62 60 59 60 59 62 63 64 66 68 70 72 73 71 72 70 71 66 69 71 75 70 69 71 71
30 31 30 29 29 30 31 26 30 37 35 38 45 39 47 55 56 58 59 60 61 60 58 59 60 63 64 66 66 67 71 72 71 73 73 69 70 67 67 68 72 72 74 73
28 31 28 28 29 28 31 28 33 37 32 30 33 37 46 51 54 57 59 59 60 60 58 60 61 63 64 65 66 66 70 73 73 73 73 74 72 70 68 69 68 68 68 70
27 26 27 26 24 25 33 31 31 30 31 27 35 37 37 50 53 56 58 59 60 61 58 59 61 62 64 65 66 66 70 72 73 72 72 72 73 72 72 72 69 70 68 66
22 22 23 25 24 24 32 32 27 30 26 27 41 36 40 49 53 56 58 59 60 62 61 60 62 63 65 65 67 67 70 71 72 72 73 73 73 73 75 72 67 67 66 69
19 17 20 21 22 24 26 28 28 26 27 27 37 39 52 53 54 55 57 59 59 62 62 59 59 62 63 65 67 68 69 72 72 71 73 74 73 74 76 74 72 70 71 68
25 22 22 21 26 24 26 28 23 26 30 28 33 36 37 52 52 55 56 58 60 62 62 61 61 63 64 64 66 68 70 71 71 70 71 71 71 73 74 76 74 74 73 71
26 26 27 29 26 21 23 25 26 21 23 24 25 32 49 50 53 55 56 58 59 61 62 61 63 65 65 66 67 67 69 70 70 71 71 72 71 71 73 71 73 75 74 73
30 25 25 23 28 28 27 22 24 23 29 29 28 38 53 54 54 56 57 58 59 60 62 65 64 65 67 67 67 69 70 69 70 70 71 70 71 71 70 73 73 73 76 76
30 24 24 25 24 27 26 26 24 24 23 30 23 24 54 55 55 57 58 58 59 61 62 63 65 66 67 68 69 69 70 70 70 71 70 70 70 71 71 71 71 72 73 75
33 26 27 19 26 26 27 25 25 21 21 23 25 31 51 53 55 58 59 60 61 62 63 63 65 66 67 68 69 70 71 71 71 70 70 71 71 72 71 73 73 75 74 75
28 29 30 25 23 22 25 25 27 28 25 25 25 29 33 52 55 58 60 61 61 62 62 63 64 65 67 68 69 69 70 71 71 70 70 71 71 72 72 72 73 74 73 71
26 29 30 27 26 26 23 24 28 30 31 33 31 35 50 54 57 58 59 60 60 61 61 62 63 65 65 67 68 68 68 68 70 69 69 70 70 70 70 71 71 73 73 73
28 27 30 26 28 27 25 25 28 33 40 40 36 48 51 55 56 58 59 60 59 60 61 62 63 65 66 66 64 62 62 65 65 66 68 69 69 69 70 70 71 70 71 73
30 32 27 24 30 26 29 33 33 33 40 45 44 47 50 54 58 59 59 59 59 59 60 60 60 60 61 64 63 63 61 61 61 61 62 65 66 67 68 69 69 70 70 71
35 33 26 23 21 24 27 32 33 33 32 36 37 48 53 57 58 58 59 59 59 59 59 57 57 57 58 60 62 61 61 59 59 58 59 61 62 62 63 64 66 68 68 69
30 35 30 28 24 21 33 33 36 36 30 41 46 50 54 57 53 56 57 58 59 58 57 56 55 55 55 56 58 57 56 57 55 57 57 58 60 60 60 60 64 65 66 64
26 30 26 26 27 24 35 36 36 32 38 46 51 52 55 54 55 58 57 57 59 57 56 55 53 52 53 54 54 53 54 53 53 54 55 57 58 59 59 62 63 61 62 65
27 26 24 24 25 23 40 38 35 46 46 46 52 54 56 56 56 55 55 56 54 54 52 51 50 52 51 52 51 52 52 54 54 54 53 55 55 54 55 58 59 60 61 61
34 30 31 26 31 44 43 45 48 49 51 51 53 55 56 55 55 54 54 53 53 54 52 49 48 50 51 52 52 50 52 54 53 53 52 52 53 53 53 54 54 52 56 54
38 40 34 36 39 40 42 46 47 52 52 52 55 55 55 55 55 55 55 53 50 49 48 49 47 47 49 49 50 52 52 52 52 52 51 51 51 51 50 47 48 48 48 49
38 41 38 37 42 42 42 44 47 50 53 53 54 54 55 55 54 54 53 52 50 49 49 48 47 47 47 50 49 48 50 50 49 48 48 48 47 48 47 46 46 45 45 45
39 39 37 33 43 43 45 45 46 46 50 52 52 53 54 54 53 53 52 52 50 50 49 50 50 49 47 47 48 49 49 50 48 47 44 42 41 42 42 42 43 43 43 42

GFSCGP_sfc_dewp_123.txt.gz
Dewpoint
19 22 35 38 39 44 39 44 53 53 54 54 55 57 57 59 60 60 62 57 55 54 57 57 59 60 63 64 68 70 72 71 72 68 65 66 64 70 68 65 70 71 70 71
17 20 27 36 36 35 39 43 47 57 53 54 54 56 56 59 60 60 60 60 60 58 59 58 60 60 62 65 69 69 70 72 71 74 73 74 71 74 73 71 68 70 69 71
17 20 25 35 37 32 33 35 44 47 51 51 53 56 58 57 59 56 60 57 60 61 60 58 61 61 61 63 66 71 72 72 71 72 71 70 76 72 69 72 70 68 69 69
18 19 30 35 34 32 32 32 49 54 47 47 50 50 57 59 58 56 55 59 62 64 63 60 58 61 59 62 64 68 71 73 72 72 73 75 67 68 68 71 73 71 69 69
19 21 27 32 31 33 34 33 33 42 44 43 45 50 53 57 57 57 56 55 59 59 60 58 56 59 61 63 62 66 70 73 72 73 74 69 72 72 67 71 72 74 74 70
24 28 28 27 28 30 32 31 30 33 34 32 40 36 52 55 56 58 56 55 57 54 57 59 61 59 66 63 62 63 69 72 72 73 73 73 72 72 70 68 69 68 67 69
27 27 26 25 26 29 30 29 29 31 31 29 30 32 47 53 52 57 57 57 56 55 57 59 60 63 63 65 61 63 69 72 72 72 72 72 72 72 71 71 68 72 70 69
23 22 24 24 24 23 26 28 27 31 27 26 35 34 45 49 50 54 58 58 57 55 57 57 60 66 67 65 63 64 69 71 71 71 73 74 73 69 70 71 72 65 64 69
20 20 20 19 21 21 22 26 27 26 31 26 33 39 47 47 50 52 54 58 59 58 58 56 61 61 64 62 67 67 69 71 71 70 73 74 73 72 70 73 74 68 70 68
22 21 19 19 18 18 20 23 22 25 29 27 37 43 45 47 48 51 52 56 58 61 60 59 60 62 66 62 65 66 68 71 70 69 70 70 71 72 72 72 73 72 72 70
23 22 22 19 20 18 18 20 25 20 23 23 28 37 48 48 48 51 52 55 58 61 61 59 60 61 66 66 67 66 68 70 70 69 70 70 70 70 73 71 72 73 73 72
25 22 26 22 21 18 22 18 22 22 25 22 20 38 41 48 48 51 53 56 58 61 62 61 61 63 65 69 67 67 68 68 69 70 70 69 70 70 70 71 72 73 74 75
28 24 23 26 24 25 25 23 16 15 18 25 22 34 50 50 50 53 54 56 60 63 62 61 65 66 66 67 70 68 69 69 69 69 69 70 70 69 70 71 72 72 73 74
36 24 28 29 32 29 24 20 21 21 20 21 21 43 47 48 52 56 56 58 60 63 64 64 66 67 66 68 69 70 70 72 72 70 70 72 71 71 69 72 72 72 74 74
28 28 27 26 26 24 26 22 21 21 22 21 21 30 40 45 53 57 60 61 61 61 62 65 66 67 67 68 69 69 69 71 73 72 73 73 75 75 72 72 73 72 74 73
27 26 27 27 22 22 20 21 23 23 23 22 22 29 47 60 57 59 60 61 62 62 63 64 65 66 66 67 68 68 70 71 72 72 72 73 72 72 73 73 73 73 73 73
27 23 26 24 20 22 21 21 21 24 28 29 29 46 49 48 56 59 61 61 61 62 62 63 65 65 66 67 67 66 67 68 70 70 70 70 71 71 71 72 72 72 74 75
30 32 29 24 32 25 22 29 26 28 35 41 37 41 48 53 56 59 60 59 60 61 62 62 64 65 66 65 64 64 64 66 64 63 63 66 68 69 71 70 71 72 72 73
29 32 28 24 23 35 31 32 30 29 30 35 36 42 52 57 58 58 58 59 59 61 61 60 61 61 63 64 64 63 63 63 62 60 60 62 63 65 65 67 68 70 70 72
25 31 29 28 24 22 38 34 34 33 31 39 42 43 51 54 51 56 60 59 59 60 58 57 57 56 56 59 63 61 61 62 62 58 59 61 61 61 61 63 63 67 68 69
25 27 25 23 24 30 36 31 29 27 40 43 45 47 53 54 56 60 60 59 59 58 57 56 54 54 54 56 57 59 59 58 58 58 58 59 59 60 62 63 62 63 66 66
28 26 25 24 27 31 38 31 30 47 45 44 45 48 54 57 58 58 58 58 57 56 55 54 53 53 53 54 54 54 55 56 56 56 55 56 57 59 60 62 63 64 64 66
30 28 32 33 35 42 37 43 45 45 46 48 49 51 56 55 56 57 56 56 55 54 52 52 52 50 53 55 54 54 54 56 54 54 54 55 55 55 57 58 59 61 62 63
33 36 30 33 35 34 38 43 45 45 46 49 50 53 54 56 56 56 55 55 54 53 51 49 49 49 51 52 54 55 54 56 55 54 54 53 52 52 51 50 50 50 52 53
32 48 34 32 42 47 38 41 43 46 48 50 52 52 54 55 56 57 55 54 52 50 51 51 48 48 50 52 50 53 55 54 54 51 50 50 48 50 49 48 46 45 43 44
30 36 32 31 49 41 44 43 43 43 46 49 51 51 52 55 54 55 55 54 52 51 51 52 51 48 48 49 49 50 51 53 52 48 46 44 43 42 44 44 42 43 43 41